[[{"header":{"parameterUnit":"m.s-1","parameterCategory":1,"la1":30.6,"la2":29.2853,"lo1":-89.7004,"lo2":-87.6739,"dy":0.0162,"dx":0.0183,"nx":112,"ny":82,"refTime":"2024-02-25T06:00:00:Z","depth":0,"parameterNumber":2,"parameterNumberName":"U-component_of_WINDS"},"data":[0.0,0.0,0.0,0.0,0.0,0.0,0.0,0.0,0.0,0.0,0.0,0.0,0.0,0.0,0.0,0.0,0.0,0.0,0.0,0.0,0.0,0.0,0.0,0.0,0.0,0.0,0.0,0.0,0.0,0.0,0.0,0.0,0.0,0.0,0.0,0.0,0.0,0.0,0.0,0.0,0.0,0.0,0.0,0.0,0.0,0.0,0.0,0.0,0.0,0.0,0.0,0.0,0.0,0.0,0.0,0.0,0.0,0.0,0.0,0.0,0.0,0.0,0.0,0.0,0.0,0.0,0.0,0.0,0.0,0.0,0.0,0.0,0.0,0.0,0.0,0.0,0.0,0.0,0.0,0.0,0.0,0.0,0.0,0.0,0.0,0.0,0.0,0.0,0.0,0.0,-6.9272,-6.9254,-6.9563,-6.9893,-7.0055,-6.9893,-6.9729,-6.9729,0.0,0.0,0.0,0.0,0.0,0.0,0.0,0.0,0.0,0.0,0.0,0.0,0.0,0.0,0.0,0.0,0.0,0.0,0.0,0.0,0.0,0.0,0.0,0.0,0.0,0.0,0.0,0.0,0.0,0.0,0.0,0.0,0.0,0.0,0.0,0.0,0.0,0.0,0.0,0.0,0.0,0.0,0.0,0.0,0.0,0.0,0.0,0.0,0.0,0.0,0.0,0.0,0.0,0.0,0.0,0.0,0.0,0.0,0.0,0.0,0.0,0.0,0.0,0.0,0.0,0.0,0.0,0.0,0.0,0.0,0.0,0.0,0.0,0.0,0.0,0.0,0.0,0.0,0.0,0.0,0.0,0.0,0.0,0.0,0.0,0.0,0.0,0.0,0.0,0.0,0.0,0.0,0.0,0.0,0.0,0.0,0.0,0.0,0.0,0.0,0.0,0.0,0.0,0.0,-6.8665,-6.8577,-6.8743,-6.8899,-6.8937,-6.8743,-6.8547,-6.8389,0.0,0.0,0.0,0.0,0.0,0.0,0.0,0.0,0.0,0.0,0.0,0.0,0.0,0.0,0.0,0.0,0.0,0.0,0.0,0.0,0.0,0.0,0.0,0.0,0.0,0.0,0.0,0.0,0.0,0.0,0.0,0.0,0.0,0.0,0.0,0.0,0.0,0.0,0.0,0.0,0.0,0.0,0.0,0.0,0.0,0.0,0.0,0.0,0.0,0.0,0.0,0.0,0.0,0.0,0.0,0.0,0.0,0.0,0.0,0.0,0.0,0.0,0.0,0.0,0.0,0.0,0.0,0.0,0.0,0.0,0.0,0.0,0.0,0.0,0.0,0.0,0.0,0.0,0.0,0.0,0.0,0.0,0.0,0.0,0.0,0.0,0.0,0.0,0.0,0.0,0.0,0.0,0.0,0.0,0.0,0.0,0.0,0.0,0.0,0.0,0.0,0.0,0.0,-6.8682,-6.8856,-6.9268,-6.9491,-6.9707,-6.9885,-6.9527,-6.9233,-6.9013,-6.8818,0.0,0.0,0.0,0.0,0.0,0.0,0.0,0.0,0.0,0.0,0.0,0.0,0.0,0.0,0.0,0.0,0.0,0.0,0.0,0.0,0.0,0.0,0.0,0.0,0.0,0.0,0.0,0.0,0.0,0.0,0.0,0.0,0.0,0.0,0.0,0.0,0.0,0.0,0.0,0.0,0.0,0.0,0.0,0.0,0.0,0.0,0.0,0.0,0.0,0.0,0.0,0.0,0.0,0.0,0.0,0.0,0.0,0.0,0.0,0.0,0.0,0.0,0.0,0.0,0.0,0.0,0.0,0.0,0.0,0.0,0.0,0.0,0.0,0.0,0.0,0.0,0.0,0.0,0.0,0.0,0.0,0.0,0.0,0.0,0.0,0.0,0.0,0.0,0.0,0.0,0.0,0.0,0.0,0.0,0.0,0.0,0.0,0.0,0.0,0.0,0.0,0.0,-6.8493,-6.9063,-6.9881,-7.0045,-7.0204,-7.0465,-7.0038,-6.9702,-6.9636,-6.8656,0.0,0.0,0.0,0.0,0.0,0.0,0.0,0.0,0.0,0.0,0.0,0.0,0.0,0.0,0.0,0.0,0.0,0.0,0.0,0.0,0.0,0.0,0.0,0.0,0.0,0.0,0.0,0.0,0.0,0.0,0.0,0.0,0.0,0.0,0.0,0.0,0.0,0.0,0.0,0.0,0.0,0.0,0.0,0.0,0.0,0.0,0.0,0.0,0.0,0.0,0.0,0.0,0.0,0.0,0.0,0.0,0.0,0.0,0.0,0.0,0.0,0.0,0.0,0.0,0.0,0.0,0.0,0.0,0.0,0.0,0.0,0.0,0.0,0.0,0.0,0.0,0.0,0.0,0.0,0.0,0.0,0.0,0.0,0.0,0.0,0.0,0.0,0.0,0.0,0.0,0.0,0.0,0.0,0.0,0.0,0.0,0.0,0.0,0.0,0.0,0.0,0.0,-6.8675,-6.9063,-6.9504,-6.9345,-6.9193,-6.9224,-6.8913,-6.8848,-6.9231,-6.8505,0.0,0.0,0.0,0.0,0.0,0.0,0.0,0.0,0.0,0.0,0.0,0.0,0.0,0.0,0.0,0.0,0.0,0.0,0.0,0.0,0.0,0.0,0.0,0.0,0.0,0.0,0.0,0.0,0.0,0.0,0.0,0.0,0.0,0.0,0.0,0.0,0.0,0.0,0.0,0.0,0.0,0.0,0.0,0.0,0.0,0.0,0.0,0.0,0.0,0.0,0.0,0.0,0.0,0.0,0.0,0.0,0.0,0.0,0.0,0.0,0.0,0.0,0.0,0.0,0.0,0.0,0.0,0.0,0.0,0.0,0.0,0.0,0.0,0.0,0.0,0.0,0.0,0.0,0.0,0.0,0.0,0.0,0.0,0.0,0.0,0.0,0.0,0.0,0.0,0.0,0.0,0.0,0.0,0.0,0.0,0.0,0.0,0.0,0.0,0.0,0.0,0.0,-6.801,-6.8612,-6.9358,-6.9533,-6.9617,-6.9704,-6.9352,-6.9095,-6.9133,0.0,0.0,0.0,0.0,0.0,0.0,0.0,0.0,0.0,0.0,0.0,0.0,0.0,0.0,0.0,0.0,0.0,0.0,0.0,0.0,0.0,0.0,0.0,0.0,0.0,0.0,0.0,0.0,0.0,0.0,0.0,0.0,0.0,0.0,0.0,0.0,0.0,0.0,0.0,0.0,0.0,0.0,0.0,0.0,0.0,0.0,0.0,0.0,0.0,0.0,0.0,0.0,0.0,0.0,0.0,0.0,0.0,0.0,0.0,0.0,0.0,0.0,0.0,0.0,0.0,0.0,0.0,0.0,0.0,0.0,0.0,0.0,0.0,0.0,0.0,0.0,0.0,0.0,0.0,0.0,0.0,0.0,0.0,0.0,0.0,0.0,0.0,0.0,0.0,0.0,0.0,0.0,0.0,0.0,0.0,0.0,0.0,0.0,0.0,0.0,0.0,0.0,-6.6845,-6.7469,-6.8175,-6.8958,-6.912,-6.9228,-6.9339,-6.9031,-6.8815,-6.8892,0.0,0.0,0.0,0.0,0.0,0.0,0.0,0.0,0.0,0.0,0.0,0.0,0.0,0.0,0.0,0.0,0.0,0.0,0.0,0.0,0.0,0.0,0.0,0.0,0.0,0.0,0.0,0.0,0.0,0.0,0.0,0.0,0.0,0.0,0.0,0.0,0.0,0.0,0.0,0.0,0.0,0.0,0.0,0.0,0.0,0.0,0.0,0.0,0.0,0.0,0.0,0.0,0.0,0.0,0.0,0.0,0.0,0.0,0.0,0.0,0.0,0.0,0.0,0.0,0.0,0.0,0.0,0.0,0.0,0.0,0.0,0.0,0.0,0.0,0.0,0.0,0.0,0.0,0.0,0.0,0.0,0.0,0.0,0.0,0.0,0.0,0.0,0.0,0.0,0.0,0.0,0.0,0.0,0.0,0.0,0.0,0.0,0.0,0.0,0.0,0.0,0.0,-6.6847,-6.7302,-6.7722,-6.8153,-6.7917,-6.7687,-6.7687,-6.7579,-6.7743,0.0,0.0,0.0,0.0,0.0,0.0,0.0,0.0,0.0,0.0,0.0,0.0,0.0,0.0,0.0,0.0,0.0,0.0,0.0,0.0,0.0,0.0,0.0,0.0,0.0,0.0,0.0,0.0,0.0,0.0,0.0,0.0,0.0,0.0,0.0,0.0,0.0,0.0,0.0,0.0,0.0,0.0,0.0,0.0,0.0,0.0,0.0,0.0,0.0,0.0,0.0,0.0,0.0,0.0,0.0,0.0,0.0,0.0,0.0,0.0,0.0,0.0,0.0,0.0,0.0,0.0,0.0,0.0,0.0,0.0,0.0,0.0,0.0,0.0,0.0,0.0,0.0,0.0,0.0,0.0,0.0,0.0,0.0,0.0,0.0,0.0,0.0,0.0,0.0,0.0,0.0,0.0,0.0,0.0,0.0,0.0,0.0,0.0,0.0,0.0,0.0,0.0,0.0,-6.5951,-6.6514,-6.7046,-6.764,-6.7698,-6.7687,-6.7687,-6.7579,-6.7579,-6.7743,0.0,0.0,0.0,0.0,0.0,0.0,0.0,0.0,0.0,0.0,0.0,0.0,0.0,0.0,0.0,0.0,0.0,0.0,0.0,0.0,0.0,0.0,0.0,0.0,0.0,0.0,0.0,0.0,0.0,0.0,0.0,0.0,0.0,0.0,0.0,0.0,0.0,0.0,0.0,0.0,0.0,0.0,0.0,0.0,0.0,0.0,0.0,0.0,0.0,0.0,0.0,0.0,0.0,0.0,0.0,0.0,0.0,0.0,0.0,0.0,0.0,0.0,0.0,0.0,0.0,0.0,0.0,0.0,0.0,0.0,0.0,0.0,0.0,0.0,0.0,0.0,0.0,0.0,0.0,0.0,0.0,0.0,0.0,0.0,0.0,0.0,0.0,0.0,0.0,0.0,0.0,0.0,0.0,0.0,0.0,0.0,0.0,0.0,0.0,0.0,0.0,0.0,-6.5604,-6.6197,-6.6838,-6.7414,-6.7606,-6.7687,-6.7687,-6.7633,-6.7579,-6.7579,0.0,0.0,0.0,0.0,0.0,0.0,0.0,0.0,0.0,0.0,0.0,0.0,0.0,0.0,0.0,0.0,0.0,0.0,0.0,0.0,0.0,0.0,0.0,0.0,0.0,0.0,0.0,0.0,0.0,0.0,0.0,0.0,0.0,0.0,0.0,0.0,0.0,0.0,0.0,0.0,0.0,0.0,0.0,0.0,0.0,0.0,0.0,0.0,0.0,0.0,0.0,0.0,0.0,0.0,0.0,0.0,0.0,0.0,0.0,0.0,0.0,0.0,0.0,0.0,0.0,0.0,0.0,0.0,0.0,0.0,0.0,0.0,0.0,0.0,0.0,0.0,0.0,0.0,0.0,0.0,0.0,0.0,0.0,0.0,0.0,0.0,0.0,0.0,0.0,0.0,0.0,0.0,0.0,0.0,0.0,0.0,0.0,0.0,0.0,0.0,0.0,0.0,-6.5633,-6.6319,-6.6954,-6.7442,-6.7633,-6.7687,-6.7687,-6.7687,-6.7687,-6.7687,0.0,0.0,0.0,0.0,0.0,0.0,0.0,0.0,0.0,0.0,0.0,0.0,0.0,0.0,0.0,0.0,0.0,0.0,0.0,0.0,0.0,0.0,0.0,0.0,0.0,0.0,0.0,0.0,0.0,0.0,0.0,0.0,0.0,0.0,0.0,0.0,0.0,0.0,0.0,0.0,0.0,0.0,0.0,0.0,0.0,0.0,0.0,0.0,0.0,0.0,0.0,0.0,0.0,0.0,0.0,0.0,0.0,0.0,0.0,0.0,-6.6779,-6.7151,0.0,0.0,0.0,0.0,0.0,0.0,0.0,0.0,0.0,0.0,0.0,0.0,0.0,0.0,0.0,0.0,0.0,0.0,0.0,0.0,0.0,0.0,0.0,0.0,0.0,0.0,0.0,0.0,0.0,0.0,0.0,0.0,0.0,0.0,0.0,0.0,0.0,0.0,0.0,0.0,-6.5981,-6.6595,-6.7097,-6.7606,-6.7687,-6.7687,-6.7687,-6.7687,-6.7687,-6.7687,-6.7687,0.0,0.0,0.0,0.0,0.0,0.0,0.0,0.0,0.0,0.0,0.0,0.0,0.0,0.0,0.0,0.0,0.0,0.0,0.0,0.0,0.0,0.0,0.0,0.0,0.0,0.0,0.0,0.0,0.0,0.0,0.0,0.0,0.0,0.0,0.0,0.0,0.0,0.0,0.0,0.0,0.0,0.0,0.0,0.0,0.0,0.0,0.0,0.0,0.0,0.0,0.0,0.0,0.0,0.0,0.0,0.0,0.0,0.0,0.0,-6.6339,-6.6812,0.0,0.0,0.0,0.0,0.0,0.0,0.0,0.0,0.0,0.0,0.0,0.0,0.0,0.0,0.0,0.0,0.0,0.0,0.0,0.0,0.0,0.0,0.0,0.0,0.0,0.0,0.0,0.0,0.0,0.0,0.0,0.0,0.0,0.0,0.0,0.0,0.0,0.0,0.0,0.0,-6.6197,-6.675,-6.719,-6.766,-6.7687,-6.7687,-6.7687,-6.7687,-6.7687,-6.7687,-6.7687,0.0,0.0,0.0,0.0,0.0,0.0,0.0,0.0,0.0,0.0,0.0,0.0,0.0,0.0,0.0,0.0,0.0,0.0,0.0,0.0,0.0,0.0,0.0,0.0,0.0,0.0,0.0,0.0,0.0,0.0,0.0,0.0,0.0,0.0,0.0,0.0,0.0,0.0,0.0,0.0,0.0,0.0,0.0,0.0,0.0,0.0,0.0,0.0,0.0,0.0,0.0,0.0,0.0,-6.4288,-6.4288,-6.4248,-6.4383,-6.4451,-6.4478,-6.5831,-6.644,-6.644,-6.644,0.0,0.0,0.0,0.0,0.0,0.0,0.0,0.0,0.0,0.0,0.0,0.0,0.0,0.0,0.0,0.0,0.0,0.0,0.0,0.0,0.0,0.0,-6.4377,-6.4241,-6.4208,-6.4208,-6.4208,0.0,0.0,0.0,0.0,0.0,0.0,0.0,0.0,0.0,0.0,0.0,-6.6385,-6.6867,-6.7247,-6.766,-6.7687,-6.7687,-6.7687,-6.7687,-6.7687,-6.7687,-6.7687,-6.7687,0.0,0.0,0.0,0.0,0.0,0.0,0.0,0.0,0.0,0.0,0.0,0.0,0.0,0.0,0.0,0.0,0.0,0.0,0.0,0.0,0.0,0.0,0.0,0.0,0.0,0.0,0.0,0.0,0.0,0.0,0.0,0.0,-6.1923,-6.2268,0.0,0.0,0.0,0.0,0.0,0.0,0.0,0.0,0.0,0.0,0.0,0.0,0.0,-6.2584,-6.2685,-6.2882,-6.296,-6.296,-6.3154,-6.3115,-6.2994,-6.3605,-6.3792,-6.37,-6.4546,0.0,-6.4884,-6.4884,0.0,0.0,0.0,0.0,0.0,0.0,0.0,0.0,0.0,0.0,0.0,0.0,0.0,0.0,0.0,0.0,0.0,0.0,0.0,0.0,0.0,0.0,-6.3497,-6.2821,-6.2685,-6.2685,-6.2685,-6.3193,-6.3666,-6.3666,-6.3057,-6.2629,0.0,0.0,0.0,0.0,0.0,0.0,-6.6595,-6.7097,-6.7497,-6.7687,-6.7687,-6.7687,-6.7687,-6.7687,-6.7687,-6.7687,-6.7687,-6.7687,-6.7687,-6.7687,0.0,0.0,0.0,0.0,0.0,0.0,0.0,0.0,0.0,0.0,0.0,0.0,0.0,0.0,0.0,0.0,0.0,0.0,0.0,0.0,0.0,0.0,0.0,0.0,0.0,0.0,0.0,0.0,0.0,-6.211,-6.2268,-6.2381,-6.2381,-6.2381,0.0,0.0,0.0,0.0,0.0,0.0,0.0,0.0,0.0,-6.2381,-6.2381,-6.2381,-6.2381,-6.2576,-6.2727,-6.2727,-6.2923,-6.2885,-6.2727,-6.3033,-6.3085,-6.2888,-6.3226,-6.3362,-6.3429,-6.4275,-6.4613,-6.4613,0.0,0.0,0.0,0.0,-6.4613,-6.4546,-6.414,-6.4005,-6.4005,-6.4005,0.0,0.0,0.0,0.0,0.0,0.0,0.0,-6.3294,-6.2956,-6.2888,-6.2787,-6.2482,-6.2381,-6.2381,-6.2381,-6.2651,-6.2888,-6.2888,-6.2618,-6.2459,-6.2688,-6.3114,0.0,0.0,0.0,-6.611,-6.6779,-6.7247,-6.7378,-6.7063,-6.7026,-6.6843,-6.6402,-6.6366,-6.6549,-6.699,-6.7026,-6.721,-6.7677,-6.7687,-6.7687,0.0,0.0,0.0,0.0,0.0,0.0,0.0,0.0,0.0,0.0,0.0,0.0,0.0,0.0,0.0,0.0,0.0,0.0,0.0,0.0,0.0,0.0,0.0,0.0,0.0,0.0,0.0,0.0,-6.2381,-6.2381,-6.2381,-6.2381,-6.2381,0.0,0.0,0.0,0.0,0.0,0.0,-6.2381,-6.2381,-6.2381,-6.2381,-6.2381,-6.2381,-6.2381,-6.2654,-6.277,-6.277,-6.3038,-6.3038,-6.277,-6.277,-6.2615,-6.2381,-6.2381,-6.2381,-6.2482,-6.3565,-6.4038,-6.4038,-6.4038,-6.4038,-6.4038,-6.4038,-6.4038,-6.3971,-6.3429,-6.3226,-6.3226,-6.3226,-6.3226,-6.3226,-6.3226,0.0,0.0,0.0,0.0,-6.2381,-6.2381,-6.2381,-6.2381,-6.2381,-6.2381,-6.2381,-6.2381,-6.2381,-6.2381,-6.2381,-6.242,-6.2537,-6.2808,-6.3343,0.0,-6.4491,-6.5312,-6.6025,-6.643,-6.6738,-6.6773,-6.6256,-6.6182,-6.5962,-6.5375,-6.5301,-6.5558,-6.6145,-6.6182,-6.6476,-6.7063,-6.71,-6.71,-6.71,0.0,0.0,0.0,0.0,0.0,0.0,0.0,0.0,0.0,0.0,0.0,0.0,0.0,0.0,0.0,0.0,0.0,0.0,0.0,0.0,0.0,0.0,0.0,0.0,0.0,0.0,0.0,0.0,0.0,-6.2381,-6.2381,0.0,0.0,0.0,0.0,-6.2381,-6.2381,-6.2381,-6.2381,-6.2381,-6.2381,-6.2381,-6.2381,-6.2381,-6.2381,-6.2808,-6.3,-6.3,-6.3377,-6.3377,-6.3,-6.3,-6.277,-6.2381,-6.2381,-6.2381,-6.2381,-6.2482,-6.2516,-6.2516,-6.2516,-6.2516,-6.2516,-6.2516,-6.2516,-6.2482,-6.2448,-6.2448,-6.2448,-6.2448,-6.2448,-6.2448,-6.2448,-6.2415,0.0,0.0,-6.2381,-6.2381,-6.2381,-6.2381,-6.2381,-6.2381,-6.2381,-6.2381,-6.2381,-6.2381,-6.2381,-6.2381,-6.2537,-6.2808,-6.3189,0.0,-6.4356,-6.4508,-6.5082,-6.5416,-6.5157,-6.527,-6.5385,-6.5375,-6.5375,-6.5338,-6.5301,-6.5301,-6.5338,-6.5375,-6.5375,-6.5375,-6.5411,-6.5411,-6.5411,-6.5411,-6.6182,0.0,0.0,0.0,0.0,0.0,0.0,0.0,0.0,0.0,0.0,0.0,0.0,0.0,0.0,0.0,0.0,0.0,0.0,0.0,0.0,0.0,0.0,0.0,0.0,0.0,0.0,0.0,0.0,-6.2381,-6.2381,0.0,-6.2381,-6.2381,-6.2381,-6.2381,-6.2381,-6.2381,-6.2381,-6.2381,-6.2381,-6.2381,-6.2381,-6.2381,-6.2381,-6.2654,-6.2808,-6.2808,-6.3076,-6.3076,-6.2808,-6.2808,-6.2654,-6.2381,-6.2381,-6.2381,-6.2381,-6.2381,-6.2381,-6.2381,-6.2381,-6.2381,-6.2381,-6.2381,-6.2381,-6.2381,-6.2381,-6.2381,-6.2381,-6.2381,-6.2381,-6.2381,-6.2381,-6.2381,-6.2381,-6.2381,-6.2381,-6.2381,-6.2381,-6.2381,-6.2381,-6.2381,-6.2381,-6.2381,-6.2381,-6.2381,-6.2245,-6.1772,-6.2232,-6.2672,-6.2538,-6.3203,-6.3717,-6.3716,-6.4403,-6.4939,-6.4965,-6.516,-6.5118,-6.4567,-6.453,-6.431,-6.3734,-6.3686,-6.3943,-6.4494,-6.453,-6.4751,-6.5301,-6.5301,-6.5301,-6.5301,-6.5595,-6.5742,0.0,0.0,0.0,0.0,0.0,0.0,0.0,0.0,0.0,0.0,0.0,0.0,0.0,0.0,0.0,0.0,0.0,0.0,0.0,0.0,0.0,0.0,0.0,0.0,0.0,-6.2381,-6.2381,-6.2381,-6.2381,-6.2381,-6.2381,-6.2381,-6.2381,-6.2381,-6.2381,-6.2381,-6.2381,-6.2381,-6.2381,-6.2381,-6.2381,-6.2381,-6.2381,-6.2576,-6.2727,-6.2727,-6.2923,-6.2885,-6.2727,-6.2727,-6.2576,-6.2381,-6.2381,-6.2381,-6.2381,-6.2381,-6.2381,-6.2381,-6.2381,-6.2381,-6.2381,-6.2381,-6.2381,-6.2381,-6.2381,-6.2381,-6.2381,-6.2381,-6.2381,-6.2381,-6.2381,-6.2381,-6.2381,-6.2381,-6.2381,-6.2381,-6.2381,-6.2381,-6.2347,-6.2076,-6.2009,-6.1941,-6.167,-6.1603,-6.1467,-6.0994,-6.1732,-6.2309,-6.1895,-6.2614,-6.3206,-6.3051,-6.3754,-6.4239,-6.4276,-6.4343,-6.4273,-6.3723,-6.3649,-6.3429,-6.2853,-6.278,-6.3062,-6.3613,-6.3649,-6.3906,-6.4457,-6.4457,-6.4457,-6.4457,-6.4751,-6.5044,-6.5301,0.0,0.0,0.0,0.0,0.0,0.0,0.0,0.0,0.0,0.0,0.0,0.0,0.0,0.0,0.0,0.0,0.0,0.0,0.0,0.0,0.0,0.0,0.0,-6.2381,-6.2381,-6.2381,-6.2381,-6.2381,-6.2381,-6.2381,-6.2381,-6.2381,-6.2381,-6.2381,-6.2381,-6.2381,-6.2381,-6.2381,-6.2381,-6.2381,-6.2381,-6.2381,-6.2576,-6.2688,-6.2693,-6.2885,-6.2885,-6.2688,-6.2688,-6.2576,-6.2381,-6.2381,-6.2381,-6.2381,-6.2381,-6.2381,-6.2381,-6.2381,-6.2381,-6.2381,-6.2381,-6.2381,-6.2381,-6.2381,-6.2381,-6.2381,-6.2381,-6.2381,-6.2347,-6.2347,-6.2347,-6.2313,-6.2313,-6.2313,-6.2313,-6.2313,-6.2313,-6.2144,-6.1434,-6.1264,-6.1061,-6.0283,-6.0114,-6.008,-6.008,-6.0996,-6.1642,-6.1321,-6.2152,-6.2777,-6.2599,-6.3147,0.0,-6.2865,-6.278,-6.278,-6.2743,-6.2768,-6.2743,-6.2732,-6.2732,-6.2732,-6.2732,-6.2743,-6.2768,-6.2768,-6.2805,-6.278,-6.278,-6.3613,-6.442,-6.5228,0.0,0.0,0.0,0.0,0.0,0.0,0.0,0.0,0.0,0.0,0.0,0.0,0.0,0.0,0.0,0.0,0.0,0.0,0.0,0.0,0.0,-6.2381,-6.2381,-6.2381,-6.2381,-6.2381,-6.2381,-6.2381,-6.2381,-6.2381,-6.2381,-6.2381,-6.2381,-6.2381,-6.2381,-6.2381,-6.2381,-6.2381,-6.2381,-6.2381,-6.2381,-6.2381,-6.2459,-6.2459,-6.2459,-6.2537,-6.2537,-6.2459,-6.2459,-6.2459,-6.2381,-6.2381,-6.2381,-6.2381,-6.2381,-6.2381,-6.2381,-6.2381,-6.2381,-6.2381,-6.2381,-6.2381,-6.2381,-6.2381,-6.2381,-6.2381,-6.2381,-6.2042,-6.1603,-6.1603,-6.1197,-6.0723,-6.0723,-6.0723,-6.0723,-6.0723,-6.0723,-6.0689,-6.0486,-6.0419,-6.0385,-6.0148,-6.0114,-5.9945,-5.9404,-5.9769,-6.0273,-6.0425,-6.1313,-6.1996,-6.1803,-6.235,-6.273,-6.2792,-6.278,-6.2585,-6.1998,-6.1924,-6.1704,-6.1117,-6.108,-6.108,-6.108,-6.1594,-6.1924,-6.1924,-6.2511,-6.278,-6.278,-6.3062,-6.3282,0.0,0.0,0.0,0.0,0.0,0.0,0.0,0.0,0.0,0.0,0.0,0.0,0.0,0.0,0.0,0.0,0.0,0.0,0.0,0.0,0.0,0.0,-6.2381,-6.2381,-6.2381,-6.2381,-6.2381,-6.2381,-6.2381,-6.2381,-6.2381,-6.2381,-6.2381,-6.2381,-6.2381,-6.2381,-6.2381,-6.2381,-6.2381,-6.2381,-6.2381,-6.2381,-6.2381,-6.2381,-6.2381,-6.2381,-6.2381,-6.2381,-6.2381,-6.2381,-6.2381,-6.2381,-6.2381,-6.2212,-6.1941,-6.1941,-6.1738,-6.1501,0.0,0.0,0.0,0.0,-6.1434,-6.1434,-6.1434,-6.1434,-6.1434,-6.1434,-6.1163,-6.0791,-6.0791,-6.0486,-6.0114,-6.0114,-6.0114,-6.0114,-6.0114,-6.0114,-6.0013,-5.9708,-5.9641,-5.9539,-5.9235,-5.9167,-5.9066,-5.8626,-5.8851,0.0,-5.9185,-6.0299,-6.125,-6.1473,-6.1734,-6.1989,-6.2242,-6.1998,-6.163,-6.1153,-6.108,-6.0896,-6.0456,-6.0419,0.0,0.0,0.0,-6.108,-6.108,-6.1557,0.0,0.0,0.0,-6.1814,-6.1814,-6.1814,0.0,0.0,-6.3943,-6.4273,0.0,0.0,0.0,0.0,0.0,0.0,0.0,0.0,0.0,0.0,0.0,0.0,0.0,0.0,0.0,0.0,-6.2381,-6.2381,-6.2381,-6.2381,-6.2381,-6.2381,-6.2381,-6.2381,-6.2381,-6.2313,-6.2279,-6.2279,-6.2178,-6.2144,-6.2144,-6.2212,0.0,0.0,0.0,-6.2381,-6.2381,-6.2381,-6.2381,-6.2381,-6.2381,-6.2381,-6.2381,-6.2313,-6.2279,-6.2245,-6.2178,-6.1772,-6.1163,-6.1163,-6.0757,-6.025,-6.1603,-6.1738,-6.1095,-6.0351,-6.0114,-6.0114,-6.0114,0.0,0.0,-6.0114,-6.0047,-5.9979,-5.9979,-5.9911,-5.9844,-5.9844,-5.9844,-5.9844,-5.9844,-5.9844,-5.9674,-5.9032,-5.8896,-5.8693,-5.8017,-5.7814,-5.778,-5.778,-5.8037,-5.8117,-5.7808,-5.9179,-6.0539,-6.115,-6.1154,-6.1149,-6.1423,-6.086,-6.0382,-6.0272,-6.0272,0.0,-6.0126,-6.0126,-6.0126,-6.0126,-6.0199,-6.0309,-6.0419,-6.0419,-6.0419,-6.0419,-6.0419,-6.0419,-6.0419,-6.0419,-6.0419,-6.0419,-6.1887,-6.2523,0.0,0.0,0.0,0.0,0.0,0.0,0.0,0.0,0.0,0.0,0.0,0.0,0.0,0.0,0.0,-6.2381,-6.2381,-6.2381,-6.2381,-6.2381,-6.2381,-6.2381,-6.2381,-6.2381,-6.2381,-6.1873,-6.1501,-6.1501,-6.0926,-6.0554,-6.0554,-6.1163,-6.1501,-6.1501,-6.2076,-6.2381,-6.2381,-6.2381,-6.2381,-6.2381,-6.2381,0.0,-6.2381,-6.1772,-6.1501,-6.1467,-6.0825,-6.0452,-6.0317,-6.0317,-6.025,-6.0148,-6.0419,-6.0452,-6.0317,-6.0148,-6.0114,-6.0114,-6.0114,-6.0114,-6.0114,-6.0114,-5.9708,-5.9235,-5.9235,-5.8795,0.0,-5.8321,-5.8321,-5.8321,-5.8321,-5.8321,-5.8287,-5.8152,-5.8118,-5.8051,-5.7915,-5.7442,-5.7002,-5.7002,-5.6741,-5.6542,-5.6745,-5.831,-5.9544,-5.957,-5.9957,-6.0345,-6.0591,-6.0493,-6.0162,-5.9478,-5.9404,-5.9171,-5.851,-5.8474,-5.8474,-5.8474,-5.9098,-5.9722,-6.0382,-6.0419,-6.0419,-6.0419,-6.0419,-6.0419,-6.0419,-6.0419,-6.0419,-6.0419,-6.0713,-6.086,0.0,0.0,0.0,0.0,0.0,0.0,0.0,0.0,0.0,0.0,0.0,-6.2392,-6.2415,0.0,-6.2381,-6.2381,-6.2381,-6.2245,-6.1907,-6.1839,-6.1839,-6.1839,-6.1839,-6.167,-6.1298,-6.0926,-6.0689,-6.0689,-6.0317,-6.0114,-6.0114,-6.0486,-6.0689,-6.0689,-6.1061,-6.1231,-6.1231,-6.1231,-6.1231,-6.1231,-6.1231,-6.1231,-6.1231,-6.0858,-6.0689,-6.0689,-6.0283,-5.9911,-5.9539,-5.9133,-5.8998,-5.8998,-5.8998,-5.9235,-5.9505,-5.9133,-5.8998,-5.8998,-5.8998,-5.8998,-5.8998,-5.8998,-5.8761,-5.8457,-5.8457,-5.8186,-5.7881,-5.7881,-5.7881,-5.7814,-5.7442,-5.734,-5.7273,-5.69,-5.6799,-5.6799,-5.6799,-5.6528,-5.6258,-5.6258,-5.6129,-5.5962,-5.5924,-5.6941,-5.8048,-5.878,-5.9138,-5.9406,-5.9651,-5.9417,-5.9061,-5.8657,-5.8621,-5.8437,-5.8033,-5.7997,-5.7997,-5.7997,-5.84,-5.8767,-5.9171,-5.9208,-5.9208,-5.9208,-5.9208,-5.9208,-5.9208,-5.9208,-5.9208,-5.9208,-5.9208,-5.9648,0.0,0.0,0.0,0.0,0.0,0.0,0.0,-6.0586,-6.1326,-6.2238,-6.2394,-6.2398,-6.2415,-6.2381,-6.2381,-6.2381,-6.2279,-6.1975,-6.14,-6.1163,-6.1028,-6.0892,-6.0994,-6.0825,-6.0148,-5.9979,-5.9877,-5.9877,-5.9742,-5.9674,-5.9674,-5.981,-5.9877,-5.9877,-6.0047,-6.0114,-6.0114,-6.0114,-6.0114,-6.0114,-6.0114,-6.0114,-6.0114,-5.9945,-5.9877,-5.9877,-5.9742,-5.9336,-5.8727,-5.7983,-5.7679,-5.7679,-5.7509,-5.7848,-5.8321,-5.7848,-5.7679,-5.7645,-5.7509,-5.7476,-5.7476,-5.7476,-5.7476,-5.7476,-5.7476,-5.7476,-5.7476,-5.7476,-5.7476,-5.734,-5.6731,-5.6596,-5.6461,-5.5817,-5.5681,-5.5681,-5.5681,-5.5615,-5.5513,-5.5513,-5.5517,-5.5417,-5.5071,-5.5516,-5.647,-5.8018,-5.8303,-5.8444,-5.8713,-5.833,-5.7997,-5.7997,-5.7997,-5.7997,-5.7997,-5.7997,-5.7997,-5.7997,-5.7997,-5.7997,-5.7997,-5.7997,-5.7997,-5.7997,-5.7997,-5.7997,-5.7997,-5.7997,-5.7997,-5.7997,-5.7997,-5.8694,-5.5179,-5.523,-5.5488,-5.6526,-5.7551,-5.8759,0.0,-6.102,-6.1354,-6.2192,-6.2398,-6.2415,-6.2381,-6.2381,-6.2381,-6.2381,-6.1839,-6.14,-6.1332,-6.0689,-6.0013,-5.9336,-5.9844,-6.0216,-6.0114,-5.9505,-5.9133,-5.9133,-5.8524,-5.8152,-5.8152,-5.8761,-5.9133,-5.9133,-5.9776,-6.0114,-6.0114,-6.0114,-6.0114,-6.0114,-6.0114,-6.0114,-6.008,-5.9438,-5.9133,-5.9099,-5.8423,-5.8084,-5.7949,-5.7239,-5.6934,-5.6867,-5.6224,-5.6021,-5.6156,-5.6697,-5.6934,-5.6833,-5.619,-5.5953,-5.5953,-5.5953,-5.5953,-5.5953,-5.5953,-5.5953,-5.5953,-5.5953,-5.5953,-5.5953,-5.5817,-5.5817,-5.5783,-5.575,-5.5681,-5.5681,-5.5681,-5.5209,-5.4702,-5.4702,-5.4228,-5.3822,-5.3853,-5.431,-5.5131,-5.6395,-5.7035,-5.7508,-5.7872,-5.7964,-5.7997,-5.7997,-5.7997,-5.7997,-5.7997,-5.7997,-5.7997,-5.7997,-5.7997,-5.7997,-5.7997,-5.7997,-5.7997,-5.7997,-5.7997,-5.7997,-5.7997,-5.7997,-5.7997,-5.7997,-5.7997,-5.8107,-5.521,-5.5679,-5.6365,-5.7417,-5.8801,-6.0291,-6.1577,-6.1858,-6.1958,-6.232,-6.2392,-6.2381,-6.2381,-6.2381,-6.2245,-6.1839,-6.1501,-6.0994,-6.008,-5.9674,-5.9201,-5.8457,-5.8626,-5.8795,-5.8795,-5.8524,-5.8355,-5.8355,-5.8051,-5.7881,-5.7881,-5.8186,-5.8355,-5.8355,-5.866,-5.8795,-5.8795,-5.8795,-5.8795,-5.8795,-5.8795,-5.8795,-5.8795,-5.849,-5.8355,-5.8321,-5.7577,-5.7273,-5.7205,-5.6461,-5.6156,-5.6156,-5.5817,-5.5681,-5.575,-5.6055,-5.6156,-5.6122,-5.5818,-5.5681,-5.5681,-5.5681,-5.5681,-5.5681,-5.5681,-5.5681,-5.5681,-5.5681,-5.5681,-5.5615,-5.5175,-5.5074,-5.4938,-5.4532,-5.4431,-5.4431,-5.4431,-5.4194,-5.3957,-5.3957,-5.3721,-5.3551,-5.3684,-5.4044,-5.4648,-5.5519,-5.6311,-5.6974,-5.7486,-5.7763,-5.7927,-5.7997,-5.7997,-5.7997,-5.7997,-5.7997,-5.7997,-5.7997,-5.7997,-5.7997,-5.7997,-5.7997,-5.7997,-5.7997,-5.7997,-5.7997,-5.7997,-5.7997,-5.7997,-5.7997,-5.7997,-5.7997,-5.519,-5.5998,-5.7056,-5.8028,-5.9334,-6.0583,-6.1437,-6.1832,-6.2078,-6.2125,-6.2239,-6.2268,-6.2381,-6.2212,-6.1907,-6.14,-6.096,-6.0283,-5.9167,-5.8829,-5.849,-5.7949,-5.7881,-5.7881,-5.7881,-5.7881,-5.7881,-5.7881,-5.7881,-5.7881,-5.7881,-5.7881,-5.7881,-5.7881,-5.7881,-5.7881,-5.7881,-5.7881,-5.7881,-5.7881,-5.7881,-5.7881,-5.7881,-5.7679,-5.7577,-5.7543,-5.6833,-5.6494,-5.6461,-5.5716,-5.5412,-5.5378,-5.5175,-5.5108,-5.5108,-5.5108,-5.5243,-5.5378,-5.5175,-5.5108,-5.5108,-5.5108,-5.5108,-5.5108,-5.5108,-5.5108,-5.5108,-5.5108,-5.5108,-5.4972,-5.4431,-5.4296,-5.416,-5.3619,-5.3518,-5.3518,-5.3518,-5.3518,-5.3518,-5.3518,-5.3518,-5.3517,-5.3617,-5.3848,-5.4301,-5.4926,-5.5665,-5.642,-5.7188,-5.7583,-5.7857,-5.7997,-5.7997,-5.7997,-5.7997,-5.7997,-5.7997,-5.7997,-5.7997,-5.7997,-5.7997,-5.7997,-5.7997,-5.7997,-5.7997,-5.7997,-5.7997,-5.7997,-5.7997,-5.7997,-5.7776,-5.7666,-5.5189,-5.6005,-5.7043,-5.8027,-5.8328,-5.8601,-5.9567,-6.0478,-6.1219,-6.1487,-6.1736,-6.2043,-6.2341,-6.1806,-6.1332,-6.1298,-6.0047,-5.9066,-5.9032,-5.8389,-5.7915,-5.7881,-5.7881,-5.7881,-5.7881,-5.7881,-5.7881,-5.7881,-5.7881,-5.7881,-5.7881,-5.7881,-5.7881,-5.7881,-5.7881,-5.7881,-5.7881,-5.7881,-5.7881,-5.7881,-5.7881,-5.7881,-5.7881,-5.7171,-5.6833,-5.6799,-5.6055,-5.5715,-5.5683,-5.4938,-5.4634,-5.4566,-5.3856,-5.3585,-5.3585,-5.3585,-5.4025,-5.4532,-5.3822,-5.3585,-5.3585,-5.3585,-5.3585,-5.3585,-5.3585,-5.3585,-5.3585,-5.3585,-5.3585,-5.3551,-5.3551,-5.3551,-5.3551,-5.3518,-5.3518,-5.3518,-5.3518,-5.3518,-5.3518,-5.3518,-5.3518,-5.3518,-5.3518,-5.3617,-5.3915,-5.4431,-5.4926,-5.5665,-5.6855,-5.7461,-5.7857,-5.7997,-5.7997,-5.7997,-5.7997,-5.7997,-5.7997,-5.7997,-5.7997,-5.7997,-5.7997,-5.7997,-5.7997,-5.7997,-5.7997,-5.7997,-5.7997,-5.7997,-5.7997,-5.796,-5.7189,-5.6859,-5.521,-5.596,-5.6715,-5.6317,-5.6778,-5.7582,-5.8576,-5.9469,-6.0266,-6.0795,-6.1358,-6.1837,-6.211,-6.1694,-6.1129,-6.0588,-5.9674,-5.8829,-5.8355,-5.8051,-5.7881,-5.7881,-5.7881,-5.7881,-5.7881,-5.7881,-5.7881,-5.7881,-5.7881,-5.7881,-5.7881,-5.7881,-5.7881,-5.7881,-5.7881,-5.7881,-5.7881,-5.7881,-5.7881,-5.7881,-5.7881,-5.7645,-5.7171,-5.69,-5.6528,-5.6055,-5.5277,-5.4972,-5.4905,-5.416,-5.3856,-5.3856,-5.3585,-5.3518,-5.3518,-5.3518,-5.3653,-5.3822,-5.3585,-5.3518,-5.3518,-5.3518,-5.3518,-5.3518,-5.3518,-5.3518,-5.3518,-5.3518,-5.3518,-5.3518,-5.3518,-5.3518,-5.3518,-5.3518,-5.3518,-5.3518,-5.3518,-5.3518,-5.3518,-5.3518,-5.3518,-5.3518,-5.3518,-5.3618,-5.3915,-5.4523,-5.5461,-5.6339,-5.7036,-5.7437,-5.7739,-5.7857,-5.781,-5.7786,-5.7881,-5.7881,-5.7904,-5.7997,-5.7997,-5.7997,-5.7997,-5.7997,-5.7997,-5.7997,-5.7997,-5.774,-5.7189,-5.7189,-5.6932,-5.6381,-5.6124,-5.5978,-5.52,-5.57,-5.6058,-5.5378,-5.591,-5.6823,-5.7713,-5.8523,-5.9314,-6.0108,-6.0853,-6.1465,-6.1797,-6.1262,-6.0608,-6.0182,-5.9268,-5.8457,-5.7949,-5.7881,-5.7881,-5.7881,-5.7881,-5.7881,-5.7881,-5.7881,-5.7881,-5.7881,-5.7881,-5.7881,-5.7881,-5.7881,-5.7881,-5.7881,-5.7881,-5.7881,-5.7881,-5.7881,-5.7746,-5.7509,-5.7509,-5.7103,-5.6393,-5.6122,-5.575,-5.5277,-5.4532,-5.4194,-5.416,-5.3687,-5.3518,-5.3518,-5.3518,-5.3518,-5.3518,-5.3518,-5.3518,-5.3518,-5.3518,-5.3518,-5.3518,-5.3518,-5.3518,-5.3518,-5.3518,-5.3518,-5.3518,-5.3518,-5.3518,-5.3518,-5.3518,-5.3518,-5.3518,-5.3518,-5.3518,-5.3518,-5.3518,-5.3518,-5.3518,-5.3518,-5.3518,-5.3518,-5.3518,-5.3618,-5.3881,-5.446,-5.5367,-5.6284,-5.6871,-5.7213,-5.7437,-5.7667,-5.7559,-5.7559,-5.7739,-5.7786,-5.7857,-5.7997,-5.7997,-5.7997,-5.7997,-5.7997,-5.785,-5.7593,-5.7556,-5.7189,-5.6381,-5.6381,-5.6088,-5.5574,-5.5317,-5.517,-5.52,-5.522,-5.518,-5.5224,-5.5682,-5.6347,-5.6977,-5.7652,-5.8409,-5.9323,-6.0173,-6.0886,-6.1547,-6.0622,-5.9881,-6.0076,-5.8863,-5.7881,-5.7881,-5.7881,-5.7881,-5.7881,-5.7881,-5.7881,-5.7881,-5.7881,-5.7881,-5.7881,-5.7881,-5.7881,-5.7881,-5.7881,-5.7881,-5.7881,-5.7881,-5.7881,-5.7881,-5.7848,-5.7476,-5.6731,-5.6731,-5.6359,-5.5649,-5.4905,-5.4566,-5.4499,-5.3788,-5.3518,-5.3518,-5.3518,-5.3518,-5.3518,-5.3518,-5.3518,-5.3518,-5.3518,-5.3518,-5.3518,-5.3518,-5.3518,-5.3518,-5.3518,-5.3518,-5.3518,-5.3518,-5.3518,-5.3518,-5.3518,-5.3518,-5.3518,-5.3518,-5.3518,-5.3518,-5.3518,-5.3518,-5.3518,-5.3518,-5.3518,-5.3518,-5.3518,-5.3518,-5.3518,-5.3518,-5.3618,-5.3782,-5.4141,-5.4738,-5.549,-5.6366,-5.6776,-5.7061,-5.7313,-5.7338,-5.7388,-5.7534,-5.7715,-5.7834,-5.7973,-5.7997,-5.796,-5.7923,-5.7923,-5.7556,-5.6748,-5.6748,-5.6345,-5.5559,-5.5559,-5.5522,-5.5486,-5.4693,-5.4326,-5.52,-5.517,-5.522,-5.523,-5.5491,-5.5929,-5.6183,-5.6814,-5.7653,-5.8669,-5.9564,-6.043,-6.1301,-6.0543,-5.9881,-6.0076,-5.8863,-5.7881,-5.7881,-5.7881,-5.7881,-5.7881,-5.7881,-5.7881,-5.7881,-5.7881,-5.7881,-5.7881,-5.7881,-5.7881,-5.7881,-5.7881,-5.7881,-5.7881,-5.7881,-5.7881,-5.7881,-5.734,-5.6697,-5.5987,-5.5987,-5.5615,-5.4871,-5.4668,-5.4296,-5.3788,-5.3585,-5.3518,-5.3518,-5.3518,-5.3518,-5.3518,-5.3518,-5.3518,-5.3518,-5.3518,-5.3518,-5.3518,-5.3518,-5.3518,-5.3518,-5.3518,-5.3518,-5.3518,-5.3518,-5.3518,-5.3518,-5.3518,-5.3518,-5.3518,-5.3518,-5.3518,-5.3518,-5.3518,-5.3518,-5.3518,-5.3518,-5.3518,-5.3518,-5.3518,-5.3518,-5.3518,-5.3518,-5.3517,-5.3618,-5.3816,-5.4301,-5.4987,-5.5929,-5.6355,-5.6626,-5.6812,-5.6733,-5.6812,-5.7112,-5.7163,-5.7388,-5.7834,-5.7857,-5.7647,-5.7152,-5.7116,-5.6748,-5.5904,-5.5904,-5.55,-5.4693,-5.4693,-5.4399,-5.3812,-5.3592,-5.3518,-5.5179,-5.5179,-5.5179,-5.5179,-5.536,-5.5511,-5.57,-5.6262,-5.7036,-5.8026,-5.903,-6.0001,-6.102,-6.0385,-5.9732,-6.0076,-5.8863,-5.7881,-5.7881,-5.7881,-5.7881,-5.7881,-5.7881,-5.7881,-5.7881,-5.7881,-5.7881,-5.7881,-5.7881,-5.7881,-5.7881,-5.7881,-5.7881,-5.7881,-5.7577,-5.7273,-5.6934,-5.6528,-5.5953,-5.5209,-5.5209,-5.4837,-5.4126,-5.4126,-5.389,-5.3518,-5.3518,-5.3518,-5.3518,-5.3518,-5.3518,-5.3518,-5.3518,-5.3518,-5.3518,-5.3518,-5.3518,-5.3518,-5.3518,-5.3518,-5.3518,-5.3518,-5.3518,-5.3518,-5.3518,-5.3518,-5.3518,-5.3518,-5.3518,-5.3518,-5.3518,-5.3518,-5.3518,-5.3518,-5.3518,-5.3518,-5.3518,-5.3518,-5.3518,-5.3518,-5.3518,-5.3518,-5.3518,-5.3518,-5.3551,-5.3684,-5.4045,-5.4494,-5.5074,-5.5642,-5.6049,-5.6182,-5.6162,-5.6209,-5.6591,-5.6724,-5.6866,-5.7,-5.712,-5.6872,-5.6218,-5.6249,-5.5904,-5.5097,-5.506,-5.4693,-5.3885,-5.3885,-5.3665,-5.3203,-5.3203,-5.3203,-5.5179,-5.5179,-5.5179,-5.5179,-5.5179,-5.5229,-5.5481,-5.5899,-5.6554,-5.7527,-5.8578,-5.9608,-6.0778,-6.0151,-5.9616,-6.0038,-5.8863,-5.7881,-5.7881,-5.7881,-5.7881,-5.7881,-5.7881,-5.7881,-5.7881,-5.7881,-5.7881,-5.7881,-5.7881,-5.7881,-5.7881,-5.7814,-5.7712,-5.7611,-5.7002,-5.6292,-5.5581,-5.5581,-5.5175,-5.4431,-5.4431,-5.4126,-5.3518,-5.3518,-5.3518,-5.3518,-5.3518,-5.3518,-5.3518,-5.3518,-5.3518,-5.3518,-5.3518,-5.3518,-5.3518,-5.3518,-5.3518,-5.3518,-5.3518,-5.3518,-5.3518,-5.3518,-5.3518,-5.3518,-5.3518,-5.3518,-5.3518,-5.3518,-5.3518,-5.3518,-5.3518,-5.3518,-5.3518,-5.3518,-5.3518,-5.3518,-5.3518,-5.3518,-5.3518,-5.3518,-5.3518,-5.3518,-5.3518,-5.3518,-5.3517,-5.3651,-5.3849,-5.4013,-5.4141,-5.4865,-5.5413,-5.5525,-5.5525,-5.5636,-5.5808,-5.6087,-5.608,-5.5785,-5.6019,-5.5882,-5.5204,-5.5339,-5.5038,-5.4231,-5.4252,-5.3922,-5.3203,-5.3203,-5.3203,-5.3203,-5.3203,-5.3203,-5.5179,-5.5179,-5.5179,-5.5179,-5.5179,-5.5179,-5.5229,-5.5681,-5.6342,-5.7291,-5.8272,-5.9355,-6.0736,-6.0151,-5.9616,-6.0038,-5.8863,-5.7881,-5.7881,-5.7881,-5.7881,-5.7881,-5.7881,-5.7881,-5.7881,-5.7881,-5.7881,-5.7881,-5.7881,-5.7881,-5.7881,-5.7306,-5.6697,-5.6122,-5.5987,-5.5547,-5.4803,-5.4769,-5.4431,-5.3687,-5.3687,-5.3619,-5.3518,-5.3518,-5.3518,-5.3518,-5.3518,-5.3518,-5.3518,-5.3518,-5.3518,-5.3518,-5.3518,-5.3518,-5.3518,-5.3518,-5.3518,-5.3518,-5.3518,-5.3518,-5.3518,-5.3518,-5.3518,-5.3518,-5.3518,-5.3518,-5.3518,-5.3518,-5.3518,-5.3518,-5.3518,-5.3518,-5.3518,-5.3518,-5.3518,-5.3518,-5.3518,-5.3518,-5.3518,-5.3518,-5.3518,-5.3518,-5.3518,-5.3518,-5.3518,-5.3517,-5.3651,-5.3783,-5.3782,-5.4303,-5.4683,-5.4714,-5.4714,-5.4622,-5.4402,-5.4541,-5.4646,-5.4492,-5.4758,-5.4677,-5.409,-5.4318,-5.4063,-5.328,-5.3366,-5.3314,-5.3203,-5.3203,-5.3203,-5.3203,-5.3203,-5.3203,-5.5179,-5.5179,-5.5179,-5.5179,-5.5179,-5.5179,-5.5179,-5.5631,-5.6244,-5.7084,-5.8133,-5.9266,-6.06,-6.0104,-5.9616,-6.0038,-5.8863,-5.7881,-5.7881,-5.7881,-5.7881,-5.7881,-5.7881,-5.7881,-5.7881,-5.7881,-5.7881,-5.7881,-5.7543,-5.734,-5.734,-5.663,-5.5886,-5.5141,-5.5141,-5.4769,-5.4025,-5.4025,-5.3856,-5.3518,-5.3518,-5.3518,-5.3518,-5.3518,-5.3518,-5.3518,-5.3518,-5.3518,-5.3518,-5.3518,-5.3247,-5.2875,-5.2875,-5.2638,-5.23,-5.23,-5.23,-5.2367,-5.2739,-5.2875,-5.2942,-5.3382,-5.3518,-5.3518,-5.3518,-5.3518,-5.3518,-5.3518,-5.3518,-5.3518,-5.3518,-5.3518,-5.3518,-5.3518,-5.3518,-5.3518,-5.3518,-5.3518,-5.3518,-5.3518,-5.3518,-5.3518,-5.3518,-5.3518,-5.3518,-5.3518,-5.3551,-5.3618,-5.3618,-5.3817,-5.4047,-5.4207,-5.3896,-5.361,-5.3537,-5.346,-5.3217,-5.2908,-5.3298,-5.3297,-5.2774,-5.308,-5.3162,-5.2893,-5.3039,-5.3124,-5.3203,-5.3203,-5.3203,-5.3203,-5.3203,-5.3203,-5.5179,-5.5179,-5.5179,-5.5179,-5.5179,-5.5179,-5.5179,-5.5631,-5.6195,-5.6971,-5.8072,-5.9298,-6.0506,-6.0023,-5.9616,-6.0038,-5.8863,-5.7881,-5.7881,-5.7881,-5.7881,-5.7881,-5.7881,-5.7881,-5.7881,-5.7881,-5.7814,-5.7679,-5.6833,-5.6325,-5.6325,-5.5784,-5.5141,-5.4397,-5.4363,-5.4093,-5.3518,-5.3518,-5.3518,-5.3518,-5.3518,-5.3518,-5.3518,-5.3518,-5.3518,-5.3518,-5.3518,-5.3416,-5.3247,-5.3247,-5.2773,-5.2063,-5.2063,-5.1725,-5.1185,-5.1185,-5.1185,-5.1252,-5.186,-5.2164,-5.2401,-5.3044,-5.3382,-5.3518,-5.3518,-5.3518,-5.3518,-5.3518,-5.3518,-5.3518,-5.3518,-5.3518,-5.3518,-5.3518,-5.3518,-5.3518,-5.3518,-5.3518,-5.3518,-5.3518,-5.3518,-5.3518,-5.3518,-5.3518,-5.3518,-5.3518,-5.3518,-5.3518,-5.3518,-5.3348,-5.3347,-5.3611,-5.3132,-5.2684,-5.2566,-5.2261,-5.1869,-5.1359,-5.1844,-5.2022,-5.1626,-5.2042,-5.2408,-5.2672,-5.285,-5.3039,-5.3146,-5.3203,-5.3203,-5.3203,-5.3203,-5.3203,-5.5179,-5.5179,-5.5179,-5.5179,-5.5179,-5.5179,-5.5179,-5.5631,-5.6195,-5.6971,-5.8072,-5.9298,-6.0506,-6.0023,-5.9616,-6.0038,-5.8863,-5.7881,-5.7881,-5.7881,-5.7881,-5.7881,-5.7881,-5.7881,-5.7881,-5.7881,-5.7611,-5.6934,-5.5581,-5.4803,-5.4803,-5.4735,-5.4363,-5.3619,-5.3619,-5.3585,-5.3518,-5.3518,-5.3518,-5.3518,-5.3518,-5.3518,-5.3518,-5.3518,-5.3518,-5.3518,-5.3518,-5.3078,-5.2401,-5.2401,-5.1961,-5.1286,-5.1286,-5.1285,-5.1185,-5.1185,-5.1185,-5.1185,-5.1285,-5.1758,-5.23,-5.2401,-5.2909,-5.3518,-5.3518,-5.3518,-5.3518,-5.3518,-5.3518,-5.3518,-5.3518,-5.3518,-5.3518,-5.3518,-5.3518,-5.3518,-5.3518,-5.3518,-5.3518,-5.3518,-5.3518,-5.3518,-5.3518,-5.3518,-5.3518,-5.3518,-5.3518,-5.3518,-5.3518,-5.2875,-5.2401,-5.2434,-5.24,-5.1888,-5.0757,-5.0738,-5.0571,-5.0103,-5.0523,-5.0873,-5.1061,-5.1576,-5.197,-5.2232,-5.2649,-5.2872,-5.3039,-5.3124,-5.3203,-5.3203,-5.3203,-5.3203,-5.5179,-5.5179,-5.5179,-5.5179,-5.5179,-5.5179,-5.5179,-5.5631,-5.6195,-5.6971,-5.8072,-5.9298,-6.0506,-6.0023,0.0,0.0,0.0,-5.7881,-5.7881,-5.7881,-5.7881,-5.7881,-5.7881,-5.7881,-5.7881,-5.7476,-5.6731,-5.5547,-5.4938,-5.4397,-5.3957,-5.3923,-5.3788,-5.3518,-5.3518,-5.3518,-5.3518,-5.3518,-5.3518,-5.3518,-5.3518,-5.3518,-5.3518,-5.3518,-5.3518,-5.3484,-5.2976,-5.2604,-5.2266,-5.1826,-5.1217,-5.0541,-5.0541,-5.027,-4.9898,-4.9898,-4.9898,-4.9932,-5.0371,-5.071,-5.1116,-5.1995,-5.2536,-5.2875,-5.3348,-5.3518,-5.3518,-5.3518,-5.3518,-5.3518,-5.3518,-5.3518,-5.3518,-5.3518,-5.3518,-5.3518,-5.3518,-5.3518,-5.3518,-5.3518,-5.3518,-5.3518,-5.3518,-5.3518,-5.3518,-5.3518,-5.3518,-5.3348,-5.2841,-5.2503,-5.1961,-5.1048,-5.098,-5.0775,-5.0263,-4.9943,-4.9657,-4.95,-4.982,-5.0194,-5.0502,-5.0964,-5.1449,-5.1946,-5.2361,-5.2717,-5.298,-5.3124,-5.3203,-5.3203,-5.3203,-5.3203,-5.5179,-5.5179,-5.5179,-5.5179,-5.5179,-5.5179,-5.5179,-5.5681,-5.6293,-5.694,-5.818,-5.9379,-6.021,-5.9937,0.0,0.0,0.0,-5.7881,-5.7881,-5.7881,-5.7881,-5.7881,-5.7881,-5.7814,-5.7577,-5.6697,-5.5716,-5.4668,-5.4397,-5.4059,-5.3551,-5.3518,-5.3518,-5.3518,-5.3518,-5.3518,-5.3518,-5.3518,-5.3518,-5.3518,-5.3518,-5.3518,-5.3518,-5.3518,-5.3382,-5.3112,-5.2536,-5.2063,-5.1623,-5.1082,-5.0439,-4.9763,-4.9763,-4.9458,-4.9018,-4.9018,-4.9018,-4.9086,-4.9593,-4.9898,-5.0304,-5.1589,-5.2131,-5.2469,-5.3281,-5.3518,-5.3518,-5.3518,-5.3518,-5.3518,-5.3518,-5.3518,-5.3518,-5.3518,-5.3518,-5.3518,-5.3518,-5.3518,-5.3518,-5.3518,-5.3518,-5.3518,-5.3518,-5.3518,-5.3518,-5.3518,-5.3315,-5.2942,-5.2367,-5.1928,-5.1251,-5.0202,-4.9898,-4.9763,-4.9763,-4.9382,-4.9138,-4.9138,-4.9411,-4.9679,-4.9971,-5.0397,-5.091,-5.15,-5.197,-5.2408,-5.2747,-5.3039,-5.3124,-5.3124,-5.3203,-5.3203,-5.5179,-5.5179,-5.5179,-5.5179,-5.5179,-5.5179,-5.5179,-5.575,-5.6457,-5.6988,-5.8455,-5.961,-5.9637,-5.9725,0.0,0.0,0.0,0.0,-5.7881,-5.7881,-5.7881,-5.7881,-5.7881,-5.7611,-5.6867,-5.548,-5.46,-5.46,-5.3923,-5.3518,-5.3518,-5.3518,-5.3518,-5.3518,-5.3518,-5.3518,-5.3518,-5.3518,-5.3518,-5.3518,-5.3518,-5.3518,-5.3518,-5.3518,-5.3078,-5.23,-5.23,-5.1454,-5.0101,-5.0101,-4.9661,-4.9018,-4.9018,-4.9018,-4.9018,-4.9018,-4.9018,-4.9018,-4.9018,-4.9492,-5.0202,-5.098,-5.1725,-5.2469,-5.3281,-5.3518,-5.3518,-5.3518,-5.3518,-5.3518,-5.3518,-5.3518,-5.3518,-5.3518,-5.3518,-5.3518,-5.3518,-5.3518,-5.3518,-5.3518,-5.3518,-5.3518,-5.3518,-5.3518,-5.3518,-5.3518,-5.2807,-5.23,-5.23,-5.1014,-5.0101,-5.0101,-4.9458,-4.9018,-4.9018,-4.9018,-4.9018,-4.9018,-4.9138,-4.929,-4.95,-4.9942,-5.0397,-5.0803,-5.1475,-5.1946,-5.2208,-5.2725,-5.298,-5.3017,-5.3124,-5.3203,-5.5179,-5.5179,-5.5179,-5.5179,-5.5179,-5.5179,-5.5179,-5.5681,-5.6342,-5.7149,-5.8272,-5.9261,-5.9729,-5.9685,-5.9458,0.0,0.0,0.0,-5.7881,-5.7881,-5.7881,-5.7881,-5.7442,-5.6664,-5.5412,-5.4871,-5.4397,-5.389,-5.3619,-5.3518,-5.3518,-5.3518,-5.3518,-5.3518,-5.3518,-5.3518,-5.3518,-5.3518,-5.3518,-5.3518,-5.3518,-5.3518,-5.3484,-5.2942,-5.2536,-5.2232,-5.1217,-5.0507,-5.0067,-4.956,-4.9221,-4.9018,-4.9018,-4.9018,-4.9018,-4.9018,-4.9018,-4.9018,-4.9018,-4.9154,-4.956,-5.0811,-5.1386,-5.1792,-5.3112,-5.3518,-5.3518,-5.3518,-5.3518,-5.3518,-5.3518,-5.3518,-5.3518,-5.3518,-5.3518,-5.3518,-5.3518,-5.3518,-5.3518,-5.3518,-5.3518,-5.3518,-5.3518,-5.3518,-5.3315,-5.2773,-5.2469,-5.1928,-5.0913,-5.0371,-4.9898,-4.939,-4.9154,-4.9018,-4.9018,-4.9018,-4.9018,-4.9018,-4.9015,-4.9138,-4.929,-4.9649,-5.0057,-5.0509,-5.1123,-5.1576,-5.1946,-5.2384,-5.2739,-5.298,-5.3124,-5.3203,-5.5179,-5.5179,-5.5179,-5.5179,-5.5179,-5.5179,-5.5179,-5.5681,-5.6342,-5.7101,-5.8226,-5.9065,-5.9118,-5.9245,-5.9159,-5.8387,-5.8002,-5.7772,-5.7772,-5.7845,-5.778,-5.7509,-5.6833,-5.5919,-5.4702,-5.4329,-5.3991,-5.3551,-5.3518,-5.3518,-5.3518,-5.3518,-5.3518,-5.3518,-5.3518,-5.3518,-5.3518,-5.3518,-5.3518,-5.3518,-5.3518,-5.3348,-5.3044,-5.2536,-5.1995,-5.142,-5.0507,-4.9932,0.0,-4.9187,-4.9018,-4.9018,-4.9018,-4.9018,-4.9018,-4.9018,-4.9018,-4.9018,-4.9018,-4.9018,-4.9255,-5.0744,-5.1589,-5.2266,-5.3213,-5.3518,-5.3518,-5.3518,-5.3518,-5.3518,-5.3518,-5.3518,-5.3518,-5.3518,-5.3518,-5.3518,-5.3518,-5.3518,-5.3518,-5.3518,-5.3518,-5.3518,-5.3518,-5.3247,-5.2875,-5.2367,-5.1826,-5.115,-5.0202,-4.9864,-4.9492,-4.9052,-4.9018,-4.9018,-4.9018,-4.9018,-4.9018,-4.9018,-4.9018,-4.9049,-4.9107,-4.9381,-4.9679,-5.0057,-5.0612,-5.1096,-5.1424,-5.2066,-5.2627,-5.298,-5.3124,-5.3203,0.0,-5.5179,-5.5179,-5.5179,-5.5179,-5.5179,-5.5179,-5.575,0.0,-5.694,-5.8148,-5.8827,-5.7901,-5.8437,-5.8574,-5.7182,-5.7289,-5.7551,-5.7551,-5.7735,-5.7611,-5.6799,-5.6122,-5.5412,-5.46,-5.389,-5.3518,-5.3518,-5.3518,-5.3518,-5.3518,-5.3518,-5.3518,-5.3484,-5.345,-5.345,-5.3484,-5.345,-5.3484,-5.3484,-5.3484,-5.3044,-5.2267,-5.2233,-5.1454,-5.0101,-5.0033,-4.9627,-4.9018,-4.9018,-4.9018,-4.9018,-4.9018,-4.9018,-4.9018,-4.9018,-4.9018,-4.9018,-4.9018,-4.9018,-4.9255,-5.0744,-5.2266,-5.3518,-5.3518,-5.3518,-5.3518,-5.3518,-5.3518,-5.3518,-5.3518,-5.3518,-5.3518,-5.3518,-5.3518,-5.3518,-5.3518,-5.3518,-5.3518,-5.3518,-5.3518,-5.3484,-5.3416,-5.2807,-5.2266,-5.2164,-5.098,-5.0067,-5.0033,-4.9424,-4.9018,-4.9018,-4.9018,-4.9018,-4.9018,-4.9018,-4.9018,-4.9018,-4.9018,-4.9018,-4.9018,-4.9138,-4.929,-4.9471,-5.0086,-5.0537,-5.0803,-5.1848,-5.2545,-5.2937,-5.3103,-5.3203,-5.5179,0.0,-5.5179,-5.5179,-5.5179,-5.5179,0.0,-5.5481,-5.5948,-5.6651,-5.6981,-5.7105,-5.7259,-5.7321,-5.719,-5.6546,-5.6839,-5.7139,-5.7139,-5.7439,-5.7263,-5.6087,-5.5818,-5.5209,-5.389,-5.3619,-5.3518,-5.3518,-5.3518,-5.3518,-5.3518,-5.3518,-5.3416,-5.328,-5.311,-5.311,-5.328,-5.311,-5.3041,-5.3041,-5.3041,-5.274,-5.2135,-5.1562,-5.0851,-5.0067,-4.9492,-4.9154,-4.9018,-4.9018,-4.9018,-4.9018,-4.9018,-4.9018,-4.9018,-4.9018,-4.9018,-4.9018,-4.9018,-4.9018,-4.9255,-5.0744,-5.2266,-5.3518,-5.3518,-5.3518,-5.3518,-5.3518,-5.3518,-5.3518,-5.3518,-5.3518,-5.3518,-5.3518,-5.3518,-5.3518,-5.3518,-5.3518,-5.3518,-5.3518,-5.3518,-5.3315,-5.2706,-5.2435,-5.1928,-5.0777,-5.0304,-4.9898,-4.9323,-4.912,-4.9018,-4.9018,-4.9018,-4.9018,-4.9018,-4.9018,-4.9018,-4.9018,-4.9018,-4.9018,-4.9018,-4.9138,-4.9229,-4.926,-4.9913,-5.0425,-5.0803,-5.1576,-5.209,-5.2408,-5.285,-5.306,-5.5179,-5.5179,-5.5179,-5.5179,-5.5179,-5.5179,-5.5179,-5.5381,-5.5731,-5.6213,-5.6193,-5.6093,-5.6131,-5.6178,-5.6021,-5.5515,-5.606,-5.668,-5.6949,-5.6984,-5.6606,-5.5675,-5.5272,-5.4597,-5.345,-5.328,-5.328,-5.3348,-5.3348,-5.3382,-5.3518,-5.3518,-5.3416,-5.3213,-5.2834,-5.2696,-5.2904,-5.2729,-5.2694,-5.2731,-5.243,-5.2033,-5.1563,-5.0823,-5.0178,-4.956,-4.9187,-4.9018,-4.9018,-4.9018,-4.9018,-4.9018,-4.9018,-4.9018,-4.9018,-4.9018,-4.9018,-4.9018,-4.9018,-4.9458,-5.0202,-5.1352,-5.2536,-5.3518,-5.3518,-5.3518,-5.3518,-5.3518,-5.3518,-5.3518,-5.3518,-5.3518,-5.3518,-5.3518,-5.3518,-5.3518,-5.3518,-5.3518,-5.3518,-5.3518,-5.3213,-5.2807,-5.2367,-5.1725,-5.1014,-5.0202,-4.9796,-4.9458,-4.9052,-4.9018,-4.9018,-4.9018,-4.9018,-4.9018,-4.9018,-4.9018,-4.9018,-4.9018,-4.9018,-4.9018,-4.9018,-4.9046,-4.9138,-4.9199,-4.9708,-5.02,-5.062,-5.1218,-5.1701,-5.2018,-5.2499,-5.2806,-5.5179,-5.5179,-5.5179,-5.5179,-5.5179,-5.5179,-5.5179,-5.5381,-5.5551,-5.5698,-5.5542,-5.5251,-5.4823,-5.488,-5.4833,-5.4306,-5.5131,-5.606,-5.6757,-5.6354,-5.584,-5.5322,-5.4619,-5.3847,-5.3143,-5.2903,-5.2868,-5.3041,-5.3076,-5.3179,-5.3348,-5.3382,-5.3314,-5.3076,-5.2485,-5.2236,-5.231,-5.22,-5.2236,-5.2414,-5.1684,-5.1159,-5.0859,-5.012,-4.9508,-4.8987,-4.9018,-4.9018,-4.9018,-4.9018,-4.9018,-4.9018,-4.9018,-4.9018,-4.9018,-4.9018,-4.9018,-4.9018,-4.912,-5.0067,-5.132,-5.2063,-5.2841,-5.3518,-5.3518,-5.3518,-5.3518,-5.3518,-5.3518,-5.3518,-5.3518,-5.3518,-5.3518,-5.3518,-5.3518,-5.3518,-5.3518,-5.3518,-5.345,-5.3348,-5.2773,-5.2232,-5.1995,-5.0913,-5.0067,-4.9932,-4.939,-4.9018,-4.9018,-4.9018,-4.9018,-4.9018,-4.9018,-4.9018,-4.9018,-4.9018,-4.9018,-4.9018,-4.9018,-4.9018,-4.9018,-4.9018,-4.9046,-4.9168,-4.9471,-4.9825,-5.0257,-5.0803,-5.127,-5.1676,-5.2114,-5.2477,-5.5179,-5.5179,-5.5179,-5.5179,-5.5179,-5.5179,-5.5179,-5.5229,-5.518,-5.4858,-5.4292,-5.3867,-5.359,-5.3433,-5.3383,-5.3509,-5.4338,-5.5181,-5.606,-5.5587,-5.5018,-5.4667,-5.4011,-5.3247,-5.2516,-5.2414,-5.2414,-5.2449,-5.259,-5.2696,-5.2731,-5.2903,-5.2834,-5.2449,-5.1842,-5.1401,-5.1102,-5.1215,-5.1397,-5.1651,-5.0899,-5.0465,-5.0223,-4.966,-4.9187,-4.8832,-4.8956,-4.9018,-4.9018,-4.9018,-4.9018,-4.9018,-4.9018,-4.9018,-4.9018,-4.9018,-4.9018,-4.9086,-4.9695,-5.0507,-5.132,-5.2063,-5.2841,-5.3518,-5.3518,-5.3518,-5.3518,-5.3518,-5.3518,-5.3518,-5.3518,-5.3518,-5.3518,-5.3518,-5.3518,-5.3518,-5.3518,-5.3518,-5.3315,-5.2604,-5.2367,-5.1894,-5.0642,-5.0236,-4.9864,-4.9255,-4.9086,-4.9018,-4.9018,-4.9018,-4.9018,-4.9018,-4.9018,-4.9018,-4.9018,-4.9018,-4.9018,-4.9018,-4.9018,-4.9018,-4.9018,-4.9018,-4.9018,-4.9015,-4.9199,-4.9381,-4.9619,-5.0228,-5.0667,-5.0991,-5.1701,-5.2221,-5.5179,-5.5179,-5.5179,-5.5179,-5.5179,-5.5179,-5.5179,-5.491,-5.463,-5.44,-5.3579,-5.2815,-5.2722,-5.2673,-5.2846,-5.3465,-5.3899,-5.438,-5.5049,-5.4398,-5.3864,-5.3776,-5.2838,-5.202,-5.1655,-5.1438,-5.1401,-5.1655,-5.1733,-5.1915,-5.2238,-5.2378,-5.2272,-5.1984,-5.1401,-5.0876,-5.0493,-5.0221,-5.0217,-5.0435,-4.9655,-4.9343,-4.9355,-4.8796,-4.8624,-4.8801,-4.8956,-4.9018,-4.9018,-4.9018,-4.9018,-4.9018,-4.9018,-4.9018,-4.9018,-4.9018,-4.9255,-4.9695,-5.0439,-5.1183,-5.1928,-5.2706,-5.3213,-5.3518,-5.3518,-5.3518,-5.3518,-5.3518,-5.3518,-5.3518,-5.3518,-5.3518,-5.3518,-5.3518,-5.3518,-5.3518,-5.3518,-5.3179,-5.2739,-5.2367,-5.1657,-5.0879,-5.0202,-4.9763,-4.939,-4.9052,-4.9018,-4.9018,-4.9018,-4.9018,-4.9018,-4.9018,-4.9018,-4.9018,-4.9018,-4.9018,-4.9018,-4.9018,-4.9018,-4.9018,-4.9018,-4.9018,-4.9018,-4.9018,-4.9138,-4.926,-4.932,-4.9796,-5.0171,-5.0509,-5.1096,-5.1601,-5.5179,-5.5179,-5.5179,-5.5179,-5.5179,-5.5149,-5.4999,-5.4581,-5.4132,-5.3803,-5.2905,-5.2157,-5.2007,-5.2074,-5.2397,-5.3246,-5.3377,-5.349,-5.3776,-5.3035,-5.2501,-5.2508,-5.1424,-5.0647,-5.0647,-5.0377,-5.0299,-5.0647,-5.0761,-5.1027,-5.148,-5.1586,-5.1549,-5.1364,-5.0761,-5.026,-4.9868,-4.93,-4.9077,-4.9279,-4.8616,-4.8389,-4.852,-4.8034,-4.8163,-4.8675,-4.8925,-4.9018,-4.9018,-4.9018,-4.9018,-4.9018,-4.9018,-4.9018,-4.9018,-4.9018,-4.9458,-5.0202,-5.0947,-5.1691,-5.2435,-5.3247,-5.3518,-5.3518,-5.3518,-5.3518,-5.3518,-5.3518,-5.3518,-5.3518,-5.3518,-5.3518,-5.3518,-5.3518,-5.3518,-5.345,-5.3281,-5.2739,-5.2198,-5.186,-5.0879,-5.0033,-4.9864,-4.9357,-4.9018,-4.9018,-4.9018,-4.9018,-4.9018,-4.9018,-4.9018,-4.9018,-4.9018,-4.9018,-4.9018,-4.9018,-4.9018,-4.9018,-4.9018,-4.9018,-4.9018,-4.9018,-4.9018,-4.9018,-4.9077,-4.9138,-4.9138,-4.9441,-4.9767,-5.0086,-5.0537,-5.107,-5.5179,-5.5179,-5.5179,-5.5179,-5.5179,-5.5029,-5.4431,-5.4251,-5.3862,-5.2606,-5.2276,-5.2007,-5.1409,-5.1493,-5.1803,-5.2306,-5.2397,-5.2332,-5.2213,-5.1585,-5.0985,-5.0548,-4.9828,-4.9318,-4.9318,-4.9278,-4.9309,-4.9318,-4.9749,-4.9986,-5.0065,-5.0416,-5.0525,-5.0299,-4.967,-4.9228,-4.9015,-4.8427,-4.8296,-4.8694,-4.8085,-4.784,-4.7787,-4.7731,-4.7902,-4.826,-4.8767,-4.9018,-4.9018,-4.9018,-4.9018,-4.9018,-4.9018,-4.9018,-4.9018,-4.9018,-4.9458,-5.0202,-5.0947,-5.1691,-5.2435,-5.3247,-5.3518,-5.3518,-5.3518,-5.3518,-5.3518,-5.3518,-5.3518,-5.3518,-5.3518,-5.3518,-5.3518,-5.3518,-5.3518,-5.3315,-5.2536,-5.2334,-5.1894,-5.0507,-5.0168,-4.9864,-4.9187,-4.9052,-4.9018,-4.9018,-4.9018,-4.9018,-4.9018,-4.9018,-4.9018,-4.9018,-4.9018,-4.9018,-4.9018,-4.9018,-4.9018,-4.9018,-4.9018,-4.9018,-4.9018,-4.9018,-4.9018,-4.9018,-4.9018,-4.8984,-4.8984,-4.9168,-4.9411,-4.9737,-5.02,-5.0694,-5.5179,-5.5179,-5.5089,-5.467,-5.4581,-5.4521,-5.4281,-5.3563,-5.2815,-5.2306,-5.1887,-5.1546,-5.1446,-5.1526,-5.1711,-5.2063,-5.2109,-5.1911,-5.1464,-5.0892,-5.0347,-4.9724,-4.9046,-4.8646,-4.8646,-4.8521,-4.8521,-4.8646,-4.8811,-4.8984,-4.9269,-4.943,-4.947,-4.939,-4.9025,-4.8728,-4.8521,-4.8175,-4.7668,-4.6973,-4.7161,-4.702,-4.6649,-4.7264,-4.777,-4.8227,-4.8767,-4.9018,-4.9018,-4.9018,-4.9018,-4.9018,-4.9018,-4.9018,-4.9052,-4.9492,-5.0135,-5.0913,-5.1623,-5.2401,-5.3112,-5.3416,-5.3518,-5.3518,-5.3518,-5.3518,-5.3518,-5.3518,-5.3518,-5.3518,-5.3518,-5.3518,-5.3518,-5.3518,-5.3112,-5.2672,-5.2367,-5.1589,-5.0744,-5.0202,-4.9729,-4.9323,-4.9052,-4.9018,-4.9018,-4.9018,-4.9018,-4.9018,-4.9018,-4.9018,-4.9018,-4.9018,-4.9018,-4.9018,-4.9018,-4.9018,-4.9018,-4.9018,-4.9018,-4.9018,-4.9018,-4.9018,-4.9018,-4.9018,-4.9018,-4.9018,-4.9018,-4.9046,-4.9168,-4.9411,-4.9708,-5.0171,-5.5179,-5.5029,-5.476,-5.4311,-5.3892,-5.3563,-5.3563,-5.2875,-5.2127,-5.1947,-5.1528,-5.1276,-5.1433,-5.1479,-5.1556,-5.1695,-5.159,-5.1197,-5.0532,-4.997,-4.9435,-4.8766,-4.828,-4.8007,-4.8007,-4.7837,-4.7837,-4.7964,-4.8049,-4.8187,-4.8449,-4.8573,-4.8615,-4.8615,-4.8396,-4.8218,-4.8091,-4.788,-4.7087,-4.5798,-4.6364,-4.6368,-4.5841,-4.6793,-4.7538,-4.8163,-4.8673,-4.8956,-4.9018,-4.9018,-4.9018,-4.9018,-4.9018,-4.9154,-4.939,-4.9898,-5.071,-5.1623,-5.2131,-5.2841,-5.3518,-5.3518,-5.3518,-5.3518,-5.3518,-5.3518,-5.3518,-5.3518,-5.3518,-5.3518,-5.3518,-5.3518,-5.345,-5.3179,-5.2706,-5.2164,-5.1725,-5.0811,-5.0033,-4.9796,-4.9357,-4.9018,-4.9018,-4.9018,-4.9018,-4.9018,-4.9018,-4.9018,-4.9018,-4.9018,-4.9018,-4.9018,-4.9221,-4.9357,-4.9357,-4.956,-4.9695,-4.9695,-4.9695,-4.9492,-4.9018,-4.9018,-4.9018,-4.9018,-4.9018,-4.9018,-4.9018,-4.9018,-4.9046,-4.9199,-4.935,-4.9679,-5.5179,-5.47,-5.4221,-5.4192,-5.3204,-5.2187,-5.2187,-5.2187,-5.2007,-5.1349,-5.1229,-5.1229,-5.1229,-5.1229,-5.1229,-5.1229,-5.0614,-5.0002,-4.9389,-4.8686,-4.8027,-4.7369,-4.7309,-4.7309,-4.7309,-4.7309,-4.7309,-4.7309,-4.7452,-4.7581,-4.7581,-4.7837,-4.8007,-4.8007,-4.7752,-4.7581,-4.7581,-4.7396,-4.6621,-4.5304,-4.592,-4.5904,-4.5442,-4.6375,-4.7236,-4.8033,-4.8549,-4.8863,-4.9018,-4.9018,-4.9018,-4.9018,-4.9018,-4.9458,-5.0101,-5.0101,-5.1048,-5.23,-5.23,-5.2841,-5.3518,-5.3518,-5.3518,-5.3518,-5.3518,-5.3518,-5.3518,-5.3518,-5.3518,-5.3518,-5.3484,-5.3484,-5.3281,-5.2503,-5.23,-5.1894,-5.0405,-5.0067,-4.9864,-4.9154,-4.9018,-4.9018,-4.9018,-4.9018,-4.9018,-4.9018,-4.9018,-4.9018,-4.9018,-4.9018,-4.9018,-4.9018,-4.9661,-5.0101,-5.0101,-5.0777,-5.1185,-5.1185,-5.1185,-5.0541,-4.9086,-4.9018,-4.9018,-4.9018,-4.9018,-4.9018,-4.9018,-4.9018,-4.908,-4.9199,-4.9199,-4.9381,-5.5179,-5.47,-5.4102,-5.3593,-5.2845,-5.2067,-5.1618,-5.1498,-5.1439,-5.1259,-5.1229,-5.1229,-5.1229,-5.1229,-5.1229,-5.1229,-5.0614,-5.0002,-4.9389,-4.8686,-4.8027,-4.7369,-4.7309,-4.7309,-4.7309,-4.7309,-4.7309,-4.7309,-4.7352,-4.7396,-4.7396,-4.7482,-4.7525,-4.7525,-4.7439,-4.7396,-4.7396,-4.7352,-4.6621,-4.5304,-4.5604,-4.548,-4.5036,-4.6127,-4.6997,-4.7638,-4.8292,-4.8707,-4.8863,-4.8956,-4.9018,-4.9052,-4.956,-4.9898,-5.0202,-5.1251,-5.1928,-5.2367,-5.2942,-5.3315,-5.3518,-5.3518,-5.3518,-5.3518,-5.3518,-5.3518,-5.3518,-5.3518,-5.3518,-5.3382,-5.2807,-5.2672,-5.2604,-5.2367,-5.1522,-5.0608,-5.0168,-4.9695,-4.9255,-4.9052,-4.9018,-4.9018,-4.9018,-4.9018,-4.9018,-4.9018,-4.9018,-4.9018,-4.9018,-4.9018,-4.9187,-4.9729,-4.9965,-5.0304,-5.0845,-5.1082,-5.1185,-5.1185,-5.1185,-5.1014,-5.0574,-5.0574,-5.0574,-5.0574,-5.0574,-5.0304,-4.9763,-4.9763,-4.9523,-4.9046,-4.9046,-4.9168,-5.488,-5.4311,-5.3623,-5.2965,-5.2306,-5.1708,-5.1319,-5.1229,-5.1229,-5.1229,-5.1229,-5.1229,-5.1229,-5.1229,-5.1139,-5.0823,-5.0272,-4.9613,-4.9,-4.8327,-4.7758,-4.7369,-4.7309,-4.7309,-4.7309,-4.7309,-4.7309,-4.7309,-4.7309,-4.7309,-4.7309,-4.7309,-4.7309,-4.7309,-4.7309,-4.7309,-4.7309,-4.7309,-4.677,-4.5693,-4.5714,-4.5504,-4.5139,-4.5896,-4.662,-4.7337,-4.8227,-4.8738,-4.8894,-4.8987,-4.9187,-4.9492,-4.9932,-5.0439,-5.1082,-5.1961,-5.2503,-5.2841,-5.3348,-5.3518,-5.3518,-5.3518,-5.3518,-5.3518,-5.3518,-5.3518,-5.3518,-5.3518,-5.3281,-5.2909,-5.2435,-5.186,-5.142,-5.142,-5.0744,-4.9999,-4.9729,-4.9323,-4.9018,-4.9018,-4.9018,-4.9018,-4.9018,-4.9018,-4.9018,-4.9018,-4.9018,-4.9018,-4.9018,-4.9255,-4.9593,-5.0033,-5.0608,-5.115,-5.1623,-5.1928,-5.2131,-5.2131,-5.2131,-5.2131,-5.2131,-5.1555,-5.1185,-5.1185,-5.1185,-5.098,-5.0541,-5.0541,-5.0168,-4.9424,-4.9424,-4.932,-5.4371,-5.3653,-5.2935,-5.2336,-5.1708,-5.1229,-5.1229,-5.1229,-5.1229,-5.1229,-5.1229,-5.1229,-5.1229,-5.1169,-5.0883,-5.0285,-4.9643,-4.903,-4.8386,-4.7728,-4.7309,-4.7309,-4.7309,-4.7309,-4.7309,-4.7309,-4.7309,-4.7309,-4.7309,-4.7309,-4.7309,-4.7309,-4.7309,-4.7309,-4.7309,-4.7309,-4.7309,-4.7309,-4.698,-4.6322,-4.6067,-4.5849,-4.5688,-4.5708,-4.6234,-4.7237,-4.8324,-4.8863,-4.9018,-4.9086,-4.9492,-5.0101,-5.0236,-5.1116,-5.23,-5.2367,-5.2875,-5.3518,-5.3518,-5.3518,-5.3518,-5.3518,-5.3518,-5.3518,-5.3518,-5.3518,-5.3484,-5.3416,-5.2875,-5.2266,-5.2131,-5.1082,-5.0067,-4.9999,-4.9999,-4.983,-4.9154,-4.9018,-4.9018,-4.9018,-4.9018,-4.9018,-4.9018,-4.9018,-4.9018,-4.9018,-4.9018,-4.9018,-4.9018,-4.9627,-5.0135,-5.0168,-5.1454,-5.2334,-5.2401,-5.3078,-5.3518,-5.3518,-5.3518,-5.3518,-5.3518,-5.2164,-5.1388,-5.1388,-5.1388,-5.1354,-5.1319,-5.1319,-5.0913,-5.0202,-5.0202,-4.983,-5.4251,-5.3324,-5.2366,-5.2247,-5.1708,-5.1229,-5.1229,-5.1229,-5.1229,-5.1229,-5.1229,-5.1229,-5.1229,-5.0764,-5.0345,-5.0226,-4.9254,-4.8446,-4.8297,-4.7728,-4.7309,-4.7309,-4.7309,-4.7309,-4.7309,-4.7309,-4.7309,-4.7309,-4.7309,-4.7309,-4.7309,-4.7309,-4.7309,-4.7309,-4.7309,-4.7309,-4.7309,-4.7309,-4.698,-4.6322,-4.6395,-4.6427,-4.6366,-4.5959,-4.6512,-4.7836,-4.8324,-4.8704,-4.9052,-4.9627,-4.9965,-5.0202,-5.1352,-5.2029,-5.2367,-5.301,-5.3348,-5.3518,-5.3518,-5.3518,-5.3518,-5.3518,-5.3518,-5.3518,-5.3518,-5.3518,-5.3382,-5.2739,-5.2435,-5.2029,-5.0879,-5.0338,-4.9932,-4.9357,-4.9255,-4.9187,-4.9052,-4.9018,-4.9018,-4.9018,-4.9018,-4.9018,-4.9018,-4.9018,-4.9018,-4.9018,-4.9018,-4.9018,-4.9018,-4.9627,-5.0304,-5.0913,-5.1758,-5.257,-5.3179,-5.3416,-5.3518,-5.3518,-5.3518,-5.3518,-5.3518,-5.3179,-5.301,-5.301,-5.301,-5.2706,-5.2063,-5.2063,-5.1691,-5.098,-5.098,-5.0879,-5.3414,-5.2725,-5.2127,-5.1798,-5.1468,-5.1229,-5.1229,-5.1229,-5.1229,-5.1229,-5.1229,-5.1229,-5.1229,-5.0644,-5.0106,-4.9823,-4.8925,-4.8177,-4.7848,-4.7519,-4.7309,-4.7309,-4.7309,-4.7309,-4.7309,-4.7309,-4.7309,-4.7309,-4.7309,-4.7309,-4.7309,-4.7309,-4.7309,-4.7309,-4.7309,-4.7309,-4.7309,-4.7309,-4.713,-4.68,-4.6906,-4.7179,-4.7599,-4.7148,-4.7552,-4.8662,-4.8987,-4.9508,-5.0101,-5.0473,-5.0845,-5.1217,-5.1995,-5.2536,-5.2942,-5.3348,-5.3518,-5.3518,-5.3518,-5.3518,-5.3518,-5.3518,-5.3518,-5.3518,-5.3518,-5.3247,-5.2841,-5.2435,-5.1792,-5.1048,-5.0304,-4.983,-4.9492,-4.9086,-4.9018,-4.9018,-4.9018,-4.9018,-4.9018,-4.9018,-4.9018,-4.9018,-4.9018,-4.9018,-4.9018,-4.9018,-4.9018,-4.912,-4.9492,-5.0168,-5.0913,-5.1657,-5.2435,-5.3044,-5.345,-5.3518,-5.3518,-5.3518,-5.3518,-5.3518,-5.3518,-5.3518,-5.3518,-5.3518,-5.3518,-5.3281,-5.2875,-5.2875,-5.2469,-5.1725,-5.1725,-5.1555,-5.2516,-5.2127,-5.1887,-5.1349,-5.1229,-5.1229,-5.1229,-5.1229,-5.1229,-5.1229,-5.1229,-5.1169,-5.1079,-5.0511,-4.9853,-4.9239,-4.8536,-4.7938,-4.7369,-4.7309,-4.7309,-4.7309,-4.7309,-4.7309,-4.7309,-4.7309,-4.7309,-4.7309,-4.7309,-4.7309,-4.7309,-4.7309,-4.7309,-4.7309,-4.7309,-4.7309,-4.7309,-4.7309,-4.7309,-4.7309,-4.7513,-4.8051,-4.8836,-4.8757,-4.9021,-4.9559,-4.9953,-5.0516,-5.1185,-5.1352,-5.1758,-5.23,-5.2469,-5.2909,-5.3518,-5.3518,-5.3518,-5.3518,-5.3518,-5.3518,-5.3518,-5.3518,-5.3518,-5.3518,-5.3518,-5.2942,-5.2266,-5.2164,-5.115,-5.0067,-4.9932,-4.9458,-4.9018,-4.9018,-4.9018,-4.9018,-4.9018,-4.9018,-4.9018,-4.9018,-4.9018,-4.9018,-4.9018,-4.9018,-4.9018,-4.9018,-4.9018,-4.9255,-4.9999,-5.0744,-5.1488,-5.2232,-5.301,-5.3518,-5.3518,-5.3518,-5.3518,-5.3518,-5.3518,-5.3518,-5.3518,-5.3518,-5.3518,-5.3518,-5.3518,-5.3518,-5.3518,-5.3518,-5.3179,-5.2503,-5.2503,-5.2198,-5.2247,-5.1798,-5.1319,-5.1229,-5.1229,-5.1229,-5.1229,-5.1229,-5.1229,-5.1229,-5.1229,-5.1003,-5.0435,-4.9823,-4.9164,-4.8536,-4.7878,-4.7399,-4.7309,-4.7309,-4.7309,-4.7309,-4.7309,-4.7309,-4.7309,-4.7309,-4.7309,-4.7309,-4.7309,-4.7309,-4.7309,-4.7309,-4.7309,-4.7309,-4.7309,-4.7309,-4.7309,-4.7309,-4.7309,-4.7309,-4.8398,-4.9087,-4.9347,-5.0314,-5.0688,-5.0526,-5.0757,-5.0988,-5.1219,-5.1894,-5.2198,-5.2367,-5.3078,-5.3416,-5.3518,-5.3518,-5.3518,-5.3518,-5.3518,-5.3518,-5.3518,-5.3518,-5.3518,-5.3518,-5.3518,-5.2942,-5.2164,-5.1555,-5.0744,-4.9932,-4.9323,-4.9086,-4.9018,-4.9018,-4.9018,-4.9018,-4.9018,-4.9018,-4.9018,-4.9018,-4.9018,-4.9018,-4.9018,-4.9018,-4.9018,-4.9018,-4.9018,-4.9255,-4.9999,-5.0744,-5.1488,-5.2232,-5.301,-5.3518,-5.3518,-5.3518,-5.3518,-5.3518,-5.3518,-5.3518,-5.3518,-5.3518,-5.3518,-5.3518,-5.3518,-5.3518,-5.3518,-5.3518,-5.345,-5.3348,-5.3348,-5.3281,-5.1738,-5.1439,-5.1229,-5.1229,-5.1229,-5.1229,-5.1229,-5.1229,-5.1229,-5.1229,-5.1229,-5.102,-5.0315,-4.9703,-4.909,-4.8386,-4.7728,-4.7309,-4.7309,-4.7309,-4.7309,-4.7309,-4.7309,-4.7309,-4.7309,-4.7309,-4.7309,-4.7309,-4.7309,-4.7309,-4.7309,-4.7309,-4.7309,-4.7309,-4.7309,-4.7309,-4.7309,-4.7309,-4.7495,-4.788,-4.8656,-4.9481,-5.0387,-5.1237,-5.1551,-5.133,-5.1596,-5.2031,-5.2536,-5.2841,-5.2976,-5.301,-5.3382,-5.3518,-5.3518,-5.3518,-5.3518,-5.3518,-5.3518,-5.3518,-5.3518,-5.3518,-5.3518,-5.3416,-5.2976,-5.23,-5.1522,-5.0777,-5.0067,-4.939,-4.9086,-4.9018,-4.9018,-4.9018,-4.9018,-4.9018,-4.9018,-4.9018,-4.9018,-4.9018,-4.9018,-4.9018,-4.9018,-4.9018,-4.9018,-4.9018,-4.9357,-4.9864,-5.0642,-5.1352,-5.2131,-5.2909,-5.3281,-5.3518,-5.3518,-5.3518,-5.3518,-5.3518,-5.3518,-5.3518,-5.3518,-5.3518,-5.3518,-5.3518,-5.3518,-5.3518,-5.3518,-5.3518,-5.3518,-5.3518,-5.3518,-5.3518,-5.1349,-5.1229,-5.1229,-5.1229,-5.1229,-5.1229,-5.1229,-5.1229,-5.1229,-5.1229,-5.1079,-5.078,-5.0122,-4.9583,-4.903,-4.8177,-4.7638,-4.7309,-4.7309,-4.7309,-4.7309,-4.7309,-4.7309,-4.7309,-4.7309,-4.7309,-4.7309,-4.7309,-4.7309,-4.7309,-4.7309,-4.7309,-4.7309,-4.7309,-4.7309,-4.7309,-4.7309,-4.7309,-4.7581,-4.826,-4.8656,-4.9599,-5.0951,-5.1696,-5.2045,-5.21,-5.2438,-5.2942,-5.3518,-5.3518,-5.3518,-5.3518,-5.3518,-5.3518,-5.3518,-5.3518,-5.3518,-5.3518,-5.3518,-5.3518,-5.3518,-5.3518,-5.3382,-5.3078,-5.2469,-5.1657,-5.0811,-5.0236,-4.956,-4.9018,-4.9018,-4.9018,-4.9018,-4.9018,-4.9018,-4.9018,-4.9018,-4.9018,-4.9018,-4.9018,-4.9018,-4.9018,-4.9018,-4.9018,-4.9018,-4.9018,-4.9627,-5.0371,-5.1116,-5.186,-5.2604,-5.3416,-5.3518,-5.3518,-5.3518,-5.3518,-5.3518,-5.3518,-5.3518,-5.3518,-5.3518,-5.3518,-5.3518,-5.3518,-5.3518,-5.3518,-5.3518,-5.3518,-5.3518,-5.3518,-5.3518,-5.3518,-5.1229,-5.1229,-5.1229,-5.1229,-5.1229,-5.1229,-5.1229,-5.1229,-5.1229,-5.1229,-5.0674,-5.0092,-4.9434,-4.9329,-4.888,-4.7549,-4.7339,-4.7309,-4.7309,-4.7309,-4.7309,-4.7309,-4.7309,-4.7309,-4.7309,-4.7309,-4.7309,-4.7309,-4.7309,-4.7309,-4.7309,-4.7309,-4.7309,-4.7309,-4.7309,-4.7309,-4.7309,-4.7309,-4.7568,-4.8007,-4.8615,-4.947,-5.0563,-5.1549,-5.231,-5.2836,-5.3247,-5.345,-5.3518,-5.3518,-5.3518,-5.3518,-5.3518,-5.3518,-5.3518,-5.3518,-5.3518,-5.3518,-5.3518,-5.3518,-5.3518,-5.3518,-5.2976,-5.2367,-5.23,-5.1285,-5.0135,-5.0101,-4.956,-4.9018,-4.9018,-4.9018,-4.9018,-4.9018,-4.9018,-4.9018,-4.9018,-4.9018,-4.9018,-4.9018,-4.9018,-4.9018,-4.9018,-4.9018,-4.9018,-4.9018,-4.9627,-5.0371,-5.1116,-5.186,-5.2604,-5.3416,-5.3518,-5.3518,-5.3518,-5.3518,-5.3518,-5.3518,-5.3518,-5.3518,-5.3518,-5.3518,-5.3518,-5.3518,-5.3518,-5.3518,-5.3518,-5.3518,-5.3518,-5.3518,-5.3518,-5.3518,-5.1229,-5.1229,-5.1229,-5.1229,-5.1229,-5.1229,-5.1229,-5.1229,-5.1229,-5.1229,-5.0644,-4.9986,-4.9419,-4.897,-4.8356,-4.7459,-4.7309,-4.7309,-4.7309,-4.7309,-4.7309,-4.7309,-4.7309,-4.7309,-4.7309,-4.7309,-4.7309,-4.7309,-4.7309,-4.7309,-4.7309,-4.7309,-4.7309,-4.7309,-4.7309,-4.7309,-4.7309,-4.7309,-4.7568,-4.8007,-4.8615,-4.947,-5.0525,-5.1549,-5.2343,-5.2903,-5.3314,-5.3518,-5.3518,-5.3518,-5.3518,-5.3518,-5.3518,-5.3518,-5.3518,-5.3518,-5.3518,-5.3518,-5.3518,-5.3518,-5.3518,-5.3518,-5.2976,-5.2198,-5.1758,-5.0879,-4.9999,-4.9526,-4.9187,-4.9018,-4.9018,-4.9018,-4.9018,-4.9018,-4.9018,-4.9018,-4.9018,-4.9018,-4.9018,-4.9018,-4.9018,-4.9018,-4.9018,-4.9018,-4.9018,-4.9018,-5.0033,-5.0913,-5.1183,-5.23,-5.3179,-5.3484,-5.3518,-5.3518,-5.3518,-5.3518,-5.3518,-5.3518,-5.3518,-5.3518,-5.3518,-5.3518,-5.3518,-5.3518,-5.3518,-5.3518,-5.3518,-5.3518,-5.3518,-5.3518,-5.3518,-5.3518,-5.1229,-5.1229,-5.1229,-5.1229,-5.1229,-5.1229,-5.1229,-5.1229,-5.1229,-5.1229,-5.0511,-4.9793,-4.9389,-4.8536,-4.7818,-4.7369,-4.7309,-4.7309,-4.7309,-4.7309,-4.7309,-4.7309,-4.7309,-4.7309,-4.7309,-4.7309,-4.7309,-4.7309,-4.7309,-4.7309,-4.7309,-4.7309,-4.7309,-4.7309,-4.7309,-4.7309,-4.7309,-4.7309,-4.7538,-4.8091,-4.8656,-4.955,-5.0755,-5.1586,-5.2378,-5.3007,-5.3348,-5.3518,-5.3518,-5.3518,-5.3518,-5.3518,-5.3518,-5.3518,-5.3518,-5.3518,-5.3518,-5.3518,-5.3518,-5.3518,-5.345,-5.3179,-5.257,-5.1792,-5.1048,-5.0304,-4.9627,-4.9154,-4.9018,-4.9018,-4.9018,-4.9018,-4.9018,-4.9018,-4.9018,-4.9018,-4.9018,-4.9018,-4.9018,-4.9018,-4.9018,-4.9018,-4.9018,-4.9018,-4.9086,-4.9323,-5.0405,-5.1286,-5.1555,-5.2706,-5.3518,-5.3518,-5.3518,-5.3518,-5.3518,-5.3518,-5.3518,-5.3518,-5.3518,-5.3518,-5.3518,-5.3518,-5.3518,-5.3518,-5.3518,-5.3518,-5.3518,-5.3518,-5.3518,-5.3518,-5.3518,-5.3518,0.0,0.0,0.0,-5.1229,-5.1229,-5.1229,-5.1229,-5.1229,-5.1199,-5.1199,-5.0152,-4.9299,-4.9269,-4.8177,-4.7309,-4.7309,-4.7309,-4.7309,-4.7309,-4.7309,-4.7309,-4.7309,-4.7309,-4.7309,-4.7309,-4.7309,-4.7309,-4.7309,-4.7309,-4.7309,-4.7309,-4.7309,-4.7309,-4.7309,-4.7309,-4.7309,-4.7309,-4.7309,-4.7624,-4.8271,-4.8697,-4.9678,-5.1102,-5.1733,-5.2416,-5.3213,-5.3416,-5.3518,-5.3518,-5.3518,-5.3518,-5.3518,-5.3518,-5.3518,-5.3518,-5.3518,-5.3518,-5.3518,-5.3518,-5.3484,-5.3348,-5.257,-5.1792,-5.1048,-5.0304,-4.9593,-4.9018,-4.9018,-4.9018,-4.9018,-4.9018,-4.9018,-4.9018,-4.9018,-4.9018,-4.9018,-4.9018,-4.9018,-4.9018,-4.9018,-4.9018,-4.9018,-4.9018,-4.9018,-4.9255,-4.9965,-5.0744,-5.1488,-5.2198,-5.301,-5.3518,-5.3518,-5.3518,-5.3518,-5.3518,-5.3518,-5.3518,-5.3518,-5.3518,-5.3518,-5.3518,-5.3518,-5.3518,-5.3518,-5.3518,-5.3518,-5.3518,-5.3518,-5.3518,-5.3518,-5.3518,-5.3518,-5.1229,0.0,0.0,0.0,0.0,0.0,-5.1229,-5.1229,-5.1079,-5.0554,-4.9853,-4.9179,-4.87,-4.7878,-4.7309,-4.7309,-4.7309,-4.7309,-4.7309,-4.7309,-4.7309,-4.7309,-4.7309,-4.7309,-4.7309,-4.7309,-4.7309,-4.7309,-4.7309,-4.7309,-4.7309,-4.7309,-4.7309,-4.7309,-4.7309,-4.7309,-4.7309,-4.7309,-4.7624,-4.8301,-4.8862,-4.9797,-5.1102,-5.1911,-5.259,-5.3213,-5.3416,-5.3518,-5.3518,-5.3518,-5.3518,-5.3518,-5.3518,-5.3518,-5.3518,-5.3518,-5.3518,-5.3518,-5.3518,-5.3112,-5.2604,-5.2367,-5.1454,-5.0371,-5.0135,-4.9593,-4.9018,-4.9018,-4.9018,-4.9018,-4.9018,-4.9018,-4.9018,-4.9018,-4.9018,-4.9018,-4.9018,-4.9018,-4.9018,-4.9018,-4.9018,-4.9018,-4.9018,-4.9018,-4.9255,-4.9965,-5.0744,-5.1488,-5.2198,-5.301,-5.3518,-5.3518,-5.3518,-5.3518,-5.3518,-5.3518,-5.3518,-5.3518,-5.3518,-5.3518,-5.3518,-5.3518,-5.3518,-5.3518,-5.3518,-5.3518,-5.3518,-5.3518,-5.3518,-5.3518,-5.3518,-5.3518,-5.1229,-5.1229,-5.1229,-5.1229,0.0,0.0,-5.1229,-5.0973,-5.0644,-5.0255,-4.9494,-4.8745,-4.8356,-4.7758,-4.7309,-4.7309,-4.7309,-4.7309,-4.7309,-4.7309,-4.7309,-4.7309,-4.7309,-4.7309,-4.7309,-4.7309,-4.7309,-4.7309,-4.7309,-4.7309,-4.7309,-4.7309,-4.7309,-4.7309,-4.7309,-4.7309,-4.7309,-4.7309,-4.7666,-4.8438,-4.8944,-4.9955,-5.1364,-5.202,-5.2694,-5.3348,-5.345,-5.3518,-5.3518,-5.3518,-5.3518,-5.3518,-5.3518,-5.3518,-5.3518,-5.3518,-5.3518,-5.3518,-5.3518,-5.2976,-5.2266,-5.1961,-5.1048,-5.0033,-4.9729,-4.9357,-4.9018,-4.9018,-4.9018,-4.9018,-4.9018,-4.9018,-4.9018,-4.9018,-4.9018,-4.9018,-4.9018,-4.9018,-4.9018,-4.9018,-4.9018,-4.9018,-4.9018,-4.9255,-4.9695,-5.0439,-5.1183,-5.1961,-5.2706,-5.3213,-5.3518,-5.3518,-5.3518,-5.3518,-5.3518,-5.3518,-5.3518,-5.3518,-5.3518,-5.3518,-5.3518,-5.3518,-5.3518,-5.3518,-5.3518,-5.3518,-5.3518,-5.3518,-5.3518,-5.3518,-5.3518,-5.3518,-5.1229,-5.1229,-5.1229,-5.1229,-5.1229,0.0,-5.1139,-5.0614,-5.0136,-5.0016,-4.9105,-4.8267,-4.8177,-4.7698,-4.7309,-4.7309,-4.7309,-4.7309,-4.7309,-4.7309,-4.7309,-4.7309,-4.7309,-4.7309,-4.7309,-4.7309,-4.7309,-4.7309,-4.7309,-4.7309,-4.7309,-4.7309,-4.7309,-4.7309,-4.7309,-4.7309,-4.7309,-4.7309,-4.7752,-4.8604,-4.9066,-5.0112,-5.1696,-5.2128,-5.2764,-5.3518,-5.3518,-5.3518,-5.3518,-5.3518,-5.3518,-5.3518,-5.3518,-5.3518,-5.3518,-5.3518,-5.3518,-5.3484,-5.3416,-5.2841,-5.2063,-5.1319,-5.0574,-4.9864,-4.9187,-4.9018,-4.9018,-4.9018,-4.9018,-4.9018,-4.9018,-4.9018,-4.9018,-4.9018,-4.9018,-4.9018,-4.9018,-4.9018,-4.9018,-4.9018,-4.9018,-4.9018,-4.9018,-4.9593,-5.0338,-5.1116,-5.1826,-5.2604,-5.3416,-5.3518,-5.3518,-5.3518,-5.3518,-5.3518,-5.3518,-5.3518,-5.3518,-5.3518,-5.3518,-5.3518,-5.3518,-5.3518,-5.3518,-5.3518,-5.3518,-5.3518,-5.3518,-5.3518,-5.3518,-5.3518,-5.3518,-5.3518,-5.1229,-5.1229,-5.1229,-5.1229,-5.1229,0.0,-5.0495,-5.0285,-4.9897,-4.8895,-4.8446,-4.8117,-4.7608,-4.7399,-4.7309,-4.7309,-4.7309,-4.7309,-4.7309,-4.7309,-4.7309,-4.7309,-4.7309,-4.7309,-4.7309,-4.7309,-4.7309,-4.7309,-4.7309,-4.7309,-4.7309,-4.7309,-4.7309,-4.7309,-4.7309,-4.7309,-4.7309,-4.7482,-4.7922,-4.8604,-4.939,-5.0454,-5.1696,-5.2307,-5.2903,-5.3518,-5.3518,-5.3518,-5.3518,-5.3518,-5.3518,-5.3518,-5.3518,-5.3518,-5.3518,-5.3518,-5.3518,-5.3416,-5.2773,-5.2063,-5.1319,-5.0541,-4.983,-4.9187,-4.9052,-4.9018,-4.9018,-4.9018,-4.9018,-4.9018,-4.9018,-4.9018,-4.9018,-4.9018,-4.9018,-4.9018,-4.9018,-4.9018,-4.9018,-4.9018,-4.9018,-4.9018,-4.9018,-4.9593,-5.0338,-5.1116,-5.1826,-5.2604,-5.3416,-5.3518,-5.3518,-5.3518,-5.3518,-5.3518,-5.3518,-5.3518,-5.3518,-5.3518,-5.3518,-5.3518,-5.3518,-5.3518,-5.3518,-5.3518,-5.3518,-5.3518,-5.3518,-5.3518,-5.3518,-5.3518,-5.3518,-5.3518,-5.1139,-5.1229,-5.1229,-5.1229,-5.0913,0.0,0.0,-4.9687,-4.9075,-4.8416,-4.8027,-4.7698,-4.7369,-4.7309,-4.7309,-4.7309,-4.7309,-4.7309,-4.7309,-4.7309,-4.7309,-4.7309,-4.7309,-4.7309,-4.7309,-4.7309,-4.7309,-4.7309,-4.7309,-4.7309,-4.7309,-4.7309,-4.7309,-4.7309,-4.7309,-4.7352,-4.7482,-4.7666,-4.8175,-4.8934,-4.9701,-5.0685,-5.1878,-5.2378,-5.2938,-5.3518,-5.3518,-5.3518,-5.3518,-5.3518,-5.3518,-5.3518,-5.3518,-5.3518,-5.3518,-5.3518,-5.3247,-5.2841,-5.2435,-5.1589,-5.0574,-5.0202,-4.9593,-4.9018,-4.9018,-4.9018,-4.9018,-4.9018,-4.9018,-4.9018,-4.9018,-4.9018,-4.9018,-4.9018,-4.9018,-4.9018,-4.9018,-4.9018,-4.9018,-4.9018,-4.9018,-4.912,-4.9492,-5.0168,-5.0913,-5.1657,-5.2401,-5.3044,-5.345,-5.3518,-5.3518,-5.3518,-5.3518,-5.3518,-5.3518,-5.3518,-5.3518,-5.3518,-5.3518,-5.3518,-5.3518,-5.3518,-5.3518,-5.3518,-5.3518,-5.3518,-5.3518,-5.3518,-5.3518,-5.3518,-5.3518,-5.3518,-5.069,-5.084,-5.084,-5.084,-5.0451,-4.9956,0.0,0.0,0.0,-4.8117,-4.7668,-4.7309,-4.7309,-4.7309,-4.7309,-4.7309,-4.7429,-4.7489,-4.7489,-4.7608,-4.7578,-4.7339,-4.7309,-4.7309,-4.7309,-4.7309,-4.7309,-4.7309,-4.7309,-4.7309,-4.7309,-4.7309,-4.7309,-4.7309,-4.7309,-4.7396,-4.7581,-4.788,-4.8469,-4.9331,-5.0018,-5.0914,-5.2023,-5.2485,-5.2972,-5.3518,-5.3518,-5.3518,-5.3518,-5.3518,-5.3518,-5.3518,-5.3518,-5.3518,-5.3484,-5.3348,-5.2875,-5.2266,-5.1961,-5.1082,-5.0067,-4.9932,-4.9492,-4.9018,-4.9018,-4.9018,-4.9018,-4.9018,-4.9018,-4.9018,-4.9018,-4.9018,-4.9018,-4.9018,-4.9018,-4.9018,-4.9018,-4.9018,-4.9018,-4.9018,-4.912,-4.939,-4.9999,-5.071,-5.1454,-5.2198,-5.2976,-5.3518,-5.3518,-5.3518,-5.3518,-5.3518,-5.3518,-5.3518,-5.3518,-5.3518,-5.3518,-5.3518,-5.3518,-5.3518,-5.3518,-5.3518,-5.3518,-5.3518,-5.3518,-5.3518,-5.3518,-5.3518,-5.3518,-5.3518,-5.3518,-5.3518,-4.9509,-4.9539,-4.9539,-4.9539,-4.9479,-4.9224,-4.8626,0.0,-4.8117,-4.7549,0.0,-4.7309,-4.7309,0.0,0.0,-4.7309,-4.7788,-4.8177,-4.8177,-4.8686,-4.8626,-4.7429,-4.7309,-4.7309,-4.7309,-4.7309,-4.7309,-4.7309,-4.7309,-4.7309,-4.7309,-4.7309,-4.7309,-4.7309,-4.7309,-4.7396,-4.7581,-4.8049,-4.8604,-4.93,-5.026,-5.1177,-5.2023,-5.259,-5.3109,-5.3518,-5.3518,-5.3518,-5.3518,-5.3518,-5.3518,-5.3518,-5.3518,-5.3518,-5.3416,-5.2706,-5.2367,-5.2097,-5.0811,-5.0236,-4.9965,-4.9323,-4.9086,-4.9018,-4.9018,-4.9018,-4.9018,-4.9018,-4.9018,-4.9018,-4.9018,-4.9018,-4.9018,-4.9018,-4.9018,-4.9018,-4.9018,-4.9018,-4.9018,-4.9018,-4.9526,-4.9999,-5.0067,-5.071,-5.1454,-5.2198,-5.2976,-5.3518,-5.3518,-5.3518,-5.3518,-5.3518,-5.3518,-5.3518,-5.3518,-5.3518,-5.3518,-5.3518,-5.3518,-5.3518,-5.3518,-5.3518,-5.3518,-5.3518,-5.3518,-5.3518,-5.3518,-5.3518,-5.3518,-5.3518,-5.3518,-5.3518,-4.9209,-4.9299,-4.9299,-4.9299,-4.903,-4.8626,-4.8356,-4.7997,-4.7638,-4.7369,0.0,0.0,0.0,0.0,0.0,0.0,-4.7848,-4.8297,-4.8297,-4.891,-4.912,-4.8506,-4.8117,-4.7728,-4.7339,-4.7309,-4.7309,-4.7309,-4.7309,-4.7309,-4.7309,-4.7309,-4.7309,-4.7309,-4.7309,-4.7482,-4.7837,-4.8133,-4.8728,-4.9693,-5.0416,-5.129,-5.22,-5.2694,-5.3144,-5.3518,-5.3518,-5.3518,-5.3518,-5.3518,-5.3416,-5.3348,-5.3348,-5.3382,-5.3416,-5.2604,-5.2029,-5.1522,-5.0439,-4.983,-4.939,-4.9086,-4.9018,-4.9018,-4.9018,-4.9018,-4.9018,-4.9018,-4.9018,-4.9018,-4.9018,-4.9018,-4.9018,-4.9018,-4.9018,-4.9018,-4.9018,-4.9018,-4.9018,-4.9018,-4.9593,-5.0236,-5.0676,-5.1352,-5.2097,-5.2875,-5.3281,-5.3518,-5.3518,-5.3518,-5.3518,-5.3518,-5.3518,-5.3518,-5.3518,-5.3518,-5.3518,-5.3518,-5.3518,-5.3518,-5.3518,-5.3518,-5.3518,-5.3518,-5.3518,-5.3518,-5.3518,-5.3518,-5.3518,-5.3518,-5.3518,-5.3518,-4.8596,-4.876,-4.876,-4.876,-4.8386,-4.8027,-4.8027,-4.7638,-4.7309,-4.7309,-4.7309,0.0,0.0,0.0,-4.7309,-4.7309,0.0,-4.8566,-4.8566,-4.9284,-4.9673,-4.9359,-4.8686,-4.8087,-4.7608,-4.7429,-4.7309,-4.7309,-4.7309,-4.7309,-4.7309,-4.7309,-4.7309,-4.7309,-4.7309,-4.7495,-4.788,-4.8133,-4.8687,-4.9622,-5.0299,-5.114,-5.2092,-5.259,-5.3041,-5.3416,-5.3484,-5.3518,-5.3518,-5.3518,-5.3382,-5.3179,-5.2977,-5.2943,-5.2944,-5.2201,-5.149,-5.0747,-5.0067,-4.9458,-4.9018,-4.9018,-4.9018,-4.9018,-4.9018,-4.9018,-4.9018,-4.9018,-4.9018,-4.9018,-4.9018,-4.9018,-4.9018,-4.9018,-4.9018,-4.9018,-4.9018,-4.9018,-4.9052,-4.9255,-4.9898,-5.0642,-5.1386,-5.1961,-5.257,-5.3382,-5.3518,-5.3518,-5.3518,-5.3518,-5.3518,-5.3518,-5.3518,-5.3518,-5.3518,-5.3518,-5.3518,-5.3518,-5.3518,-5.3518,-5.3518,-5.3518,-5.3518,-5.3518,-5.3518,-5.3518,-5.3518,-5.3518,-5.3518,-5.3518,-5.3518,-5.3518,-4.7369,-4.7369,-4.7369,-4.7369,-4.7369,-4.7339,-4.7339,-4.7309,-4.7309,-4.7309,-4.7309,-4.7309,-4.7309,-4.7309,-4.7309,-4.7309,-4.8386,0.0,0.0,-5.0331,-5.069,-4.9449,-4.8686,-4.8267,-4.8267,-4.7668,-4.7309,-4.7309,-4.7309,-4.7309,-4.7309,-4.7309,-4.7309,-4.7309,-4.7309,-4.7396,-4.7624,-4.788,-4.8343,-4.8934,-4.9789,-5.0647,-5.1475,-5.2238,-5.2835,-5.3213,-5.3416,-5.3518,-5.3518,-5.3518,-5.3382,-5.3145,-5.2404,-5.2034,-5.1765,-5.1261,-5.0586,-4.9845,-4.926,-4.9018,-4.9018,-4.9018,-4.9018,-4.9018,-4.9018,-4.9018,-4.9018,-4.9018,-4.9018,-4.9018,-4.9018,-4.9018,-4.9018,-4.9018,-4.9018,-4.9018,-4.9018,-4.9018,-4.9221,-4.9932,-5.0676,-5.142,-5.2131,-5.2266,-5.257,-5.3382,-5.3518,-5.3518,-5.3518,-5.3518,-5.3518,-5.3518,-5.3518,-5.3518,-5.3518,-5.3518,-5.3518,-5.3518,-5.3518,-5.3518,-5.3518,-5.3518,-5.3518,-5.3518,-5.3518,-5.3518,-5.3518,-5.3518,-5.3518,-5.3518,-5.3518,-5.3518,-4.7309,-4.7309,-4.7309,-4.7309,-4.7309,-4.7309,-4.7309,-4.7309,-4.7309,-4.7309,-4.7309,-4.7309,-4.7309,-4.7309,-4.7309,-4.7309,-4.8027,-4.882,0.0,-5.0391,-5.105,-5.0601,-4.9972,-4.9254,-4.8356,-4.8087,-4.7788,-4.7339,-4.7309,-4.7309,-4.7309,-4.7309,-4.7309,-4.7309,-4.7309,-4.7396,-4.7581,-4.7666,-4.8133,-4.8893,-4.9501,-5.026,-5.1215,-5.1915,-5.2485,-5.3007,-5.3213,-5.3382,-5.3518,-5.3348,-5.311,-5.2699,-5.1756,-5.0949,-5.0316,-5.0291,-5.0116,-4.9811,-4.9227,-4.9018,-4.9018,-4.9018,-4.9018,-4.9018,-4.9018,-4.9018,-4.9018,-4.9018,-4.9018,-4.9018,-4.9018,-4.9018,-4.9018,-4.9018,-4.9018,-4.9018,-4.9018,-4.9018,-4.9221,-4.9965,-5.071,-5.1454,-5.2164,-5.2739,-5.3179,-5.345,-5.3518,-5.3518,-5.3518,-5.3518,-5.3518,-5.3518,-5.3518,-5.3518,-5.3518,-5.3518,-5.3518,-5.3518,-5.3518,-5.3518,-5.3518,-5.3518,-5.3518,-5.3518,-5.3518,-5.3518,-5.3518,-5.3518,-5.3518,-5.3518,-5.3518,-5.3518,-4.7309,-4.7309,-4.7309,-4.7309,-4.7309,-4.7309,-4.7309,-4.7309,-4.7309,-4.7309,-4.7309,-4.7309,-4.7309,-4.7309,-4.7309,-4.7309,-4.7848,-4.8596,0.0,-5.0331,-5.0913,-5.1199,-5.0584,-4.9777,-4.8745,-4.8416,-4.8027,-4.7369,-4.7309,-4.7309,-4.7309,-4.7309,-4.7309,-4.7309,-4.7309,-4.7352,-4.7495,-4.7495,-4.7794,-4.8438,-4.8975,-4.9701,-5.057,-5.1401,-5.2059,-5.259,-5.2938,-5.3178,-5.328,-5.3076,-5.2632,-5.1914,-5.0799,-4.9829,-4.9071,-4.9393,-4.9454,-4.9345,-4.8935,-4.8894,-4.8925,-4.8925,-4.8956,-4.9018,-4.9018,-4.9018,-4.9018,-4.9018,-4.9018,-4.9018,-4.9018,-4.9018,-4.9018,-4.9018,-4.9018,-4.9018,-4.9018,-4.9221,-4.9593,-5.0338,-5.1082,-5.1826,-5.2604,-5.3179,-5.3518,-5.3518,-5.3518,-5.3518,-5.3518,-5.3518,-5.3518,-5.3518,-5.3518,-5.3518,-5.3518,-5.3518,-5.3518,-5.3518,-5.3518,-5.3518,-5.3518,-5.3518,-5.3518,-5.3518,-5.3518,-5.3518,-5.3518,-5.3518,-5.3518,-5.3518,-5.3518,-5.3518]},{"header":{"parameterUnit":"m.s-1","parameterCategory":1,"la1":30.6,"la2":29.2853,"lo1":-89.7004,"lo2":-87.6739,"dy":0.0162,"dx":0.0183,"nx":112,"ny":82,"refTime":"2024-02-25T06:00:00:Z","depth":0,"parameterNumber":3,"parameterNumberName":"V-component_of_WINDS"},"data":[0.0,0.0,0.0,0.0,0.0,0.0,0.0,0.0,0.0,0.0,0.0,0.0,0.0,0.0,0.0,0.0,0.0,0.0,0.0,0.0,0.0,0.0,0.0,0.0,0.0,0.0,0.0,0.0,0.0,0.0,0.0,0.0,0.0,0.0,0.0,0.0,0.0,0.0,0.0,0.0,0.0,0.0,0.0,0.0,0.0,0.0,0.0,0.0,0.0,0.0,0.0,0.0,0.0,0.0,0.0,0.0,0.0,0.0,0.0,0.0,0.0,0.0,0.0,0.0,0.0,0.0,0.0,0.0,0.0,0.0,0.0,0.0,0.0,0.0,0.0,0.0,0.0,0.0,0.0,0.0,0.0,0.0,0.0,0.0,0.0,0.0,0.0,0.0,0.0,0.0,-3.8993,-3.8784,-3.8065,-3.7456,-3.7151,-3.7456,-3.7761,-3.7761,0.0,0.0,0.0,0.0,0.0,0.0,0.0,0.0,0.0,0.0,0.0,0.0,0.0,0.0,0.0,0.0,0.0,0.0,0.0,0.0,0.0,0.0,0.0,0.0,0.0,0.0,0.0,0.0,0.0,0.0,0.0,0.0,0.0,0.0,0.0,0.0,0.0,0.0,0.0,0.0,0.0,0.0,0.0,0.0,0.0,0.0,0.0,0.0,0.0,0.0,0.0,0.0,0.0,0.0,0.0,0.0,0.0,0.0,0.0,0.0,0.0,0.0,0.0,0.0,0.0,0.0,0.0,0.0,0.0,0.0,0.0,0.0,0.0,0.0,0.0,0.0,0.0,0.0,0.0,0.0,0.0,0.0,0.0,0.0,0.0,0.0,0.0,0.0,0.0,0.0,0.0,0.0,0.0,0.0,0.0,0.0,0.0,0.0,0.0,0.0,0.0,0.0,0.0,0.0,-3.7671,-3.6271,-3.5785,-3.5485,-3.541,-3.5785,-3.616,-3.6459,0.0,0.0,0.0,0.0,0.0,0.0,0.0,0.0,0.0,0.0,0.0,0.0,0.0,0.0,0.0,0.0,0.0,0.0,0.0,0.0,0.0,0.0,0.0,0.0,0.0,0.0,0.0,0.0,0.0,0.0,0.0,0.0,0.0,0.0,0.0,0.0,0.0,0.0,0.0,0.0,0.0,0.0,0.0,0.0,0.0,0.0,0.0,0.0,0.0,0.0,0.0,0.0,0.0,0.0,0.0,0.0,0.0,0.0,0.0,0.0,0.0,0.0,0.0,0.0,0.0,0.0,0.0,0.0,0.0,0.0,0.0,0.0,0.0,0.0,0.0,0.0,0.0,0.0,0.0,0.0,0.0,0.0,0.0,0.0,0.0,0.0,0.0,0.0,0.0,0.0,0.0,0.0,0.0,0.0,0.0,0.0,0.0,0.0,0.0,0.0,0.0,0.0,0.0,-3.6904,-3.5653,-3.3878,-3.3239,-3.2783,-3.2402,-3.3163,-3.3861,-3.4221,-3.6399,0.0,0.0,0.0,0.0,0.0,0.0,0.0,0.0,0.0,0.0,0.0,0.0,0.0,0.0,0.0,0.0,0.0,0.0,0.0,0.0,0.0,0.0,0.0,0.0,0.0,0.0,0.0,0.0,0.0,0.0,0.0,0.0,0.0,0.0,0.0,0.0,0.0,0.0,0.0,0.0,0.0,0.0,0.0,0.0,0.0,0.0,0.0,0.0,0.0,0.0,0.0,0.0,0.0,0.0,0.0,0.0,0.0,0.0,0.0,0.0,0.0,0.0,0.0,0.0,0.0,0.0,0.0,0.0,0.0,0.0,0.0,0.0,0.0,0.0,0.0,0.0,0.0,0.0,0.0,0.0,0.0,0.0,0.0,0.0,0.0,0.0,0.0,0.0,0.0,0.0,0.0,0.0,0.0,0.0,0.0,0.0,0.0,0.0,0.0,0.0,0.0,0.0,-3.4993,-3.3498,-3.1755,-3.0912,-3.0253,-2.9639,-3.0635,-3.1582,-3.2195,-3.4324,0.0,0.0,0.0,0.0,0.0,0.0,0.0,0.0,0.0,0.0,0.0,0.0,0.0,0.0,0.0,0.0,0.0,0.0,0.0,0.0,0.0,0.0,0.0,0.0,0.0,0.0,0.0,0.0,0.0,0.0,0.0,0.0,0.0,0.0,0.0,0.0,0.0,0.0,0.0,0.0,0.0,0.0,0.0,0.0,0.0,0.0,0.0,0.0,0.0,0.0,0.0,0.0,0.0,0.0,0.0,0.0,0.0,0.0,0.0,0.0,0.0,0.0,0.0,0.0,0.0,0.0,0.0,0.0,0.0,0.0,0.0,0.0,0.0,0.0,0.0,0.0,0.0,0.0,0.0,0.0,0.0,0.0,0.0,0.0,0.0,0.0,0.0,0.0,0.0,0.0,0.0,0.0,0.0,0.0,0.0,0.0,0.0,0.0,0.0,0.0,0.0,0.0,-3.3402,-3.1383,-3.0492,-2.9079,-2.822,-2.8144,-2.8898,-2.9847,-3.0914,-3.2584,0.0,0.0,0.0,0.0,0.0,0.0,0.0,0.0,0.0,0.0,0.0,0.0,0.0,0.0,0.0,0.0,0.0,0.0,0.0,0.0,0.0,0.0,0.0,0.0,0.0,0.0,0.0,0.0,0.0,0.0,0.0,0.0,0.0,0.0,0.0,0.0,0.0,0.0,0.0,0.0,0.0,0.0,0.0,0.0,0.0,0.0,0.0,0.0,0.0,0.0,0.0,0.0,0.0,0.0,0.0,0.0,0.0,0.0,0.0,0.0,0.0,0.0,0.0,0.0,0.0,0.0,0.0,0.0,0.0,0.0,0.0,0.0,0.0,0.0,0.0,0.0,0.0,0.0,0.0,0.0,0.0,0.0,0.0,0.0,0.0,0.0,0.0,0.0,0.0,0.0,0.0,0.0,0.0,0.0,0.0,0.0,0.0,0.0,0.0,0.0,0.0,0.0,-3.1985,-3.019,-2.8641,-2.7477,-2.6724,-2.6496,-2.7406,-2.8356,-2.9079,0.0,0.0,0.0,0.0,0.0,0.0,0.0,0.0,0.0,0.0,0.0,0.0,0.0,0.0,0.0,0.0,0.0,0.0,0.0,0.0,0.0,0.0,0.0,0.0,0.0,0.0,0.0,0.0,0.0,0.0,0.0,0.0,0.0,0.0,0.0,0.0,0.0,0.0,0.0,0.0,0.0,0.0,0.0,0.0,0.0,0.0,0.0,0.0,0.0,0.0,0.0,0.0,0.0,0.0,0.0,0.0,0.0,0.0,0.0,0.0,0.0,0.0,0.0,0.0,0.0,0.0,0.0,0.0,0.0,0.0,0.0,0.0,0.0,0.0,0.0,0.0,0.0,0.0,0.0,0.0,0.0,0.0,0.0,0.0,0.0,0.0,0.0,0.0,0.0,0.0,0.0,0.0,0.0,0.0,0.0,0.0,0.0,0.0,0.0,0.0,0.0,0.0,-3.2964,-3.0925,-2.8938,-2.7337,-2.6274,-2.554,-2.5237,-2.6067,-2.6847,-2.7398,0.0,0.0,0.0,0.0,0.0,0.0,0.0,0.0,0.0,0.0,0.0,0.0,0.0,0.0,0.0,0.0,0.0,0.0,0.0,0.0,0.0,0.0,0.0,0.0,0.0,0.0,0.0,0.0,0.0,0.0,0.0,0.0,0.0,0.0,0.0,0.0,0.0,0.0,0.0,0.0,0.0,0.0,0.0,0.0,0.0,0.0,0.0,0.0,0.0,0.0,0.0,0.0,0.0,0.0,0.0,0.0,0.0,0.0,0.0,0.0,0.0,0.0,0.0,0.0,0.0,0.0,0.0,0.0,0.0,0.0,0.0,0.0,0.0,0.0,0.0,0.0,0.0,0.0,0.0,0.0,0.0,0.0,0.0,0.0,0.0,0.0,0.0,0.0,0.0,0.0,0.0,0.0,0.0,0.0,0.0,0.0,0.0,0.0,0.0,0.0,0.0,0.0,-3.2784,-2.9965,-2.7792,-2.6932,-2.5478,-2.4636,-2.4636,-2.4931,-2.5497,0.0,0.0,0.0,0.0,0.0,0.0,0.0,0.0,0.0,0.0,0.0,0.0,0.0,0.0,0.0,0.0,0.0,0.0,0.0,0.0,0.0,0.0,0.0,0.0,0.0,0.0,0.0,0.0,0.0,0.0,0.0,0.0,0.0,0.0,0.0,0.0,0.0,0.0,0.0,0.0,0.0,0.0,0.0,0.0,0.0,0.0,0.0,0.0,0.0,0.0,0.0,0.0,0.0,0.0,0.0,0.0,0.0,0.0,0.0,0.0,0.0,0.0,0.0,0.0,0.0,0.0,0.0,0.0,0.0,0.0,0.0,0.0,0.0,0.0,0.0,0.0,0.0,0.0,0.0,0.0,0.0,0.0,0.0,0.0,0.0,0.0,0.0,0.0,0.0,0.0,0.0,0.0,0.0,0.0,0.0,0.0,0.0,0.0,0.0,0.0,0.0,0.0,0.0,-3.0578,-2.8749,-2.7174,-2.588,-2.5059,-2.4636,-2.4636,-2.4931,-2.5267,-2.5497,0.0,0.0,0.0,0.0,0.0,0.0,0.0,0.0,0.0,0.0,0.0,0.0,0.0,0.0,0.0,0.0,0.0,0.0,0.0,0.0,0.0,0.0,0.0,0.0,0.0,0.0,0.0,0.0,0.0,0.0,0.0,0.0,0.0,0.0,0.0,0.0,0.0,0.0,0.0,0.0,0.0,0.0,0.0,0.0,0.0,0.0,0.0,0.0,0.0,0.0,0.0,0.0,0.0,0.0,0.0,0.0,0.0,0.0,0.0,0.0,0.0,0.0,0.0,0.0,0.0,0.0,0.0,0.0,0.0,0.0,0.0,0.0,0.0,0.0,0.0,0.0,0.0,0.0,0.0,0.0,0.0,0.0,0.0,0.0,0.0,0.0,0.0,0.0,0.0,0.0,0.0,0.0,0.0,0.0,0.0,0.0,0.0,0.0,0.0,0.0,0.0,0.0,-2.9552,-2.8099,-2.675,-2.5373,-2.4857,-2.4636,-2.4636,-2.4784,-2.4931,-2.4931,0.0,0.0,0.0,0.0,0.0,0.0,0.0,0.0,0.0,0.0,0.0,0.0,0.0,0.0,0.0,0.0,0.0,0.0,0.0,0.0,0.0,0.0,0.0,0.0,0.0,0.0,0.0,0.0,0.0,0.0,0.0,0.0,0.0,0.0,0.0,0.0,0.0,0.0,0.0,0.0,0.0,0.0,0.0,0.0,0.0,0.0,0.0,0.0,0.0,0.0,0.0,0.0,0.0,0.0,0.0,0.0,0.0,0.0,0.0,0.0,0.0,0.0,0.0,0.0,0.0,0.0,0.0,0.0,0.0,0.0,0.0,0.0,0.0,0.0,0.0,0.0,0.0,0.0,0.0,0.0,0.0,0.0,0.0,0.0,0.0,0.0,0.0,0.0,0.0,0.0,0.0,0.0,0.0,0.0,0.0,0.0,0.0,0.0,0.0,0.0,0.0,0.0,-2.9393,-2.781,-2.6458,-2.5299,-2.4784,-2.4636,-2.4636,-2.4636,-2.4636,-2.4636,0.0,0.0,0.0,0.0,0.0,0.0,0.0,0.0,0.0,0.0,0.0,0.0,0.0,0.0,0.0,0.0,0.0,0.0,0.0,0.0,0.0,0.0,0.0,0.0,0.0,0.0,0.0,0.0,0.0,0.0,0.0,0.0,0.0,0.0,0.0,0.0,0.0,0.0,0.0,0.0,0.0,0.0,0.0,0.0,0.0,0.0,0.0,0.0,0.0,0.0,0.0,0.0,0.0,0.0,0.0,0.0,0.0,0.0,0.0,0.0,-3.8555,-3.8769,0.0,0.0,0.0,0.0,0.0,0.0,0.0,0.0,0.0,0.0,0.0,0.0,0.0,0.0,0.0,0.0,0.0,0.0,0.0,0.0,0.0,0.0,0.0,0.0,0.0,0.0,0.0,0.0,0.0,0.0,0.0,0.0,0.0,0.0,0.0,0.0,0.0,0.0,0.0,0.0,-2.8604,-2.7245,-2.6093,-2.4857,-2.4636,-2.4636,-2.4636,-2.4636,-2.4636,-2.4636,-2.4636,0.0,0.0,0.0,0.0,0.0,0.0,0.0,0.0,0.0,0.0,0.0,0.0,0.0,0.0,0.0,0.0,0.0,0.0,0.0,0.0,0.0,0.0,0.0,0.0,0.0,0.0,0.0,0.0,0.0,0.0,0.0,0.0,0.0,0.0,0.0,0.0,0.0,0.0,0.0,0.0,0.0,0.0,0.0,0.0,0.0,0.0,0.0,0.0,0.0,0.0,0.0,0.0,0.0,0.0,0.0,0.0,0.0,0.0,0.0,-3.8301,-3.8574,0.0,0.0,0.0,0.0,0.0,0.0,0.0,0.0,0.0,0.0,0.0,0.0,0.0,0.0,0.0,0.0,0.0,0.0,0.0,0.0,0.0,0.0,0.0,0.0,0.0,0.0,0.0,0.0,0.0,0.0,0.0,0.0,0.0,0.0,0.0,0.0,0.0,0.0,0.0,0.0,-2.8099,-2.6969,-2.596,-2.471,-2.4636,-2.4636,-2.4636,-2.4636,-2.4636,-2.4636,-2.4636,0.0,0.0,0.0,0.0,0.0,0.0,0.0,0.0,0.0,0.0,0.0,0.0,0.0,0.0,0.0,0.0,0.0,0.0,0.0,0.0,0.0,0.0,0.0,0.0,0.0,0.0,0.0,0.0,0.0,0.0,0.0,0.0,0.0,0.0,0.0,0.0,0.0,0.0,0.0,0.0,0.0,0.0,0.0,0.0,0.0,0.0,0.0,0.0,0.0,0.0,0.0,0.0,0.0,-3.693,-3.693,-3.7,-3.7078,-3.7117,-3.7226,-3.8008,-3.8359,-3.8359,-3.8359,0.0,0.0,0.0,0.0,0.0,0.0,0.0,0.0,0.0,0.0,0.0,0.0,0.0,0.0,0.0,0.0,0.0,0.0,0.0,0.0,0.0,0.0,-3.7168,-3.709,-3.707,-3.707,-3.707,0.0,0.0,0.0,0.0,0.0,0.0,0.0,0.0,0.0,0.0,0.0,-2.7753,-2.6677,-2.5814,-2.471,-2.4636,-2.4636,-2.4636,-2.4636,-2.4636,-2.4636,-2.4636,-2.4636,0.0,0.0,0.0,0.0,0.0,0.0,0.0,0.0,0.0,0.0,0.0,0.0,0.0,0.0,0.0,0.0,0.0,0.0,0.0,0.0,0.0,0.0,0.0,0.0,0.0,0.0,0.0,0.0,0.0,0.0,0.0,0.0,-3.6567,-3.6132,0.0,0.0,0.0,0.0,0.0,0.0,0.0,0.0,0.0,0.0,0.0,0.0,0.0,-3.6133,-3.6191,-3.5849,-3.5712,-3.5712,-3.5368,-3.5437,-3.5731,-3.6078,-3.646,-3.6777,-3.7266,0.0,-3.7461,-3.7461,0.0,0.0,0.0,0.0,0.0,0.0,0.0,0.0,0.0,0.0,0.0,0.0,0.0,0.0,0.0,0.0,0.0,0.0,0.0,0.0,0.0,0.0,-3.666,-3.6269,-3.6191,-3.6191,-3.6191,-3.6484,-3.6758,-3.6758,-3.6406,-3.5977,0.0,0.0,0.0,0.0,0.0,0.0,-2.7245,-2.6093,-2.5152,-2.4636,-2.4636,-2.4636,-2.4636,-2.4636,-2.4636,-2.4636,-2.4636,-2.4636,-2.4636,-2.4636,0.0,0.0,0.0,0.0,0.0,0.0,0.0,0.0,0.0,0.0,0.0,0.0,0.0,0.0,0.0,0.0,0.0,0.0,0.0,0.0,0.0,0.0,0.0,0.0,0.0,0.0,0.0,0.0,0.0,-3.6403,-3.6132,-3.6016,-3.6016,-3.6016,0.0,0.0,0.0,0.0,0.0,0.0,0.0,0.0,0.0,-3.6016,-3.6016,-3.6016,-3.6016,-3.5675,-3.5489,-3.5489,-3.5059,-3.5127,-3.5489,-3.5662,-3.5965,-3.6309,-3.6504,-3.6582,-3.6621,-3.7109,-3.7305,-3.7305,0.0,0.0,0.0,0.0,-3.7305,-3.7266,-3.7031,-3.6953,-3.6953,-3.6953,0.0,0.0,0.0,0.0,0.0,0.0,0.0,-3.6543,-3.6348,-3.6309,-3.625,-3.6074,-3.6016,-3.6016,-3.6016,-3.6172,-3.6309,-3.6309,-3.6152,-3.5879,-3.5557,-3.4715,0.0,0.0,0.0,-2.8403,-2.6896,-2.5814,-2.5024,-2.4409,-2.4396,-2.4329,-2.4168,-2.4155,-2.4222,-2.4382,-2.4396,-2.4462,-2.4549,-2.4636,-2.4636,0.0,0.0,0.0,0.0,0.0,0.0,0.0,0.0,0.0,0.0,0.0,0.0,0.0,0.0,0.0,0.0,0.0,0.0,0.0,0.0,0.0,0.0,0.0,0.0,0.0,0.0,0.0,0.0,-3.6016,-3.6016,-3.6016,-3.6016,-3.6016,0.0,0.0,0.0,0.0,0.0,0.0,-3.6016,-3.6016,-3.6016,-3.6016,-3.6016,-3.6016,-3.6016,-3.5538,-3.5333,-3.5333,-3.4853,-3.4853,-3.5333,-3.5333,-3.5606,-3.6016,-3.6016,-3.6016,-3.6074,-3.6699,-3.6973,-3.6973,-3.6973,-3.6973,-3.6973,-3.6973,-3.6973,-3.6934,-3.6621,-3.6504,-3.6504,-3.6504,-3.6504,-3.6504,-3.6504,0.0,0.0,0.0,0.0,-3.6016,-3.6016,-3.6016,-3.6016,-3.6016,-3.6016,-3.6016,-3.6016,-3.6016,-3.6016,-3.6016,-3.5947,-3.5743,-3.5264,-3.4214,0.0,-3.1107,-2.925,-2.7602,-2.6084,-2.5285,-2.4634,-2.4115,-2.4088,-2.4008,-2.3794,-2.3768,-2.3861,-2.4075,-2.4088,-2.4195,-2.4409,-2.4422,-2.4422,-2.4422,0.0,0.0,0.0,0.0,0.0,0.0,0.0,0.0,0.0,0.0,0.0,0.0,0.0,0.0,0.0,0.0,0.0,0.0,0.0,0.0,0.0,0.0,0.0,0.0,0.0,0.0,0.0,0.0,0.0,-3.6016,-3.6016,0.0,0.0,0.0,0.0,-3.6016,-3.6016,-3.6016,-3.6016,-3.6016,-3.6016,-3.6016,-3.6016,-3.6016,-3.6016,-3.5264,-3.4921,-3.4921,-3.4232,-3.4232,-3.4921,-3.4921,-3.5333,-3.6016,-3.6016,-3.6016,-3.6016,-3.6074,-3.6094,-3.6094,-3.6094,-3.6094,-3.6094,-3.6094,-3.6094,-3.6074,-3.6055,-3.6055,-3.6055,-3.6055,-3.6055,-3.6055,-3.6055,-3.6035,0.0,0.0,-3.6016,-3.6016,-3.6016,-3.6016,-3.6016,-3.6016,-3.6016,-3.6016,-3.6016,-3.6016,-3.6016,-3.6016,-3.5743,-3.5264,-3.4577,0.0,-3.1475,-2.9228,-2.7626,-2.6098,-2.4605,-2.4079,-2.3879,-2.3794,-2.3794,-2.3781,-2.3768,-2.3768,-2.3781,-2.3794,-2.3794,-2.3794,-2.3808,-2.3808,-2.3808,-2.3808,-2.4088,0.0,0.0,0.0,0.0,0.0,0.0,0.0,0.0,0.0,0.0,0.0,0.0,0.0,0.0,0.0,0.0,0.0,0.0,0.0,0.0,0.0,0.0,0.0,0.0,0.0,0.0,0.0,0.0,-3.6016,-3.6016,0.0,-3.6016,-3.6016,-3.6016,-3.6016,-3.6016,-3.6016,-3.6016,-3.6016,-3.6016,-3.6016,-3.6016,-3.6016,-3.6016,-3.5538,-3.5264,-3.5264,-3.4784,-3.4784,-3.5264,-3.5264,-3.5538,-3.6016,-3.6016,-3.6016,-3.6016,-3.6016,-3.6016,-3.6016,-3.6016,-3.6016,-3.6016,-3.6016,-3.6016,-3.6016,-3.6016,-3.6016,-3.6016,-3.6016,-3.6016,-3.6016,-3.6016,-3.6016,-3.6016,-3.6016,-3.6016,-3.6016,-3.6016,-3.6016,-3.6016,-3.6016,-3.6016,-3.6016,-3.6016,-3.6016,-3.5937,-3.5664,-3.5569,-3.5188,-3.4221,-3.2552,-3.0734,-2.8702,-2.6924,-2.5498,-2.4451,-2.4039,-2.3701,-2.35,-2.3487,-2.3407,-2.3276,-2.318,-2.3273,-2.3474,-2.3487,-2.3567,-2.3768,-2.3768,-2.3768,-2.3768,-2.3875,-2.3928,0.0,0.0,0.0,0.0,0.0,0.0,0.0,0.0,0.0,0.0,0.0,0.0,0.0,0.0,0.0,0.0,0.0,0.0,0.0,0.0,0.0,0.0,0.0,0.0,0.0,-3.6016,-3.6016,-3.6016,-3.6016,-3.6016,-3.6016,-3.6016,-3.6016,-3.6016,-3.6016,-3.6016,-3.6016,-3.6016,-3.6016,-3.6016,-3.6016,-3.6016,-3.6016,-3.5675,-3.5489,-3.5489,-3.5059,-3.5127,-3.5489,-3.5489,-3.5675,-3.6016,-3.6016,-3.6016,-3.6016,-3.6016,-3.6016,-3.6016,-3.6016,-3.6016,-3.6016,-3.6016,-3.6016,-3.6016,-3.6016,-3.6016,-3.6016,-3.6016,-3.6016,-3.6016,-3.6016,-3.6016,-3.6016,-3.6016,-3.6016,-3.6016,-3.6016,-3.6016,-3.5996,-3.584,-3.5801,-3.5762,-3.5605,-3.5566,-3.5488,-3.5215,-3.5104,-3.4717,-3.3606,-3.1731,-2.981,-2.799,-2.6245,-2.482,-2.3952,-2.3658,-2.3394,-2.3193,-2.3166,-2.3086,-2.2954,-2.2928,-2.2953,-2.3153,-2.3166,-2.326,-2.346,-2.346,-2.346,-2.346,-2.3567,-2.3674,-2.3768,0.0,0.0,0.0,0.0,0.0,0.0,0.0,0.0,0.0,0.0,0.0,0.0,0.0,0.0,0.0,0.0,0.0,0.0,0.0,0.0,0.0,0.0,0.0,-3.6016,-3.6016,-3.6016,-3.6016,-3.6016,-3.6016,-3.6016,-3.6016,-3.6016,-3.6016,-3.6016,-3.6016,-3.6016,-3.6016,-3.6016,-3.6016,-3.6016,-3.6016,-3.6016,-3.5675,-3.5557,-3.547,-3.5127,-3.5127,-3.5557,-3.5557,-3.5675,-3.6016,-3.6016,-3.6016,-3.6016,-3.6016,-3.6016,-3.6016,-3.6016,-3.6016,-3.6016,-3.6016,-3.6016,-3.6016,-3.6016,-3.6016,-3.6016,-3.6016,-3.6016,-3.5996,-3.5996,-3.5996,-3.5976,-3.5976,-3.5976,-3.5976,-3.5976,-3.5976,-3.5879,-3.5469,-3.5371,-3.5254,-3.4805,-3.4707,-3.4687,-3.4687,-3.4422,-3.3905,-3.2777,-3.0734,-2.8692,-2.6976,-2.5353,0.0,-2.3036,-2.2928,-2.2928,-2.2914,-2.2846,-2.2914,-2.2832,-2.2832,-2.2832,-2.2832,-2.2914,-2.2846,-2.2846,-2.2859,-2.2928,-2.2928,-2.3153,-2.3447,-2.3741,0.0,0.0,0.0,0.0,0.0,0.0,0.0,0.0,0.0,0.0,0.0,0.0,0.0,0.0,0.0,0.0,0.0,0.0,0.0,0.0,0.0,-3.6016,-3.6016,-3.6016,-3.6016,-3.6016,-3.6016,-3.6016,-3.6016,-3.6016,-3.6016,-3.6016,-3.6016,-3.6016,-3.6016,-3.6016,-3.6016,-3.6016,-3.6016,-3.6016,-3.6016,-3.6016,-3.5879,-3.5879,-3.5879,-3.5743,-3.5743,-3.5879,-3.5879,-3.5879,-3.6016,-3.6016,-3.6016,-3.6016,-3.6016,-3.6016,-3.6016,-3.6016,-3.6016,-3.6016,-3.6016,-3.6016,-3.6016,-3.6016,-3.6016,-3.6016,-3.6016,-3.582,-3.5566,-3.5566,-3.5332,-3.5059,-3.5059,-3.5059,-3.5059,-3.5059,-3.5059,-3.5039,-3.4922,-3.4883,-3.4863,-3.4726,-3.4707,-3.4609,-3.4297,-3.3816,-3.3152,-3.2298,-3.0403,-2.8335,-2.6553,-2.5033,-2.3845,-2.301,-2.2928,-2.2779,-2.2565,-2.2539,-2.2458,-2.2245,-2.2231,-2.2231,-2.2231,-2.2418,-2.2539,-2.2539,-2.2752,-2.2928,-2.2928,-2.2953,-2.3033,0.0,0.0,0.0,0.0,0.0,0.0,0.0,0.0,0.0,0.0,0.0,0.0,0.0,0.0,0.0,0.0,0.0,0.0,0.0,0.0,0.0,0.0,-3.6016,-3.6016,-3.6016,-3.6016,-3.6016,-3.6016,-3.6016,-3.6016,-3.6016,-3.6016,-3.6016,-3.6016,-3.6016,-3.6016,-3.6016,-3.6016,-3.6016,-3.6016,-3.6016,-3.6016,-3.6016,-3.6016,-3.6016,-3.6016,-3.6016,-3.6016,-3.6016,-3.6016,-3.6016,-3.6016,-3.6016,-3.5918,-3.5762,-3.5762,-3.5644,-3.5508,0.0,0.0,0.0,0.0,-3.5469,-3.5469,-3.5469,-3.5469,-3.5469,-3.5469,-3.5312,-3.5098,-3.5098,-3.4922,-3.4707,-3.4707,-3.4707,-3.4707,-3.4707,-3.4707,-3.4648,-3.4473,-3.4434,-3.4375,-3.4199,-3.416,-3.4101,-3.3848,-3.3296,0.0,-3.1635,-2.99,-2.7994,-2.6331,-2.4785,-2.3486,-2.2808,-2.2565,-2.2432,-2.2258,-2.2231,-2.2164,-2.2004,-2.1991,0.0,0.0,0.0,-2.2231,-2.2231,-2.2405,0.0,0.0,0.0,-2.2498,-2.2498,-2.2498,0.0,0.0,-2.3273,-2.3394,0.0,0.0,0.0,0.0,0.0,0.0,0.0,0.0,0.0,0.0,0.0,0.0,0.0,0.0,0.0,0.0,-3.6016,-3.6016,-3.6016,-3.6016,-3.6016,-3.6016,-3.6016,-3.6016,-3.6016,-3.5976,-3.5957,-3.5957,-3.5898,-3.5879,-3.5879,-3.5918,0.0,0.0,0.0,-3.6016,-3.6016,-3.6016,-3.6016,-3.6016,-3.6016,-3.6016,-3.6016,-3.5976,-3.5957,-3.5937,-3.5898,-3.5664,-3.5312,-3.5312,-3.5078,-3.4785,-3.5566,-3.5644,-3.5273,-3.4844,-3.4707,-3.4707,-3.4707,0.0,0.0,-3.4707,-3.4668,-3.4629,-3.4629,-3.459,-3.4551,-3.4551,-3.4551,-3.4551,-3.4551,-3.4551,-3.4453,-3.4082,-3.4004,-3.3887,-3.3496,-3.3379,-3.3359,-3.3359,-3.2752,-3.1966,-3.098,-2.9344,-2.7669,-2.6193,-2.4553,-2.3167,-2.2432,-2.2151,-2.1977,-2.1937,-2.1937,0.0,-2.1884,-2.1884,-2.1884,-2.1884,-2.1911,-2.1951,-2.1991,-2.1991,-2.1991,-2.1991,-2.1991,-2.1991,-2.1991,-2.1991,-2.1991,-2.1991,-2.2525,-2.2834,0.0,0.0,0.0,0.0,0.0,0.0,0.0,0.0,0.0,0.0,0.0,0.0,0.0,0.0,0.0,-3.6016,-3.6016,-3.6016,-3.6016,-3.6016,-3.6016,-3.6016,-3.6016,-3.6016,-3.6016,-3.5723,-3.5508,-3.5508,-3.5176,-3.4961,-3.4961,-3.5312,-3.5508,-3.5508,-3.584,-3.6016,-3.6016,-3.6016,-3.6016,-3.6016,-3.6016,0.0,-3.6016,-3.5664,-3.5508,-3.5488,-3.5117,-3.4902,-3.4824,-3.4824,-3.4785,-3.4726,-3.4883,-3.4902,-3.4824,-3.4726,-3.4707,-3.4707,-3.4707,-3.4707,-3.4707,-3.4707,-3.4473,-3.4199,-3.4199,-3.3945,0.0,-3.3672,-3.3672,-3.3672,-3.3672,-3.3672,-3.3652,-3.3574,-3.3555,-3.3516,-3.3437,-3.3164,-3.291,-3.291,-3.2266,-3.1503,-3.081,-2.9073,-2.7214,-2.5516,-2.4072,-2.2863,-2.2203,-2.2017,-2.1897,-2.1722,-2.1695,-2.1537,-2.1296,-2.1283,-2.1283,-2.1283,-2.151,-2.1737,-2.1977,-2.1991,-2.1991,-2.1991,-2.1991,-2.1991,-2.1991,-2.1991,-2.1991,-2.1991,-2.2098,-2.2151,0.0,0.0,0.0,0.0,0.0,0.0,0.0,0.0,0.0,0.0,0.0,-3.6386,-3.6035,0.0,-3.6016,-3.6016,-3.6016,-3.5937,-3.5742,-3.5703,-3.5703,-3.5703,-3.5703,-3.5605,-3.5391,-3.5176,-3.5039,-3.5039,-3.4824,-3.4707,-3.4707,-3.4922,-3.5039,-3.5039,-3.5254,-3.5351,-3.5351,-3.5351,-3.5351,-3.5351,-3.5351,-3.5351,-3.5351,-3.5137,-3.5039,-3.5039,-3.4805,-3.459,-3.4375,-3.4141,-3.4062,-3.4062,-3.4062,-3.4199,-3.4355,-3.4141,-3.4062,-3.4062,-3.4062,-3.4062,-3.4062,-3.4062,-3.3926,-3.375,-3.375,-3.3594,-3.3418,-3.3418,-3.3418,-3.3379,-3.3164,-3.3105,-3.3066,-3.2851,-3.2793,-3.2793,-3.2793,-3.2637,-3.248,-3.248,-3.1999,-3.134,-3.0522,-2.9013,-2.7377,-2.5864,-2.4119,-2.2804,-2.2155,-2.1773,-2.1496,-2.1349,-2.1336,-2.1269,-2.1122,-2.1109,-2.1109,-2.1109,-2.1256,-2.139,-2.1537,-2.155,-2.155,-2.155,-2.155,-2.155,-2.155,-2.155,-2.155,-2.155,-2.155,-2.171,0.0,0.0,0.0,0.0,0.0,0.0,0.0,-3.9533,-3.8228,-3.7489,-3.6845,-3.6298,-3.6035,-3.6016,-3.6016,-3.6016,-3.5957,-3.5781,-3.5449,-3.5312,-3.5234,-3.5156,-3.5215,-3.5117,-3.4726,-3.4629,-3.457,-3.457,-3.4492,-3.4453,-3.4453,-3.4531,-3.457,-3.457,-3.4668,-3.4707,-3.4707,-3.4707,-3.4707,-3.4707,-3.4707,-3.4707,-3.4707,-3.4609,-3.457,-3.457,-3.4492,-3.4258,-3.3906,-3.3476,-3.3301,-3.3301,-3.3203,-3.3398,-3.3672,-3.3398,-3.3301,-3.3281,-3.3203,-3.3184,-3.3184,-3.3184,-3.3184,-3.3184,-3.3184,-3.3184,-3.3184,-3.3184,-3.3184,-3.3105,-3.2754,-3.2676,-3.2598,-3.2307,-3.2229,-3.2229,-3.2229,-3.2109,-3.2051,-3.2051,-3.1731,-3.1194,-3.0291,-2.9131,-2.7771,-2.6135,-2.4299,-2.2801,-2.2098,-2.1447,-2.1109,-2.1109,-2.1109,-2.1109,-2.1109,-2.1109,-2.1109,-2.1109,-2.1109,-2.1109,-2.1109,-2.1109,-2.1109,-2.1109,-2.1109,-2.1109,-2.1109,-2.1109,-2.1109,-2.1109,-2.1109,-2.1363,-4.6301,-4.5629,-4.4633,-4.3374,-4.2005,-4.0573,0.0,-3.8129,-3.7139,-3.6726,-3.6298,-3.6035,-3.6016,-3.6016,-3.6016,-3.6016,-3.5703,-3.5449,-3.541,-3.5039,-3.4648,-3.4258,-3.4551,-3.4766,-3.4707,-3.4355,-3.4141,-3.4141,-3.3789,-3.3574,-3.3574,-3.3926,-3.4141,-3.4141,-3.4512,-3.4707,-3.4707,-3.4707,-3.4707,-3.4707,-3.4707,-3.4707,-3.4687,-3.4316,-3.4141,-3.4121,-3.373,-3.3535,-3.3457,-3.3047,-3.2871,-3.2832,-3.2461,-3.2344,-3.2422,-3.2734,-3.2871,-3.2812,-3.2441,-3.2305,-3.2305,-3.2305,-3.2305,-3.2305,-3.2305,-3.2305,-3.2305,-3.2305,-3.2305,-3.2305,-3.2307,-3.2307,-3.2287,-3.2187,-3.2229,-3.2229,-3.2229,-3.1875,-3.1582,-3.1582,-3.123,-3.084,-3.0469,-2.9565,-2.8091,-2.5552,-2.399,-2.2726,-2.1782,-2.1312,-2.1109,-2.1109,-2.1109,-2.1109,-2.1109,-2.1109,-2.1109,-2.1109,-2.1109,-2.1109,-2.1109,-2.1109,-2.1109,-2.1109,-2.1109,-2.1109,-2.1109,-2.1109,-2.1109,-2.1109,-2.1109,-2.1149,-4.602,-4.539,-4.4535,-4.3365,-4.1942,-4.0475,-3.9513,-3.8186,-3.7044,-3.6893,-3.6386,-3.6016,-3.6016,-3.6016,-3.5937,-3.5703,-3.5508,-3.5215,-3.4687,-3.4453,-3.418,-3.375,-3.3848,-3.3945,-3.3945,-3.3789,-3.3691,-3.3691,-3.3516,-3.3418,-3.3418,-3.3594,-3.3691,-3.3691,-3.3867,-3.3945,-3.3945,-3.3945,-3.3945,-3.3945,-3.3945,-3.3945,-3.3945,-3.3769,-3.3691,-3.3672,-3.3242,-3.3066,-3.3027,-3.2598,-3.2422,-3.2422,-3.2307,-3.2229,-3.2187,-3.2363,-3.2422,-3.2402,-3.2226,-3.2229,-3.2229,-3.2229,-3.2229,-3.2229,-3.2229,-3.2229,-3.2229,-3.2229,-3.2229,-3.2109,-3.1855,-3.1797,-3.1719,-3.1484,-3.1426,-3.1426,-3.1426,-3.1289,-3.1152,-3.1152,-3.1016,-3.0762,-3.045,-2.9726,-2.86,-2.6779,-2.5071,-2.3527,-2.2355,-2.174,-2.1299,-2.1109,-2.1109,-2.1109,-2.1109,-2.1109,-2.1109,-2.1109,-2.1109,-2.1109,-2.1109,-2.1109,-2.1109,-2.1109,-2.1109,-2.1109,-2.1109,-2.1109,-2.1109,-2.1109,-2.1109,-2.1109,-4.5799,-4.5245,-4.4477,-4.3332,-4.1933,-4.0671,-3.9802,-3.845,-3.73,-3.7144,-3.657,-3.6132,-3.6016,-3.5918,-3.5742,-3.5449,-3.5195,-3.4805,-3.416,-3.3965,-3.3769,-3.3457,-3.3418,-3.3418,-3.3418,-3.3418,-3.3418,-3.3418,-3.3418,-3.3418,-3.3418,-3.3418,-3.3418,-3.3418,-3.3418,-3.3418,-3.3418,-3.3418,-3.3418,-3.3418,-3.3418,-3.3418,-3.3418,-3.3301,-3.3242,-3.3223,-3.2812,-3.2617,-3.2598,-3.2168,-3.1992,-3.1973,-3.1855,-3.1816,-3.1816,-3.1816,-3.1894,-3.1973,-3.1855,-3.1816,-3.1816,-3.1816,-3.1816,-3.1816,-3.1816,-3.1816,-3.1816,-3.1816,-3.1816,-3.1738,-3.1426,-3.1348,-3.1269,-3.0957,-3.0898,-3.0898,-3.0898,-3.0898,-3.0898,-3.0898,-3.0898,-3.082,-3.0567,-3.0079,-2.9253,-2.8062,-2.6476,-2.4826,-2.3106,-2.2104,-2.1488,-2.1109,-2.1109,-2.1109,-2.1109,-2.1109,-2.1109,-2.1109,-2.1109,-2.1109,-2.1109,-2.1109,-2.1109,-2.1109,-2.1109,-2.1109,-2.1109,-2.1109,-2.1109,-2.1109,-2.1029,-2.0989,-4.5494,-4.5049,-4.4367,-4.2742,-4.1797,-4.0938,-3.952,-3.8621,-3.7883,-3.722,-3.6729,-3.6364,-3.6084,-3.5684,-3.541,-3.5391,-3.4668,-3.4101,-3.4082,-3.3711,-3.3437,-3.3418,-3.3418,-3.3418,-3.3418,-3.3418,-3.3418,-3.3418,-3.3418,-3.3418,-3.3418,-3.3418,-3.3418,-3.3418,-3.3418,-3.3418,-3.3418,-3.3418,-3.3418,-3.3418,-3.3418,-3.3418,-3.3418,-3.3008,-3.2812,-3.2793,-3.2363,-3.2248,-3.2148,-3.1719,-3.1543,-3.1504,-3.1094,-3.0937,-3.0937,-3.0937,-3.1191,-3.1484,-3.1074,-3.0937,-3.0937,-3.0937,-3.0937,-3.0937,-3.0937,-3.0937,-3.0937,-3.0937,-3.0937,-3.0918,-3.0918,-3.0918,-3.0918,-3.0898,-3.0898,-3.0898,-3.0898,-3.0898,-3.0898,-3.0898,-3.0898,-3.0898,-3.0898,-3.0567,-3.0039,-2.9094,-2.8062,-2.6476,-2.3914,-2.2418,-2.1488,-2.1109,-2.1109,-2.1109,-2.1109,-2.1109,-2.1109,-2.1109,-2.1109,-2.1109,-2.1109,-2.1109,-2.1109,-2.1109,-2.1109,-2.1109,-2.1109,-2.1109,-2.1109,-2.1096,-2.0815,-2.0695,-4.5714,-4.5416,-4.4911,-4.3901,-4.298,-4.2028,-4.111,-4.0018,-3.8951,-3.8266,-3.7508,-3.6789,-3.6403,-3.5799,-3.5293,-3.498,-3.4453,-3.3965,-3.3691,-3.3516,-3.3418,-3.3418,-3.3418,-3.3418,-3.3418,-3.3418,-3.3418,-3.3418,-3.3418,-3.3418,-3.3418,-3.3418,-3.3418,-3.3418,-3.3418,-3.3418,-3.3418,-3.3418,-3.3418,-3.3418,-3.3418,-3.3281,-3.3008,-3.2851,-3.2637,-3.2363,-3.1914,-3.1738,-3.1699,-3.1269,-3.1094,-3.1094,-3.0937,-3.0898,-3.0898,-3.0898,-3.0976,-3.1074,-3.0937,-3.0898,-3.0898,-3.0898,-3.0898,-3.0898,-3.0898,-3.0898,-3.0898,-3.0898,-3.0898,-3.0898,-3.0898,-3.0898,-3.0898,-3.0898,-3.0898,-3.0898,-3.0898,-3.0898,-3.0898,-3.0898,-3.0898,-3.0898,-3.0898,-3.0645,-3.0039,-2.8838,-2.69,-2.501,-2.3479,-2.248,-2.1803,-2.1488,-2.1614,-2.1677,-2.1425,-2.1425,-2.1362,-2.1109,-2.1109,-2.1109,-2.1109,-2.1109,-2.1109,-2.1109,-2.1109,-2.1015,-2.0815,-2.0815,-2.0722,-2.0521,-2.0428,-2.0374,-4.591,-4.5611,-4.5294,-4.4645,-4.3977,-4.3307,-4.2511,-4.1456,-4.0386,-3.9408,-3.8395,-3.7482,-3.6856,-3.5996,-3.5257,-3.4746,-3.4219,-3.375,-3.3457,-3.3418,-3.3418,-3.3418,-3.3418,-3.3418,-3.3418,-3.3418,-3.3418,-3.3418,-3.3418,-3.3418,-3.3418,-3.3418,-3.3418,-3.3418,-3.3418,-3.3418,-3.3418,-3.3418,-3.334,-3.3203,-3.3203,-3.2969,-3.2559,-3.2402,-3.2187,-3.1914,-3.1484,-3.1289,-3.1269,-3.0996,-3.0898,-3.0898,-3.0898,-3.0898,-3.0898,-3.0898,-3.0898,-3.0898,-3.0898,-3.0898,-3.0898,-3.0898,-3.0898,-3.0898,-3.0898,-3.0898,-3.0898,-3.0898,-3.0898,-3.0898,-3.0898,-3.0898,-3.0898,-3.0898,-3.0898,-3.0898,-3.0898,-3.0898,-3.0898,-3.0898,-3.0898,-3.0898,-3.0898,-3.0645,-3.002,-2.8957,-2.7004,-2.5133,-2.3775,-2.3043,-2.248,-2.1992,-2.2167,-2.2167,-2.1803,-2.1677,-2.1488,-2.1109,-2.1109,-2.1109,-2.1109,-2.1109,-2.1056,-2.0962,-2.0949,-2.0815,-2.0521,-2.0521,-2.0414,-2.0227,-2.0134,-2.008,-4.591,-4.5824,-4.5689,-4.502,-4.489,-4.462,-4.3621,-4.2855,-4.1952,-4.0581,-3.9451,-3.8416,-3.7348,-3.6156,-3.5185,-3.4773,-3.3984,-3.3418,-3.3418,-3.3418,-3.3418,-3.3418,-3.3418,-3.3418,-3.3418,-3.3418,-3.3418,-3.3418,-3.3418,-3.3418,-3.3418,-3.3418,-3.3418,-3.3418,-3.3418,-3.3418,-3.3418,-3.3398,-3.3184,-3.2754,-3.2754,-3.2539,-3.2129,-3.1699,-3.1504,-3.1465,-3.1055,-3.0898,-3.0898,-3.0898,-3.0898,-3.0898,-3.0898,-3.0898,-3.0898,-3.0898,-3.0898,-3.0898,-3.0898,-3.0898,-3.0898,-3.0898,-3.0898,-3.0898,-3.0898,-3.0898,-3.0898,-3.0898,-3.0898,-3.0898,-3.0898,-3.0898,-3.0898,-3.0898,-3.0898,-3.0898,-3.0898,-3.0898,-3.0898,-3.0898,-3.0898,-3.0898,-3.0898,-3.0645,-3.0197,-2.9549,-2.8343,-2.684,-2.4949,-2.41,-2.3417,-2.2793,-2.2731,-2.2606,-2.223,-2.1866,-2.1551,-2.1172,-2.1109,-2.1096,-2.1082,-2.1082,-2.0949,-2.0655,-2.0655,-2.0508,-2.0153,-2.0153,-2.014,-2.0127,-1.9907,-1.9773,-4.6215,-4.619,-4.613,-4.5935,-4.5743,-4.5392,-4.489,-4.4089,-4.3051,-4.1655,-4.0366,-3.9057,-3.775,-3.6288,-3.5185,-3.4773,-3.3984,-3.3418,-3.3418,-3.3418,-3.3418,-3.3418,-3.3418,-3.3418,-3.3418,-3.3418,-3.3418,-3.3418,-3.3418,-3.3418,-3.3418,-3.3418,-3.3418,-3.3418,-3.3418,-3.3418,-3.3418,-3.3105,-3.2734,-3.2324,-3.2324,-3.2109,-3.168,-3.1562,-3.1348,-3.1055,-3.0937,-3.0898,-3.0898,-3.0898,-3.0898,-3.0898,-3.0898,-3.0898,-3.0898,-3.0898,-3.0898,-3.0898,-3.0898,-3.0898,-3.0898,-3.0898,-3.0898,-3.0898,-3.0898,-3.0898,-3.0898,-3.0898,-3.0898,-3.0898,-3.0898,-3.0898,-3.0898,-3.0898,-3.0898,-3.0898,-3.0898,-3.0898,-3.0898,-3.0898,-3.0898,-3.0898,-3.0898,-3.082,-3.0645,-3.0216,-2.9253,-2.7942,-2.6006,-2.5165,-2.4548,-2.4115,-2.4301,-2.4115,-2.3293,-2.3168,-2.2606,-2.1551,-2.1488,-2.1267,-2.0802,-2.0788,-2.0655,-2.0347,-2.0347,-2.0201,-1.9907,-1.9907,-1.98,-1.9586,-1.9506,-1.9479,-4.6301,-4.6301,-4.6301,-4.6301,-4.6145,-4.5963,-4.5611,-4.4853,-4.3864,-4.2546,-4.1142,-3.9713,-3.8129,-3.6552,-3.5361,-3.4773,-3.3984,-3.3418,-3.3418,-3.3418,-3.3418,-3.3418,-3.3418,-3.3418,-3.3418,-3.3418,-3.3418,-3.3418,-3.3418,-3.3418,-3.3418,-3.3418,-3.3418,-3.3418,-3.3242,-3.3066,-3.2871,-3.2637,-3.2305,-3.1875,-3.1875,-3.166,-3.125,-3.125,-3.1113,-3.0898,-3.0898,-3.0898,-3.0898,-3.0898,-3.0898,-3.0898,-3.0898,-3.0898,-3.0898,-3.0898,-3.0898,-3.0898,-3.0898,-3.0898,-3.0898,-3.0898,-3.0898,-3.0898,-3.0898,-3.0898,-3.0898,-3.0898,-3.0898,-3.0898,-3.0898,-3.0898,-3.0898,-3.0898,-3.0898,-3.0898,-3.0898,-3.0898,-3.0898,-3.0898,-3.0898,-3.0898,-3.0898,-3.0898,-3.0762,-3.045,-2.9804,-2.8975,-2.7684,-2.6614,-2.5839,-2.5456,-2.5594,-2.5394,-2.4533,-2.4224,-2.3482,-2.2095,-2.1783,-2.1334,-2.074,-2.0542,-2.0347,-2.0054,-2.004,-1.9907,-1.9613,-1.9613,-1.9533,-1.943,-1.943,-1.943,-4.6301,-4.6301,-4.6301,-4.6301,-4.6301,-4.624,-4.5939,-4.5367,-4.4484,-4.3153,-4.1783,-4.0301,-3.8441,-3.6861,-3.5556,-3.4838,-3.3984,-3.3418,-3.3418,-3.3418,-3.3418,-3.3418,-3.3418,-3.3418,-3.3418,-3.3418,-3.3418,-3.3418,-3.3418,-3.3418,-3.3418,-3.3379,-3.332,-3.3262,-3.291,-3.25,-3.209,-3.209,-3.1855,-3.1426,-3.1426,-3.125,-3.0898,-3.0898,-3.0898,-3.0898,-3.0898,-3.0898,-3.0898,-3.0898,-3.0898,-3.0898,-3.0898,-3.0898,-3.0898,-3.0898,-3.0898,-3.0898,-3.0898,-3.0898,-3.0898,-3.0898,-3.0898,-3.0898,-3.0898,-3.0898,-3.0898,-3.0898,-3.0898,-3.0898,-3.0898,-3.0898,-3.0898,-3.0898,-3.0898,-3.0898,-3.0898,-3.0898,-3.0898,-3.0898,-3.0898,-3.0898,-3.0898,-3.0898,-3.082,-3.0509,-3.0157,-2.9863,-2.9549,-2.8182,-2.7177,-2.6857,-2.6857,-2.6537,-2.5802,-2.5192,-2.4239,-2.2822,-2.2137,-2.1521,-2.0777,-2.0415,-2.01,-1.9805,-1.9746,-1.9626,-1.943,-1.943,-1.943,-1.943,-1.943,-1.943,-4.6301,-4.6301,-4.6301,-4.6301,-4.6301,-4.6301,-4.624,-4.5696,-4.4816,-4.3467,-4.2143,-4.0603,-3.8507,-3.6861,-3.5556,-3.4838,-3.3984,-3.3418,-3.3418,-3.3418,-3.3418,-3.3418,-3.3418,-3.3418,-3.3418,-3.3418,-3.3418,-3.3418,-3.3418,-3.3418,-3.3418,-3.3086,-3.2734,-3.2402,-3.2324,-3.207,-3.1641,-3.1621,-3.1426,-3.0996,-3.0996,-3.0957,-3.0898,-3.0898,-3.0898,-3.0898,-3.0898,-3.0898,-3.0898,-3.0898,-3.0898,-3.0898,-3.0898,-3.0898,-3.0898,-3.0898,-3.0898,-3.0898,-3.0898,-3.0898,-3.0898,-3.0898,-3.0898,-3.0898,-3.0898,-3.0898,-3.0898,-3.0898,-3.0898,-3.0898,-3.0898,-3.0898,-3.0898,-3.0898,-3.0898,-3.0898,-3.0898,-3.0898,-3.0898,-3.0898,-3.0898,-3.0898,-3.0898,-3.0898,-3.0898,-3.082,-3.0509,-3.0274,-3.0197,-2.9331,-2.8618,-2.8558,-2.8558,-2.8057,-2.6754,-2.6381,-2.5337,-2.3482,-2.2752,-2.2022,-2.1171,-2.0579,-2.0146,-1.9788,-1.9555,-1.947,-1.943,-1.943,-1.943,-1.943,-1.943,-1.943,-4.6301,-4.6301,-4.6301,-4.6301,-4.6301,-4.6301,-4.6301,-4.5757,-4.4939,-4.3802,-4.2333,-4.0732,-3.8793,-3.7012,-3.5556,-3.4838,-3.3984,-3.3418,-3.3418,-3.3418,-3.3418,-3.3418,-3.3418,-3.3418,-3.3418,-3.3418,-3.3418,-3.3418,-3.3223,-3.3105,-3.3105,-3.2695,-3.2266,-3.1836,-3.1836,-3.1621,-3.1191,-3.1191,-3.1094,-3.0898,-3.0898,-3.0898,-3.0898,-3.0898,-3.0898,-3.0898,-3.0898,-3.0898,-3.0898,-3.0898,-3.0742,-3.0527,-3.0527,-3.0391,-3.0195,-3.0195,-3.0195,-3.0234,-3.0449,-3.0527,-3.0566,-3.082,-3.0898,-3.0898,-3.0898,-3.0898,-3.0898,-3.0898,-3.0898,-3.0898,-3.0898,-3.0898,-3.0898,-3.0898,-3.0898,-3.0898,-3.0898,-3.0898,-3.0898,-3.0898,-3.0898,-3.0898,-3.0898,-3.0898,-3.0898,-3.0898,-3.0762,-3.0645,-3.0645,-3.0294,-2.9882,-2.9509,-2.9263,-2.8806,-2.7944,-2.7239,-2.6244,-2.4812,-2.3869,-2.2898,-2.1927,-2.1177,-2.054,-2.004,-1.9764,-1.9533,-1.943,-1.943,-1.943,-1.943,-1.943,-1.943,-4.6301,-4.6301,-4.6301,-4.6301,-4.6301,-4.6301,-4.6301,-4.5757,-4.5,-4.4013,-4.2483,-4.0755,-3.9012,-3.7143,-3.5556,-3.4838,-3.3984,-3.3418,-3.3418,-3.3418,-3.3418,-3.3418,-3.3418,-3.3418,-3.3418,-3.3418,-3.3379,-3.3301,-3.2812,-3.2519,-3.2519,-3.2207,-3.1836,-3.1406,-3.1387,-3.123,-3.0898,-3.0898,-3.0898,-3.0898,-3.0898,-3.0898,-3.0898,-3.0898,-3.0898,-3.0898,-3.0898,-3.084,-3.0742,-3.0742,-3.0469,-3.0059,-3.0059,-2.9863,-2.9626,-2.9626,-2.9626,-2.9665,-2.9941,-3.0117,-3.0254,-3.0625,-3.082,-3.0898,-3.0898,-3.0898,-3.0898,-3.0898,-3.0898,-3.0898,-3.0898,-3.0898,-3.0898,-3.0898,-3.0898,-3.0898,-3.0898,-3.0898,-3.0898,-3.0898,-3.0898,-3.0898,-3.0898,-3.0898,-3.0898,-3.0898,-3.0898,-3.0898,-3.0898,-3.0801,-3.0568,-3.0023,-2.9679,-2.9279,-2.8764,-2.7934,-2.7001,-2.6028,-2.4867,-2.3845,-2.2918,-2.1957,-2.1174,-2.0615,-2.0155,-1.9764,-1.9475,-1.943,-1.943,-1.943,-1.943,-1.943,-4.6301,-4.6301,-4.6301,-4.6301,-4.6301,-4.6301,-4.6301,-4.5757,-4.5,-4.4013,-4.2483,-4.0755,-3.9012,-3.7143,-3.5556,-3.4838,-3.3984,-3.3418,-3.3418,-3.3418,-3.3418,-3.3418,-3.3418,-3.3418,-3.3418,-3.3418,-3.3262,-3.2871,-3.209,-3.1641,-3.1641,-3.1601,-3.1387,-3.0957,-3.0957,-3.0937,-3.0898,-3.0898,-3.0898,-3.0898,-3.0898,-3.0898,-3.0898,-3.0898,-3.0898,-3.0898,-3.0898,-3.0644,-3.0254,-3.0254,-3.0,-2.9685,-2.9685,-2.9609,-2.9626,-2.9626,-2.9626,-2.9626,-2.9609,-2.9883,-3.0195,-3.0254,-3.0547,-3.0898,-3.0898,-3.0898,-3.0898,-3.0898,-3.0898,-3.0898,-3.0898,-3.0898,-3.0898,-3.0898,-3.0898,-3.0898,-3.0898,-3.0898,-3.0898,-3.0898,-3.0898,-3.0898,-3.0898,-3.0898,-3.0898,-3.0898,-3.0898,-3.0898,-3.0898,-3.0527,-3.0254,-3.0197,-3.0177,-2.9657,-2.8644,-2.8197,-2.7529,-2.65,-2.5604,-2.4812,-2.415,-2.303,-2.2127,-2.1502,-2.0673,-2.0097,-1.9764,-1.9533,-1.943,-1.943,-1.943,-1.943,-4.6301,-4.6301,-4.6301,-4.6301,-4.6301,-4.6301,-4.6301,-4.5757,-4.5,-4.4013,-4.2483,-4.0755,-3.9012,-3.7143,0.0,0.0,0.0,-3.3418,-3.3418,-3.3418,-3.3418,-3.3418,-3.3418,-3.3418,-3.3418,-3.3184,-3.2754,-3.207,-3.1719,-3.1406,-3.1152,-3.1133,-3.1055,-3.0898,-3.0898,-3.0898,-3.0898,-3.0898,-3.0898,-3.0898,-3.0898,-3.0898,-3.0898,-3.0898,-3.0898,-3.0879,-3.0586,-3.0371,-3.0176,-2.9922,-2.957,-2.918,-2.918,-2.9023,-2.8809,-2.8809,-2.8809,-2.8828,-2.9082,-2.9277,-2.9512,-3.0019,-3.0332,-3.0527,-3.0801,-3.0898,-3.0898,-3.0898,-3.0898,-3.0898,-3.0898,-3.0898,-3.0898,-3.0898,-3.0898,-3.0898,-3.0898,-3.0898,-3.0898,-3.0898,-3.0898,-3.0898,-3.0898,-3.0898,-3.0898,-3.0898,-3.0898,-3.0801,-3.0508,-3.0312,-3.0,-2.9473,-2.9434,-2.9241,-2.88,-2.8257,-2.7809,-2.7368,-2.6699,-2.599,-2.5386,-2.4445,-2.3311,-2.2184,-2.1288,-2.05,-1.9809,-1.9533,-1.943,-1.943,-1.943,-1.943,-4.6301,-4.6301,-4.6301,-4.6301,-4.6301,-4.6301,-4.6301,-4.5696,-4.4878,-4.3989,-4.227,-4.043,-3.8821,-3.691,0.0,0.0,0.0,-3.3418,-3.3418,-3.3418,-3.3418,-3.3418,-3.3418,-3.3379,-3.3242,-3.2734,-3.2168,-3.1562,-3.1406,-3.1211,-3.0918,-3.0898,-3.0898,-3.0898,-3.0898,-3.0898,-3.0898,-3.0898,-3.0898,-3.0898,-3.0898,-3.0898,-3.0898,-3.0898,-3.082,-3.0664,-3.0332,-3.0059,-2.9805,-2.9492,-2.9121,-2.873,-2.873,-2.8555,-2.8301,-2.8301,-2.8301,-2.834,-2.8633,-2.8809,-2.9043,-2.9785,-3.0098,-3.0293,-3.0762,-3.0898,-3.0898,-3.0898,-3.0898,-3.0898,-3.0898,-3.0898,-3.0898,-3.0898,-3.0898,-3.0898,-3.0898,-3.0898,-3.0898,-3.0898,-3.0898,-3.0898,-3.0898,-3.0898,-3.0898,-3.0898,-3.0781,-3.0566,-3.0234,-2.998,-2.959,-2.8984,-2.8809,-2.873,-2.873,-2.8296,-2.8014,-2.8014,-2.753,-2.7043,-2.65,-2.5679,-2.4556,-2.3199,-2.2127,-2.1174,-2.0314,-1.9764,-1.9533,-1.9533,-1.943,-1.943,-4.6301,-4.6301,-4.6301,-4.6301,-4.6301,-4.6301,-4.6301,-4.555,-4.4607,-4.3927,-4.1888,-3.9736,-3.8268,-3.651,0.0,0.0,0.0,0.0,-3.3418,-3.3418,-3.3418,-3.3418,-3.3418,-3.3262,-3.2832,-3.2031,-3.1523,-3.1523,-3.1133,-3.0898,-3.0898,-3.0898,-3.0898,-3.0898,-3.0898,-3.0898,-3.0898,-3.0898,-3.0898,-3.0898,-3.0898,-3.0898,-3.0898,-3.0898,-3.0644,-3.0195,-3.0195,-2.9707,-2.8926,-2.8926,-2.8672,-2.8301,-2.8301,-2.8301,-2.8301,-2.8301,-2.8301,-2.8301,-2.8301,-2.8574,-2.8984,-2.9434,-2.9863,-3.0293,-3.0762,-3.0898,-3.0898,-3.0898,-3.0898,-3.0898,-3.0898,-3.0898,-3.0898,-3.0898,-3.0898,-3.0898,-3.0898,-3.0898,-3.0898,-3.0898,-3.0898,-3.0898,-3.0898,-3.0898,-3.0898,-3.0898,-3.0488,-3.0195,-3.0195,-2.9453,-2.8926,-2.8926,-2.8555,-2.8301,-2.8301,-2.8301,-2.8301,-2.8301,-2.8014,-2.7745,-2.7368,-2.6554,-2.5679,-2.4778,-2.3255,-2.2184,-2.1559,-2.0371,-1.9809,-1.9822,-1.9533,-1.943,-4.6301,-4.6301,-4.6301,-4.6301,-4.6301,-4.6301,-4.6301,-4.5696,-4.4816,-4.3654,-4.2143,-4.0255,-3.8052,-3.6575,-3.5286,0.0,0.0,0.0,-3.3418,-3.3418,-3.3418,-3.3418,-3.3164,-3.2715,-3.1992,-3.168,-3.1406,-3.1113,-3.0957,-3.0898,-3.0898,-3.0898,-3.0898,-3.0898,-3.0898,-3.0898,-3.0898,-3.0898,-3.0898,-3.0898,-3.0898,-3.0898,-3.0879,-3.0566,-3.0332,-3.0156,-2.957,-2.916,-2.8906,-2.8613,-2.8418,-2.8301,-2.8301,-2.8301,-2.8301,-2.8301,-2.8301,-2.8301,-2.8301,-2.8379,-2.8613,-2.9336,-2.9668,-2.9902,-3.0664,-3.0898,-3.0898,-3.0898,-3.0898,-3.0898,-3.0898,-3.0898,-3.0898,-3.0898,-3.0898,-3.0898,-3.0898,-3.0898,-3.0898,-3.0898,-3.0898,-3.0898,-3.0898,-3.0898,-3.0781,-3.0469,-3.0293,-2.998,-2.9394,-2.9082,-2.8809,-2.8516,-2.8379,-2.8301,-2.8301,-2.8301,-2.8301,-2.8301,-2.8228,-2.8014,-2.7745,-2.7098,-2.6336,-2.5459,-2.4111,-2.303,-2.2184,-2.1231,-2.0443,-1.9809,-1.9533,-1.943,-4.6301,-4.6301,-4.6301,-4.6301,-4.6301,-4.6301,-4.6301,-4.5696,-4.4816,-4.3716,-4.2206,-4.0405,-3.8209,-3.6841,-3.5634,-3.4565,-3.3911,-3.3607,-3.3607,-3.3481,-3.3359,-3.3203,-3.2812,-3.2285,-3.1582,-3.1367,-3.1172,-3.0918,-3.0898,-3.0898,-3.0898,-3.0898,-3.0898,-3.0898,-3.0898,-3.0898,-3.0898,-3.0898,-3.0898,-3.0898,-3.0898,-3.0801,-3.0625,-3.0332,-3.0019,-2.9687,-2.916,-2.8828,0.0,-2.8398,-2.8301,-2.8301,-2.8301,-2.8301,-2.8301,-2.8301,-2.8301,-2.8301,-2.8301,-2.8301,-2.8437,-2.9297,-2.9785,-3.0176,-3.0723,-3.0898,-3.0898,-3.0898,-3.0898,-3.0898,-3.0898,-3.0898,-3.0898,-3.0898,-3.0898,-3.0898,-3.0898,-3.0898,-3.0898,-3.0898,-3.0898,-3.0898,-3.0898,-3.0742,-3.0527,-3.0234,-2.9922,-2.9531,-2.8984,-2.8789,-2.8574,-2.832,-2.8301,-2.8301,-2.8301,-2.8301,-2.8301,-2.8301,-2.8301,-2.8247,-2.8067,-2.7584,-2.7043,-2.6336,-2.5165,-2.4167,-2.3368,-2.19,-2.073,-1.9809,-1.9533,-1.943,0.0,-4.6301,-4.6301,-4.6301,-4.6301,-4.6301,-4.6301,-4.555,0.0,-4.3989,-4.2247,-4.0336,-3.8779,-3.7318,-3.607,-3.5127,-3.4423,-3.3985,-3.3985,-3.367,-3.3262,-3.2793,-3.2402,-3.1992,-3.1523,-3.1113,-3.0898,-3.0898,-3.0898,-3.0898,-3.0898,-3.0898,-3.0898,-3.0957,-3.0937,-3.0937,-3.0957,-3.0937,-3.0957,-3.0957,-3.0957,-3.0702,-3.0252,-3.0233,-2.9707,-2.8926,-2.8887,-2.8652,-2.8301,-2.8301,-2.8301,-2.8301,-2.8301,-2.8301,-2.8301,-2.8301,-2.8301,-2.8301,-2.8301,-2.8301,-2.8437,-2.9297,-3.0176,-3.0898,-3.0898,-3.0898,-3.0898,-3.0898,-3.0898,-3.0898,-3.0898,-3.0898,-3.0898,-3.0898,-3.0898,-3.0898,-3.0898,-3.0898,-3.0898,-3.0898,-3.0898,-3.0879,-3.084,-3.0488,-3.0176,-3.0117,-2.9434,-2.8906,-2.8887,-2.8535,-2.8301,-2.8301,-2.8301,-2.8301,-2.8301,-2.8301,-2.8301,-2.8301,-2.8301,-2.8301,-2.8301,-2.8014,-2.7745,-2.7422,-2.6282,-2.5404,-2.4778,-2.241,-2.0831,-1.9924,-1.9591,-1.943,-4.6301,0.0,-4.6301,-4.6301,-4.6301,-4.6301,0.0,-4.5939,-4.5306,-4.436,-4.3035,-4.1489,-3.9445,-3.803,-3.6874,-3.5851,-3.5087,-3.4673,-3.4673,-3.4173,-3.3395,-3.2463,-3.2226,-3.1875,-3.1113,-3.0957,-3.0898,-3.0898,-3.0898,-3.0898,-3.0898,-3.0898,-3.0995,-3.1228,-3.1441,-3.1441,-3.1228,-3.1441,-3.1556,-3.1556,-3.1556,-3.1222,-3.0557,-3.0221,-2.9656,-2.8906,-2.8574,-2.8379,-2.8301,-2.8301,-2.8301,-2.8301,-2.8301,-2.8301,-2.8301,-2.8301,-2.8301,-2.8301,-2.8301,-2.8301,-2.8437,-2.9297,-3.0176,-3.0898,-3.0898,-3.0898,-3.0898,-3.0898,-3.0898,-3.0898,-3.0898,-3.0898,-3.0898,-3.0898,-3.0898,-3.0898,-3.0898,-3.0898,-3.0898,-3.0898,-3.0898,-3.0781,-3.043,-3.0273,-2.998,-2.9316,-2.9043,-2.8809,-2.8476,-2.8359,-2.8301,-2.8301,-2.8301,-2.8301,-2.8301,-2.8301,-2.8301,-2.8301,-2.8301,-2.8301,-2.8301,-2.8014,-2.7853,-2.7799,-2.6609,-2.5624,-2.4778,-2.303,-2.1843,-2.1174,-2.0155,-1.9707,-4.6301,-4.6301,-4.6301,-4.6301,-4.6301,-4.6301,-4.6301,-4.6059,-4.5635,-4.4915,-4.3805,-4.2461,-4.0969,-3.9427,-3.8143,-3.7357,-3.6319,-3.5418,-3.4984,-3.4324,-3.351,-3.255,-3.2234,-3.184,-3.1171,-3.1228,-3.1228,-3.1112,-3.1112,-3.1054,-3.0898,-3.0898,-3.0995,-3.1267,-3.1903,-3.2055,-3.171,-3.2076,-3.2133,-3.1998,-3.1815,-3.1264,-3.0373,-2.9937,-2.9337,-2.8613,-2.8398,-2.8301,-2.8301,-2.8301,-2.8301,-2.8301,-2.8301,-2.8301,-2.8301,-2.8301,-2.8301,-2.8301,-2.8301,-2.8555,-2.8984,-2.9648,-3.0332,-3.0898,-3.0898,-3.0898,-3.0898,-3.0898,-3.0898,-3.0898,-3.0898,-3.0898,-3.0898,-3.0898,-3.0898,-3.0898,-3.0898,-3.0898,-3.0898,-3.0898,-3.0723,-3.0488,-3.0234,-2.9863,-2.9453,-2.8984,-2.875,-2.8555,-2.832,-2.8301,-2.8301,-2.8301,-2.8301,-2.8301,-2.8301,-2.8301,-2.8301,-2.8301,-2.8301,-2.8301,-2.8301,-2.8174,-2.8014,-2.7906,-2.6989,-2.6063,-2.5238,-2.3815,-2.2749,-2.2013,-2.0945,-2.027,-4.6301,-4.6301,-4.6301,-4.6301,-4.6301,-4.6301,-4.6301,-4.6059,-4.5793,-4.5305,-4.4378,-4.3361,-4.2449,-4.0888,-3.9565,-3.9094,-3.7714,-3.6319,-3.5294,-3.4534,-3.3801,-3.2995,-3.2495,-3.2036,-3.1538,-3.1787,-3.1845,-3.1556,-3.1498,-3.1325,-3.1112,-3.1054,-3.117,-3.1498,-3.2399,-3.2799,-3.2607,-3.2856,-3.2799,-3.2514,-3.2061,-3.1274,-3.0183,-2.9744,-2.909,-2.8354,-2.8301,-2.8301,-2.8301,-2.8301,-2.8301,-2.8301,-2.8301,-2.8301,-2.8301,-2.8301,-2.8301,-2.8301,-2.8359,-2.8906,-2.9704,-3.0059,-3.0508,-3.0898,-3.0898,-3.0898,-3.0898,-3.0898,-3.0898,-3.0898,-3.0898,-3.0898,-3.0898,-3.0898,-3.0898,-3.0898,-3.0898,-3.0898,-3.0859,-3.0801,-3.0469,-3.0156,-3.0019,-2.9394,-2.8906,-2.8828,-2.8516,-2.8301,-2.8301,-2.8301,-2.8301,-2.8301,-2.8301,-2.8301,-2.8301,-2.8301,-2.8301,-2.8301,-2.8301,-2.8301,-2.8301,-2.8301,-2.8174,-2.796,-2.7422,-2.6772,-2.5953,-2.4778,-2.3704,-2.2805,-2.1786,-2.1002,-4.6301,-4.6301,-4.6301,-4.6301,-4.6301,-4.6301,-4.6301,-4.624,-4.5995,-4.5221,-4.4556,-4.3718,-4.2628,-4.1372,-4.041,-4.0048,-3.8848,-3.7572,-3.6319,-3.5755,-3.505,-3.3994,-3.3423,-3.295,-3.2498,-3.2514,-3.2514,-3.2457,-3.2227,-3.2055,-3.1998,-3.1787,-3.1903,-3.2457,-3.3346,-3.4022,-3.4469,-3.4302,-3.4099,-3.3784,-3.3292,-3.2382,-3.1155,-3.0431,-2.9554,-2.8621,-2.8408,-2.8301,-2.8301,-2.8301,-2.8301,-2.8301,-2.8301,-2.8301,-2.8301,-2.8301,-2.8301,-2.834,-2.8691,-2.916,-2.9704,-3.0059,-3.0508,-3.0898,-3.0898,-3.0898,-3.0898,-3.0898,-3.0898,-3.0898,-3.0898,-3.0898,-3.0898,-3.0898,-3.0898,-3.0898,-3.0898,-3.0898,-3.0781,-3.0371,-3.0234,-2.9961,-2.9238,-2.9004,-2.8789,-2.8437,-2.834,-2.8301,-2.8301,-2.8301,-2.8301,-2.8301,-2.8301,-2.8301,-2.8301,-2.8301,-2.8301,-2.8301,-2.8301,-2.8301,-2.8301,-2.8301,-2.8301,-2.8228,-2.7906,-2.7584,-2.7152,-2.6008,-2.5055,-2.439,-2.2749,-2.1631,-4.6301,-4.6301,-4.6301,-4.6301,-4.6301,-4.6301,-4.6301,-4.6075,-4.5739,-4.5345,-4.4561,-4.3829,-4.3268,-4.2086,-4.0918,-4.0106,-3.9521,-3.8789,-3.7834,-3.6778,-3.5821,-3.5173,-3.4395,-3.3863,-3.3706,-3.3966,-3.4022,-3.3706,-3.3515,-3.3233,-3.2721,-3.2571,-3.2742,-3.3197,-3.4022,-3.4803,-3.5356,-3.574,-3.5408,-3.434,-3.3888,-3.2814,-3.1216,-3.0417,-2.9578,-2.8674,-2.8408,-2.8301,-2.8301,-2.8301,-2.8301,-2.8301,-2.8301,-2.8301,-2.8301,-2.8301,-2.8437,-2.8691,-2.9121,-2.9551,-2.998,-3.043,-3.0723,-3.0898,-3.0898,-3.0898,-3.0898,-3.0898,-3.0898,-3.0898,-3.0898,-3.0898,-3.0898,-3.0898,-3.0898,-3.0898,-3.0898,-3.0703,-3.0449,-3.0234,-2.9824,-2.9375,-2.8984,-2.873,-2.8516,-2.832,-2.8301,-2.8301,-2.8301,-2.8301,-2.8301,-2.8301,-2.8301,-2.8301,-2.8301,-2.8301,-2.8301,-2.8301,-2.8301,-2.8301,-2.8301,-2.8301,-2.8301,-2.8301,-2.8014,-2.7799,-2.7691,-2.6826,-2.6118,-2.5459,-2.4167,-2.2974,-4.6301,-4.6301,-4.6301,-4.6301,-4.6301,-4.6276,-4.615,-4.5799,-4.5422,-4.5146,-4.4392,-4.3765,-4.3639,-4.2641,-4.1492,-4.0397,-4.0223,-3.9943,-3.916,-3.7917,-3.6847,-3.6426,-3.5591,-3.5135,-3.5135,-3.5521,-3.563,-3.5135,-3.4969,-3.458,-3.3832,-3.3741,-3.3797,-3.4078,-3.4969,-3.5685,-3.6231,-3.7066,-3.6647,-3.4908,-3.4358,-3.3179,-3.1434,-3.0527,-2.9659,-2.8887,-2.8461,-2.8301,-2.8301,-2.8301,-2.8301,-2.8301,-2.8301,-2.8301,-2.8301,-2.8301,-2.8555,-2.8984,-2.9414,-2.9844,-3.0273,-3.0742,-3.0898,-3.0898,-3.0898,-3.0898,-3.0898,-3.0898,-3.0898,-3.0898,-3.0898,-3.0898,-3.0898,-3.0898,-3.0898,-3.0859,-3.0762,-3.0449,-3.0137,-2.9941,-2.9375,-2.8887,-2.8789,-2.8496,-2.8301,-2.8301,-2.8301,-2.8301,-2.8301,-2.8301,-2.8301,-2.8301,-2.8301,-2.8301,-2.8301,-2.8301,-2.8301,-2.8301,-2.8301,-2.8301,-2.8301,-2.8301,-2.8301,-2.8301,-2.8121,-2.8014,-2.8014,-2.7476,-2.6881,-2.6282,-2.5404,-2.4223,-4.6301,-4.6301,-4.6301,-4.6301,-4.6301,-4.6175,-4.5673,-4.5522,-4.5196,-4.4141,-4.3865,-4.3639,-4.3137,-4.2731,-4.2231,-4.1606,-4.1492,-4.107,-3.9884,-3.9226,-3.8594,-3.7746,-3.7208,-3.6911,-3.6911,-3.6965,-3.6989,-3.6911,-3.6394,-3.6068,-3.5959,-3.5466,-3.5378,-3.563,-3.6503,-3.7096,-3.7441,-3.8262,-3.7733,-3.5786,-3.5096,-3.3967,-3.2537,-3.1071,-3.0078,-2.9501,-2.8654,-2.8301,-2.8301,-2.8301,-2.8301,-2.8301,-2.8301,-2.8301,-2.8301,-2.8301,-2.8555,-2.8984,-2.9414,-2.9844,-3.0273,-3.0742,-3.0898,-3.0898,-3.0898,-3.0898,-3.0898,-3.0898,-3.0898,-3.0898,-3.0898,-3.0898,-3.0898,-3.0898,-3.0898,-3.0781,-3.0332,-3.0215,-2.9961,-2.916,-2.8965,-2.8789,-2.8398,-2.832,-2.8301,-2.8301,-2.8301,-2.8301,-2.8301,-2.8301,-2.8301,-2.8301,-2.8301,-2.8301,-2.8301,-2.8301,-2.8301,-2.8301,-2.8301,-2.8301,-2.8301,-2.8301,-2.8301,-2.8301,-2.8301,-2.8281,-2.8281,-2.796,-2.753,-2.6935,-2.6063,-2.5,-4.6301,-4.6301,-4.6225,-4.5874,-4.5799,-4.5748,-4.5547,-4.4945,-4.4317,-4.389,-4.3539,-4.3156,-4.2787,-4.2569,-4.2344,-4.1972,-4.1915,-4.1663,-4.0845,-4.012,-3.9424,-3.8761,-3.8233,-3.7921,-3.7921,-3.808,-3.808,-3.7921,-3.7708,-3.7418,-3.7042,-3.6827,-3.6773,-3.6881,-3.7364,-3.7814,-3.808,-3.8579,-3.8087,-3.6699,-3.5943,-3.4634,-3.274,-3.1284,-3.0287,-2.9554,-2.8654,-2.8301,-2.8301,-2.8301,-2.8301,-2.8301,-2.8301,-2.8301,-2.832,-2.8574,-2.8945,-2.9394,-2.9805,-3.0254,-3.0664,-3.084,-3.0898,-3.0898,-3.0898,-3.0898,-3.0898,-3.0898,-3.0898,-3.0898,-3.0898,-3.0898,-3.0898,-3.0898,-3.0664,-3.041,-3.0234,-2.9785,-2.9297,-2.8984,-2.8711,-2.8476,-2.832,-2.8301,-2.8301,-2.8301,-2.8301,-2.8301,-2.8301,-2.8301,-2.8301,-2.8301,-2.8301,-2.8301,-2.8301,-2.8301,-2.8301,-2.8301,-2.8301,-2.8301,-2.8301,-2.8301,-2.8301,-2.8301,-2.8301,-2.8301,-2.8301,-2.8174,-2.796,-2.753,-2.6989,-2.6118,-4.6301,-4.6175,-4.5949,-4.5573,-4.5221,-4.4945,-4.4945,-4.4367,-4.374,-4.3589,-4.3237,-4.293,-4.2681,-4.2625,-4.2594,-4.2425,-4.2245,-4.1923,-4.1379,-4.0646,-3.9942,-3.9402,-3.9009,-3.8788,-3.8788,-3.8998,-3.8998,-3.8841,-3.8736,-3.8502,-3.8108,-3.795,-3.7897,-3.7897,-3.8238,-3.8526,-3.8684,-3.8945,-3.8557,-3.7419,-3.6715,-3.5179,-3.3001,-3.1637,-3.0578,-2.9659,-2.8814,-2.8408,-2.8301,-2.8301,-2.8301,-2.8301,-2.8301,-2.8379,-2.8516,-2.8809,-2.9277,-2.9805,-3.0098,-3.0508,-3.0898,-3.0898,-3.0898,-3.0898,-3.0898,-3.0898,-3.0898,-3.0898,-3.0898,-3.0898,-3.0898,-3.0898,-3.0859,-3.0703,-3.043,-3.0117,-2.9863,-2.9336,-2.8887,-2.875,-2.8496,-2.8301,-2.8301,-2.8301,-2.8301,-2.8301,-2.8301,-2.8301,-2.8301,-2.8301,-2.8301,-2.8301,-2.8418,-2.8496,-2.8496,-2.8613,-2.8691,-2.8691,-2.8691,-2.8574,-2.8301,-2.8301,-2.8301,-2.8301,-2.8301,-2.8301,-2.8301,-2.8301,-2.8174,-2.7906,-2.7638,-2.7043,-4.6301,-4.5899,-4.5497,-4.5472,-4.4644,-4.379,-4.379,-4.379,-4.3639,-4.3087,-4.2986,-4.2986,-4.2986,-4.2986,-4.2986,-4.2986,-4.2564,-4.1957,-4.1351,-4.0852,-4.03,-3.9747,-3.9697,-3.9697,-3.9697,-3.9697,-3.9697,-3.9697,-3.9465,-3.931,-3.931,-3.8998,-3.8788,-3.8788,-3.9102,-3.931,-3.931,-3.9594,-3.912,-3.8015,-3.7268,-3.5783,-3.3549,-3.2246,-3.1043,-2.9942,-2.9099,-2.8568,-2.8301,-2.8301,-2.8301,-2.8301,-2.8301,-2.8555,-2.8926,-2.8926,-2.9473,-3.0195,-3.0195,-3.0508,-3.0898,-3.0898,-3.0898,-3.0898,-3.0898,-3.0898,-3.0898,-3.0898,-3.0898,-3.0898,-3.0879,-3.0879,-3.0762,-3.0312,-3.0195,-2.9961,-2.9101,-2.8906,-2.8789,-2.8379,-2.8301,-2.8301,-2.8301,-2.8301,-2.8301,-2.8301,-2.8301,-2.8301,-2.8301,-2.8301,-2.8301,-2.8301,-2.8672,-2.8926,-2.8926,-2.9316,-2.9626,-2.9626,-2.9626,-2.918,-2.834,-2.8301,-2.8301,-2.8301,-2.8301,-2.8301,-2.8301,-2.8301,-2.8194,-2.7906,-2.7906,-2.7584,-4.6301,-4.5899,-4.5397,-4.497,-4.4342,-4.3689,-4.3313,-4.3212,-4.3162,-4.3011,-4.2986,-4.2986,-4.2986,-4.2986,-4.2986,-4.2986,-4.2564,-4.1957,-4.1351,-4.0852,-4.03,-3.9747,-3.9697,-3.9697,-3.9697,-3.9697,-3.9697,-3.9697,-3.9645,-3.9594,-3.9594,-3.949,-3.9438,-3.9438,-3.9542,-3.9594,-3.9594,-3.9645,-3.912,-3.8015,-3.7593,-3.6258,-3.4091,-3.26,-3.1403,-3.0495,-2.9448,-2.8834,-2.8568,-2.8408,-2.8301,-2.832,-2.8613,-2.8809,-2.8984,-2.959,-2.998,-3.0234,-3.0566,-3.0781,-3.0898,-3.0898,-3.0898,-3.0898,-3.0898,-3.0898,-3.0898,-3.0898,-3.0898,-3.082,-3.0488,-3.041,-3.0371,-3.0234,-2.9746,-2.9219,-2.8965,-2.8691,-2.8437,-2.832,-2.8301,-2.8301,-2.8301,-2.8301,-2.8301,-2.8301,-2.8301,-2.8301,-2.8301,-2.8301,-2.8398,-2.8711,-2.8848,-2.9043,-2.9355,-2.9492,-2.9626,-2.9626,-2.9626,-2.9453,-2.9199,-2.9199,-2.9199,-2.9199,-2.9199,-2.9043,-2.873,-2.873,-2.852,-2.8174,-2.8174,-2.796,-4.605,-4.5573,-4.4995,-4.4443,-4.389,-4.3388,-4.3062,-4.2986,-4.2986,-4.2986,-4.2986,-4.2986,-4.2986,-4.2986,-4.2911,-4.274,-4.2183,-4.163,-4.1025,-4.0551,-4.0074,-3.9747,-3.9697,-3.9697,-3.9697,-3.9697,-3.9697,-3.9697,-3.9697,-3.9697,-3.9697,-3.9697,-3.9697,-3.9697,-3.9697,-3.9697,-3.9697,-3.9697,-3.9245,-3.8341,-3.7767,-3.6603,-3.4793,-3.3192,-3.1891,-3.0888,-2.9554,-2.8781,-2.8514,-2.8354,-2.8398,-2.8574,-2.8828,-2.9121,-2.9492,-3.0,-3.0312,-3.0508,-3.0801,-3.0898,-3.0898,-3.0898,-3.0898,-3.0898,-3.0898,-3.0898,-3.0898,-3.0898,-3.0762,-3.0547,-3.0273,-2.9941,-2.9687,-2.9687,-2.9297,-2.8867,-2.8711,-2.8476,-2.8301,-2.8301,-2.8301,-2.8301,-2.8301,-2.8301,-2.8301,-2.8301,-2.8301,-2.8301,-2.8301,-2.8437,-2.8633,-2.8887,-2.9219,-2.9531,-2.9805,-2.998,-3.0098,-3.0098,-3.0098,-3.0098,-3.0098,-2.9766,-2.9626,-2.9626,-2.9626,-2.9434,-2.918,-2.918,-2.8965,-2.8535,-2.8535,-2.8403,-4.5623,-4.502,-4.4418,-4.3915,-4.3388,-4.2986,-4.2986,-4.2986,-4.2986,-4.2986,-4.2986,-4.2986,-4.2986,-4.2936,-4.2791,-4.2288,-4.1656,-4.105,-4.0601,-4.0049,-3.9697,-3.9697,-3.9697,-3.9697,-3.9697,-3.9697,-3.9697,-3.9697,-3.9697,-3.9697,-3.9697,-3.9697,-3.9697,-3.9697,-3.9697,-3.9697,-3.9697,-3.9697,-3.9421,-3.8868,-3.7891,-3.6797,-3.5615,-3.3977,-3.2448,-3.097,-2.9396,-2.8568,-2.8301,-2.834,-2.8574,-2.8926,-2.9004,-2.9512,-3.0195,-3.0234,-3.0527,-3.0898,-3.0898,-3.0898,-3.0898,-3.0898,-3.0898,-3.0898,-3.0898,-3.0898,-3.0879,-3.084,-3.0527,-3.0176,-3.0098,-2.9492,-2.8906,-2.8867,-2.8867,-2.8769,-2.8379,-2.8301,-2.8301,-2.8301,-2.8301,-2.8301,-2.8301,-2.8301,-2.8301,-2.8301,-2.8301,-2.8301,-2.8301,-2.8652,-2.8945,-2.8965,-2.9707,-3.0215,-3.0254,-3.0644,-3.0898,-3.0898,-3.0898,-3.0898,-3.0898,-3.0117,-2.9744,-2.9744,-2.9744,-2.9724,-2.9629,-2.9629,-2.9394,-2.8984,-2.8984,-2.8769,-4.5522,-4.4744,-4.394,-4.384,-4.3388,-4.2986,-4.2986,-4.2986,-4.2986,-4.2986,-4.2986,-4.2986,-4.2986,-4.269,-4.2338,-4.2238,-4.1329,-4.0651,-4.0526,-4.0049,-3.9697,-3.9697,-3.9697,-3.9697,-3.9697,-3.9697,-3.9697,-3.9697,-3.9697,-3.9697,-3.9697,-3.9697,-3.9697,-3.9697,-3.9697,-3.9697,-3.9697,-3.9697,-3.9421,-3.8868,-3.8415,-3.7512,-3.6144,-3.4163,-3.2117,-3.0183,-2.9396,-2.8761,-2.832,-2.8652,-2.8848,-2.8984,-2.9648,-3.0039,-3.0234,-3.0605,-3.0801,-3.0898,-3.0898,-3.0898,-3.0898,-3.0898,-3.0898,-3.0898,-3.0898,-3.0898,-3.082,-3.0449,-3.0273,-3.0039,-2.9375,-2.9062,-2.8828,-2.8496,-2.8437,-2.8398,-2.832,-2.8301,-2.8301,-2.8301,-2.8301,-2.8301,-2.8301,-2.8301,-2.8301,-2.8301,-2.8301,-2.8301,-2.8301,-2.8652,-2.9043,-2.9394,-2.9883,-3.0351,-3.0703,-3.084,-3.0898,-3.0898,-3.0898,-3.0898,-3.0898,-3.0703,-3.0605,-3.0605,-3.0605,-3.043,-3.0059,-3.0059,-2.9844,-2.9434,-2.9434,-2.9375,-4.4819,-4.4242,-4.374,-4.3463,-4.3187,-4.2986,-4.2986,-4.2986,-4.2986,-4.2986,-4.2986,-4.2986,-4.2986,-4.259,-4.2137,-4.1806,-4.1053,-4.0425,-4.0149,-3.9873,-3.9697,-3.9697,-3.9697,-3.9697,-3.9697,-3.9697,-3.9697,-3.9697,-3.9697,-3.9697,-3.9697,-3.9697,-3.9697,-3.9697,-3.9697,-3.9697,-3.9697,-3.9697,-3.9546,-3.927,-3.8409,-3.6943,-3.4901,-3.3321,-3.1698,-3.004,-2.9507,-2.909,-2.8926,-2.9141,-2.9355,-2.957,-3.0019,-3.0332,-3.0566,-3.0801,-3.0898,-3.0898,-3.0898,-3.0898,-3.0898,-3.0898,-3.0898,-3.0898,-3.0898,-3.0742,-3.0508,-3.0273,-2.9902,-2.9473,-2.9043,-2.8769,-2.8574,-2.834,-2.8301,-2.8301,-2.8301,-2.8301,-2.8301,-2.8301,-2.8301,-2.8301,-2.8301,-2.8301,-2.8301,-2.8301,-2.8301,-2.8359,-2.8574,-2.8965,-2.9394,-2.9824,-3.0273,-3.0625,-3.0859,-3.0898,-3.0898,-3.0898,-3.0898,-3.0898,-3.0898,-3.0898,-3.0898,-3.0898,-3.0898,-3.0762,-3.0527,-3.0527,-3.0293,-2.9863,-2.9863,-2.9766,-4.4066,-4.374,-4.3539,-4.3087,-4.2986,-4.2986,-4.2986,-4.2986,-4.2986,-4.2986,-4.2986,-4.2936,-4.2861,-4.2384,-4.1831,-4.1225,-4.0727,-4.0224,-3.9747,-3.9697,-3.9697,-3.9697,-3.9697,-3.9697,-3.9697,-3.9697,-3.9697,-3.9697,-3.9697,-3.9697,-3.9697,-3.9697,-3.9697,-3.9697,-3.9697,-3.9697,-3.9697,-3.9697,-3.9697,-3.9697,-3.8218,-3.6127,-3.3564,-3.2425,-3.1305,-3.0221,-2.9719,-2.9534,-2.9626,-2.9648,-2.9883,-3.0195,-3.0293,-3.0547,-3.0898,-3.0898,-3.0898,-3.0898,-3.0898,-3.0898,-3.0898,-3.0898,-3.0898,-3.0898,-3.0898,-3.0566,-3.0176,-3.0117,-2.9531,-2.8906,-2.8828,-2.8555,-2.8301,-2.8301,-2.8301,-2.8301,-2.8301,-2.8301,-2.8301,-2.8301,-2.8301,-2.8301,-2.8301,-2.8301,-2.8301,-2.8301,-2.8301,-2.8437,-2.8867,-2.9297,-2.9726,-3.0156,-3.0605,-3.0898,-3.0898,-3.0898,-3.0898,-3.0898,-3.0898,-3.0898,-3.0898,-3.0898,-3.0898,-3.0898,-3.0898,-3.0898,-3.0898,-3.0898,-3.0703,-3.0312,-3.0312,-3.0137,-4.384,-4.3463,-4.3062,-4.2986,-4.2986,-4.2986,-4.2986,-4.2986,-4.2986,-4.2986,-4.2986,-4.2891,-4.2414,-4.1806,-4.1254,-4.0727,-4.0174,-3.9772,-3.9697,-3.9697,-3.9697,-3.9697,-3.9697,-3.9697,-3.9697,-3.9697,-3.9697,-3.9697,-3.9697,-3.9697,-3.9697,-3.9697,-3.9697,-3.9697,-3.9697,-3.9697,-3.9697,-3.9697,-3.9697,-3.9697,-3.7983,-3.624,-3.4473,-3.2831,-3.1443,-3.0359,-3.0048,-2.981,-2.9646,-2.9961,-3.0137,-3.0234,-3.0644,-3.084,-3.0898,-3.0898,-3.0898,-3.0898,-3.0898,-3.0898,-3.0898,-3.0898,-3.0898,-3.0898,-3.0898,-3.0566,-3.0117,-2.9766,-2.9297,-2.8828,-2.8476,-2.834,-2.8301,-2.8301,-2.8301,-2.8301,-2.8301,-2.8301,-2.8301,-2.8301,-2.8301,-2.8301,-2.8301,-2.8301,-2.8301,-2.8301,-2.8301,-2.8437,-2.8867,-2.9297,-2.9726,-3.0156,-3.0605,-3.0898,-3.0898,-3.0898,-3.0898,-3.0898,-3.0898,-3.0898,-3.0898,-3.0898,-3.0898,-3.0898,-3.0898,-3.0898,-3.0898,-3.0898,-3.0859,-3.0801,-3.0801,-3.0762,-4.3413,-4.3162,-4.2986,-4.2986,-4.2986,-4.2986,-4.2986,-4.2986,-4.2986,-4.2986,-4.2986,-4.2811,-4.2313,-4.1706,-4.11,-4.0601,-4.0049,-3.9697,-3.9697,-3.9697,-3.9697,-3.9697,-3.9697,-3.9697,-3.9697,-3.9697,-3.9697,-3.9697,-3.9697,-3.9697,-3.9697,-3.9697,-3.9697,-3.9697,-3.9697,-3.9697,-3.9697,-3.9697,-3.9413,-3.8945,-3.7844,-3.6364,-3.4549,-3.3274,-3.1978,-3.0766,-3.0317,-3.0192,-3.0332,-3.0508,-3.0586,-3.0605,-3.082,-3.0898,-3.0898,-3.0898,-3.0898,-3.0898,-3.0898,-3.0898,-3.0898,-3.0898,-3.0898,-3.084,-3.0586,-3.0195,-2.9746,-2.9316,-2.8906,-2.8516,-2.834,-2.8301,-2.8301,-2.8301,-2.8301,-2.8301,-2.8301,-2.8301,-2.8301,-2.8301,-2.8301,-2.8301,-2.8301,-2.8301,-2.8301,-2.8301,-2.8496,-2.8789,-2.9238,-2.9648,-3.0098,-3.0547,-3.0762,-3.0898,-3.0898,-3.0898,-3.0898,-3.0898,-3.0898,-3.0898,-3.0898,-3.0898,-3.0898,-3.0898,-3.0898,-3.0898,-3.0898,-3.0898,-3.0898,-3.0898,-3.0898,-3.0898,-4.3087,-4.2986,-4.2986,-4.2986,-4.2986,-4.2986,-4.2986,-4.2986,-4.2986,-4.2986,-4.2861,-4.261,-4.2057,-4.1605,-4.105,-4.0425,-3.9973,-3.9697,-3.9697,-3.9697,-3.9697,-3.9697,-3.9697,-3.9697,-3.9697,-3.9697,-3.9697,-3.9697,-3.9697,-3.9697,-3.9697,-3.9697,-3.9697,-3.9697,-3.9697,-3.9697,-3.9697,-3.9697,-3.931,-3.8473,-3.7844,-3.6534,-3.4692,-3.3572,-3.2442,-3.1228,-3.0657,-3.0566,-3.0898,-3.0898,-3.0898,-3.0898,-3.0898,-3.0898,-3.0898,-3.0898,-3.0898,-3.0898,-3.0898,-3.0898,-3.0898,-3.0898,-3.082,-3.0644,-3.0293,-2.9824,-2.9336,-2.9004,-2.8613,-2.8301,-2.8301,-2.8301,-2.8301,-2.8301,-2.8301,-2.8301,-2.8301,-2.8301,-2.8301,-2.8301,-2.8301,-2.8301,-2.8301,-2.8301,-2.8301,-2.8301,-2.8652,-2.9082,-2.9512,-2.9941,-3.0371,-3.084,-3.0898,-3.0898,-3.0898,-3.0898,-3.0898,-3.0898,-3.0898,-3.0898,-3.0898,-3.0898,-3.0898,-3.0898,-3.0898,-3.0898,-3.0898,-3.0898,-3.0898,-3.0898,-3.0898,-3.0898,-4.2986,-4.2986,-4.2986,-4.2986,-4.2986,-4.2986,-4.2986,-4.2986,-4.2986,-4.2986,-4.2615,-4.2032,-4.148,-4.13,-4.0924,-3.9898,-3.9722,-3.9697,-3.9697,-3.9697,-3.9697,-3.9697,-3.9697,-3.9697,-3.9697,-3.9697,-3.9697,-3.9697,-3.9697,-3.9697,-3.9697,-3.9697,-3.9697,-3.9697,-3.9697,-3.9697,-3.9697,-3.9697,-3.9387,-3.8788,-3.7897,-3.6773,-3.5323,-3.3797,-3.2607,-3.1747,-3.1131,-3.0859,-3.0898,-3.0898,-3.0898,-3.0898,-3.0898,-3.0898,-3.0898,-3.0898,-3.0898,-3.0898,-3.0898,-3.0898,-3.0898,-3.0898,-3.0586,-3.0234,-3.0195,-2.9609,-2.8945,-2.8926,-2.8613,-2.8301,-2.8301,-2.8301,-2.8301,-2.8301,-2.8301,-2.8301,-2.8301,-2.8301,-2.8301,-2.8301,-2.8301,-2.8301,-2.8301,-2.8301,-2.8301,-2.8301,-2.8652,-2.9082,-2.9512,-2.9941,-3.0371,-3.084,-3.0898,-3.0898,-3.0898,-3.0898,-3.0898,-3.0898,-3.0898,-3.0898,-3.0898,-3.0898,-3.0898,-3.0898,-3.0898,-3.0898,-3.0898,-3.0898,-3.0898,-3.0898,-3.0898,-3.0898,-4.2986,-4.2986,-4.2986,-4.2986,-4.2986,-4.2986,-4.2986,-4.2986,-4.2986,-4.2986,-4.259,-4.2037,-4.1376,-4.1,-4.0576,-3.9823,-3.9697,-3.9697,-3.9697,-3.9697,-3.9697,-3.9697,-3.9697,-3.9697,-3.9697,-3.9697,-3.9697,-3.9697,-3.9697,-3.9697,-3.9697,-3.9697,-3.9697,-3.9697,-3.9697,-3.9697,-3.9697,-3.9697,-3.9387,-3.8788,-3.7897,-3.6773,-3.5378,-3.3797,-3.2628,-3.1787,-3.117,-3.0898,-3.0898,-3.0898,-3.0898,-3.0898,-3.0898,-3.0898,-3.0898,-3.0898,-3.0898,-3.0898,-3.0898,-3.0898,-3.0898,-3.0898,-3.0586,-3.0137,-2.9883,-2.9375,-2.8867,-2.8594,-2.8398,-2.8301,-2.8301,-2.8301,-2.8301,-2.8301,-2.8301,-2.8301,-2.8301,-2.8301,-2.8301,-2.8301,-2.8301,-2.8301,-2.8301,-2.8301,-2.8301,-2.8301,-2.8887,-2.9394,-2.9551,-3.0195,-3.0703,-3.0879,-3.0898,-3.0898,-3.0898,-3.0898,-3.0898,-3.0898,-3.0898,-3.0898,-3.0898,-3.0898,-3.0898,-3.0898,-3.0898,-3.0898,-3.0898,-3.0898,-3.0898,-3.0898,-3.0898,-3.0898,-4.2986,-4.2986,-4.2986,-4.2986,-4.2986,-4.2986,-4.2986,-4.2986,-4.2986,-4.2986,-4.2384,-4.1781,-4.1351,-4.0727,-4.0124,-3.9747,-3.9697,-3.9697,-3.9697,-3.9697,-3.9697,-3.9697,-3.9697,-3.9697,-3.9697,-3.9697,-3.9697,-3.9697,-3.9697,-3.9697,-3.9697,-3.9697,-3.9697,-3.9697,-3.9697,-3.9697,-3.9697,-3.9697,-3.9362,-3.8684,-3.7844,-3.6665,-3.5046,-3.3741,-3.2571,-3.1614,-3.1112,-3.0898,-3.0898,-3.0898,-3.0898,-3.0898,-3.0898,-3.0898,-3.0898,-3.0898,-3.0898,-3.0898,-3.0898,-3.0898,-3.0859,-3.0703,-3.0351,-2.9902,-2.9473,-2.9043,-2.8652,-2.8379,-2.8301,-2.8301,-2.8301,-2.8301,-2.8301,-2.8301,-2.8301,-2.8301,-2.8301,-2.8301,-2.8301,-2.8301,-2.8301,-2.8301,-2.8301,-2.8301,-2.834,-2.8476,-2.9101,-2.9685,-2.9766,-3.043,-3.0898,-3.0898,-3.0898,-3.0898,-3.0898,-3.0898,-3.0898,-3.0898,-3.0898,-3.0898,-3.0898,-3.0898,-3.0898,-3.0898,-3.0898,-3.0898,-3.0898,-3.0898,-3.0898,-3.0898,-3.0898,-3.0898,0.0,0.0,0.0,-4.2986,-4.2986,-4.2986,-4.2986,-4.2986,-4.2961,-4.2961,-4.2082,-4.1275,-4.125,-4.0425,-3.9697,-3.9697,-3.9697,-3.9697,-3.9697,-3.9697,-3.9697,-3.9697,-3.9697,-3.9697,-3.9697,-3.9697,-3.9697,-3.9697,-3.9697,-3.9697,-3.9697,-3.9697,-3.9697,-3.9697,-3.9697,-3.9697,-3.9697,-3.9697,-3.9258,-3.8396,-3.7791,-3.6426,-3.4469,-3.3515,-3.2436,-3.1267,-3.0995,-3.0898,-3.0898,-3.0898,-3.0898,-3.0898,-3.0898,-3.0898,-3.0898,-3.0898,-3.0898,-3.0898,-3.0898,-3.0879,-3.0801,-3.0351,-2.9902,-2.9473,-2.9043,-2.8633,-2.8301,-2.8301,-2.8301,-2.8301,-2.8301,-2.8301,-2.8301,-2.8301,-2.8301,-2.8301,-2.8301,-2.8301,-2.8301,-2.8301,-2.8301,-2.8301,-2.8301,-2.8301,-2.8437,-2.8848,-2.9297,-2.9726,-3.0137,-3.0605,-3.0898,-3.0898,-3.0898,-3.0898,-3.0898,-3.0898,-3.0898,-3.0898,-3.0898,-3.0898,-3.0898,-3.0898,-3.0898,-3.0898,-3.0898,-3.0898,-3.0898,-3.0898,-3.0898,-3.0898,-3.0898,-3.0898,-4.2986,0.0,0.0,0.0,0.0,0.0,-4.2986,-4.2986,-4.2861,-4.2514,-4.1831,-4.1175,-4.0774,-4.0174,-3.9697,-3.9697,-3.9697,-3.9697,-3.9697,-3.9697,-3.9697,-3.9697,-3.9697,-3.9697,-3.9697,-3.9697,-3.9697,-3.9697,-3.9697,-3.9697,-3.9697,-3.9697,-3.9697,-3.9697,-3.9697,-3.9697,-3.9697,-3.9697,-3.9258,-3.8421,-3.7578,-3.6263,-3.4469,-3.331,-3.2227,-3.1267,-3.0995,-3.0898,-3.0898,-3.0898,-3.0898,-3.0898,-3.0898,-3.0898,-3.0898,-3.0898,-3.0898,-3.0898,-3.0898,-3.0664,-3.0371,-3.0234,-2.9707,-2.9082,-2.8945,-2.8633,-2.8301,-2.8301,-2.8301,-2.8301,-2.8301,-2.8301,-2.8301,-2.8301,-2.8301,-2.8301,-2.8301,-2.8301,-2.8301,-2.8301,-2.8301,-2.8301,-2.8301,-2.8301,-2.8437,-2.8848,-2.9297,-2.9726,-3.0137,-3.0605,-3.0898,-3.0898,-3.0898,-3.0898,-3.0898,-3.0898,-3.0898,-3.0898,-3.0898,-3.0898,-3.0898,-3.0898,-3.0898,-3.0898,-3.0898,-3.0898,-3.0898,-3.0898,-3.0898,-3.0898,-3.0898,-3.0898,-4.2986,-4.2986,-4.2986,-4.2986,0.0,0.0,-4.2986,-4.2866,-4.259,-4.2263,-4.153,-4.0902,-4.0576,-4.0074,-3.9697,-3.9697,-3.9697,-3.9697,-3.9697,-3.9697,-3.9697,-3.9697,-3.9697,-3.9697,-3.9697,-3.9697,-3.9697,-3.9697,-3.9697,-3.9697,-3.9697,-3.9697,-3.9697,-3.9697,-3.9697,-3.9697,-3.9697,-3.9697,-3.9206,-3.8185,-3.7471,-3.6045,-3.4078,-3.314,-3.2133,-3.1112,-3.0937,-3.0898,-3.0898,-3.0898,-3.0898,-3.0898,-3.0898,-3.0898,-3.0898,-3.0898,-3.0898,-3.0898,-3.0898,-3.0586,-3.0176,-3.0,-2.9473,-2.8887,-2.8711,-2.8496,-2.8301,-2.8301,-2.8301,-2.8301,-2.8301,-2.8301,-2.8301,-2.8301,-2.8301,-2.8301,-2.8301,-2.8301,-2.8301,-2.8301,-2.8301,-2.8301,-2.8301,-2.8437,-2.8691,-2.9121,-2.9551,-3.0,-3.043,-3.0723,-3.0898,-3.0898,-3.0898,-3.0898,-3.0898,-3.0898,-3.0898,-3.0898,-3.0898,-3.0898,-3.0898,-3.0898,-3.0898,-3.0898,-3.0898,-3.0898,-3.0898,-3.0898,-3.0898,-3.0898,-3.0898,-3.0898,-4.2986,-4.2986,-4.2986,-4.2986,-4.2986,0.0,-4.2911,-4.2564,-4.2162,-4.2062,-4.1204,-4.0501,-4.0425,-4.0023,-3.9697,-3.9697,-3.9697,-3.9697,-3.9697,-3.9697,-3.9697,-3.9697,-3.9697,-3.9697,-3.9697,-3.9697,-3.9697,-3.9697,-3.9697,-3.9697,-3.9697,-3.9697,-3.9697,-3.9697,-3.9697,-3.9697,-3.9697,-3.9697,-3.9102,-3.7974,-3.7311,-3.5827,-3.3572,-3.297,-3.2018,-3.0898,-3.0898,-3.0898,-3.0898,-3.0898,-3.0898,-3.0898,-3.0898,-3.0898,-3.0898,-3.0898,-3.0898,-3.0879,-3.084,-3.0508,-3.0059,-2.9629,-2.9199,-2.8789,-2.8398,-2.8301,-2.8301,-2.8301,-2.8301,-2.8301,-2.8301,-2.8301,-2.8301,-2.8301,-2.8301,-2.8301,-2.8301,-2.8301,-2.8301,-2.8301,-2.8301,-2.8301,-2.8301,-2.8633,-2.9062,-2.9512,-2.9922,-3.0371,-3.084,-3.0898,-3.0898,-3.0898,-3.0898,-3.0898,-3.0898,-3.0898,-3.0898,-3.0898,-3.0898,-3.0898,-3.0898,-3.0898,-3.0898,-3.0898,-3.0898,-3.0898,-3.0898,-3.0898,-3.0898,-3.0898,-3.0898,-3.0898,-4.2986,-4.2986,-4.2986,-4.2986,-4.2986,0.0,-4.2464,-4.2288,-4.1961,-4.1028,-4.0651,-4.0375,-3.9948,-3.9772,-3.9697,-3.9697,-3.9697,-3.9697,-3.9697,-3.9697,-3.9697,-3.9697,-3.9697,-3.9697,-3.9697,-3.9697,-3.9697,-3.9697,-3.9697,-3.9697,-3.9697,-3.9697,-3.9697,-3.9697,-3.9697,-3.9697,-3.9697,-3.949,-3.8893,-3.7974,-3.6881,-3.5411,-3.3572,-3.2685,-3.1787,-3.0898,-3.0898,-3.0898,-3.0898,-3.0898,-3.0898,-3.0898,-3.0898,-3.0898,-3.0898,-3.0898,-3.0898,-3.084,-3.0469,-3.0059,-2.9629,-2.918,-2.8769,-2.8398,-2.832,-2.8301,-2.8301,-2.8301,-2.8301,-2.8301,-2.8301,-2.8301,-2.8301,-2.8301,-2.8301,-2.8301,-2.8301,-2.8301,-2.8301,-2.8301,-2.8301,-2.8301,-2.8301,-2.8633,-2.9062,-2.9512,-2.9922,-3.0371,-3.084,-3.0898,-3.0898,-3.0898,-3.0898,-3.0898,-3.0898,-3.0898,-3.0898,-3.0898,-3.0898,-3.0898,-3.0898,-3.0898,-3.0898,-3.0898,-3.0898,-3.0898,-3.0898,-3.0898,-3.0898,-3.0898,-3.0898,-3.0898,-4.2911,-4.2986,-4.2986,-4.2986,-4.2816,0.0,0.0,-4.1785,-4.1178,-4.0626,-4.03,-4.0023,-3.9747,-3.9697,-3.9697,-3.9697,-3.9697,-3.9697,-3.9697,-3.9697,-3.9697,-3.9697,-3.9697,-3.9697,-3.9697,-3.9697,-3.9697,-3.9697,-3.9697,-3.9697,-3.9697,-3.9697,-3.9697,-3.9697,-3.9697,-3.9645,-3.949,-3.9206,-3.8579,-3.7548,-3.6526,-3.508,-3.3289,-3.2571,-3.173,-3.0898,-3.0898,-3.0898,-3.0898,-3.0898,-3.0898,-3.0898,-3.0898,-3.0898,-3.0898,-3.0898,-3.0742,-3.0508,-3.0273,-2.9785,-2.9199,-2.8984,-2.8633,-2.8301,-2.8301,-2.8301,-2.8301,-2.8301,-2.8301,-2.8301,-2.8301,-2.8301,-2.8301,-2.8301,-2.8301,-2.8301,-2.8301,-2.8301,-2.8301,-2.8301,-2.8301,-2.8359,-2.8574,-2.8965,-2.9394,-2.9824,-3.0254,-3.0625,-3.0859,-3.0898,-3.0898,-3.0898,-3.0898,-3.0898,-3.0898,-3.0898,-3.0898,-3.0898,-3.0898,-3.0898,-3.0898,-3.0898,-3.0898,-3.0898,-3.0898,-3.0898,-3.0898,-3.0898,-3.0898,-3.0898,-3.0898,-3.0898,-4.2534,-4.266,-4.266,-4.266,-4.2333,-4.2011,0.0,0.0,0.0,-4.0375,-3.9998,-3.9697,-3.9697,-3.9697,-3.9697,-3.9697,-3.9798,-3.9848,-3.9848,-3.9948,-3.9923,-3.9722,-3.9697,-3.9697,-3.9697,-3.9697,-3.9697,-3.9697,-3.9697,-3.9697,-3.9697,-3.9697,-3.9697,-3.9697,-3.9697,-3.9594,-3.931,-3.8945,-3.821,-3.7089,-3.6091,-3.4747,-3.3063,-3.2399,-3.1672,-3.0898,-3.0898,-3.0898,-3.0898,-3.0898,-3.0898,-3.0898,-3.0898,-3.0898,-3.0879,-3.0801,-3.0527,-3.0176,-3.0,-2.9492,-2.8906,-2.8828,-2.8574,-2.8301,-2.8301,-2.8301,-2.8301,-2.8301,-2.8301,-2.8301,-2.8301,-2.8301,-2.8301,-2.8301,-2.8301,-2.8301,-2.8301,-2.8301,-2.8301,-2.8301,-2.8359,-2.8516,-2.8867,-2.9277,-2.9707,-3.0137,-3.0586,-3.0898,-3.0898,-3.0898,-3.0898,-3.0898,-3.0898,-3.0898,-3.0898,-3.0898,-3.0898,-3.0898,-3.0898,-3.0898,-3.0898,-3.0898,-3.0898,-3.0898,-3.0898,-3.0898,-3.0898,-3.0898,-3.0898,-3.0898,-3.0898,-3.0898,-4.1451,-4.1476,-4.1476,-4.1476,-4.1426,-4.1304,-4.0802,0.0,-4.0375,-3.9898,0.0,-3.9697,-3.9697,0.0,0.0,-3.9697,-4.0099,-4.0425,-4.0425,-4.0852,-4.0802,-3.9798,-3.9697,-3.9697,-3.9697,-3.9697,-3.9697,-3.9697,-3.9697,-3.9697,-3.9697,-3.9697,-3.9697,-3.9697,-3.9697,-3.9594,-3.931,-3.8736,-3.7974,-3.7066,-3.5685,-3.4357,-3.3063,-3.2227,-3.1518,-3.0898,-3.0898,-3.0898,-3.0898,-3.0898,-3.0898,-3.0898,-3.0898,-3.0898,-3.084,-3.043,-3.0234,-3.0078,-2.9336,-2.9004,-2.8848,-2.8476,-2.834,-2.8301,-2.8301,-2.8301,-2.8301,-2.8301,-2.8301,-2.8301,-2.8301,-2.8301,-2.8301,-2.8301,-2.8301,-2.8301,-2.8301,-2.8301,-2.8301,-2.8301,-2.8594,-2.8867,-2.8906,-2.9277,-2.9707,-3.0137,-3.0586,-3.0898,-3.0898,-3.0898,-3.0898,-3.0898,-3.0898,-3.0898,-3.0898,-3.0898,-3.0898,-3.0898,-3.0898,-3.0898,-3.0898,-3.0898,-3.0898,-3.0898,-3.0898,-3.0898,-3.0898,-3.0898,-3.0898,-3.0898,-3.0898,-3.0898,-4.12,-4.1275,-4.1275,-4.1275,-4.105,-4.0802,-4.0576,-4.0275,-3.9973,-3.9747,0.0,0.0,0.0,0.0,0.0,0.0,-4.0149,-4.0526,-4.0526,-4.0949,-4.1125,-4.0701,-4.0375,-4.0049,-3.9722,-3.9697,-3.9697,-3.9697,-3.9697,-3.9697,-3.9697,-3.9697,-3.9697,-3.9697,-3.9697,-3.949,-3.8998,-3.8631,-3.7814,-3.6603,-3.5466,-3.419,-3.2856,-3.2133,-3.146,-3.0898,-3.0898,-3.0898,-3.0898,-3.0898,-3.0995,-3.1112,-3.1112,-3.1054,-3.084,-3.0371,-3.0039,-2.9746,-2.9121,-2.8769,-2.8516,-2.834,-2.8301,-2.8301,-2.8301,-2.8301,-2.8301,-2.8301,-2.8301,-2.8301,-2.8301,-2.8301,-2.8301,-2.8301,-2.8301,-2.8301,-2.8301,-2.8301,-2.8301,-2.8301,-2.8633,-2.9004,-2.9258,-2.9648,-3.0078,-3.0527,-3.0762,-3.0898,-3.0898,-3.0898,-3.0898,-3.0898,-3.0898,-3.0898,-3.0898,-3.0898,-3.0898,-3.0898,-3.0898,-3.0898,-3.0898,-3.0898,-3.0898,-3.0898,-3.0898,-3.0898,-3.0898,-3.0898,-3.0898,-3.0898,-3.0898,-3.0898,-4.0777,-4.0824,-4.0824,-4.0824,-4.0601,-4.03,-4.03,-3.9973,-3.9697,-3.9697,-3.9697,0.0,0.0,0.0,-3.9697,-3.9697,0.0,-4.0752,-4.0752,-4.1354,-4.1681,-4.1326,-4.0852,-4.035,-3.9948,-3.9798,-3.9697,-3.9697,-3.9697,-3.9697,-3.9697,-3.9697,-3.9697,-3.9697,-3.9697,-3.9413,-3.8945,-3.8631,-3.7868,-3.6634,-3.563,-3.4413,-3.3027,-3.2227,-3.1556,-3.0995,-3.0957,-3.0898,-3.0898,-3.0898,-3.1054,-3.1325,-3.1128,-3.1031,-3.0876,-3.0366,-2.9878,-2.9447,-2.8906,-2.8555,-2.8301,-2.8301,-2.8301,-2.8301,-2.8301,-2.8301,-2.8301,-2.8301,-2.8301,-2.8301,-2.8301,-2.8301,-2.8301,-2.8301,-2.8301,-2.8301,-2.8301,-2.8301,-2.832,-2.8437,-2.8809,-2.9238,-2.9668,-3.0,-3.0351,-3.082,-3.0898,-3.0898,-3.0898,-3.0898,-3.0898,-3.0898,-3.0898,-3.0898,-3.0898,-3.0898,-3.0898,-3.0898,-3.0898,-3.0898,-3.0898,-3.0898,-3.0898,-3.0898,-3.0898,-3.0898,-3.0898,-3.0898,-3.0898,-3.0898,-3.0898,-3.0898,-3.9747,-3.9747,-3.9747,-3.9747,-3.9747,-3.9722,-3.9722,-3.9697,-3.9697,-3.9697,-3.9697,-3.9697,-3.9697,-3.9697,-3.9697,-3.9697,-4.0601,0.0,0.0,-4.2233,-4.2534,-4.1401,-4.0852,-4.0501,-4.0501,-3.9998,-3.9697,-3.9697,-3.9697,-3.9697,-3.9697,-3.9697,-3.9697,-3.9697,-3.9697,-3.9594,-3.9258,-3.8945,-3.8368,-3.7548,-3.634,-3.5135,-3.3909,-3.2721,-3.1825,-3.1267,-3.0995,-3.0898,-3.0898,-3.0898,-3.1054,-3.1227,-3.0792,-3.0804,-3.1027,-3.027,-2.9723,-2.9288,-2.8584,-2.8301,-2.8301,-2.8301,-2.8301,-2.8301,-2.8301,-2.8301,-2.8301,-2.8301,-2.8301,-2.8301,-2.8301,-2.8301,-2.8301,-2.8301,-2.8301,-2.8301,-2.8301,-2.8301,-2.8418,-2.8828,-2.9258,-2.9687,-3.0098,-3.0176,-3.0351,-3.082,-3.0898,-3.0898,-3.0898,-3.0898,-3.0898,-3.0898,-3.0898,-3.0898,-3.0898,-3.0898,-3.0898,-3.0898,-3.0898,-3.0898,-3.0898,-3.0898,-3.0898,-3.0898,-3.0898,-3.0898,-3.0898,-3.0898,-3.0898,-3.0898,-3.0898,-3.0898,-3.9697,-3.9697,-3.9697,-3.9697,-3.9697,-3.9697,-3.9697,-3.9697,-3.9697,-3.9697,-3.9697,-3.9697,-3.9697,-3.9697,-3.9697,-3.9697,-4.03,-4.0874,0.0,-4.2283,-4.2836,-4.2459,-4.1932,-4.1329,-4.0576,-4.035,-4.0099,-3.9722,-3.9697,-3.9697,-3.9697,-3.9697,-3.9697,-3.9697,-3.9697,-3.9594,-3.931,-3.9206,-3.8631,-3.7601,-3.6796,-3.5685,-3.4302,-3.3233,-3.2399,-3.1614,-3.1267,-3.1054,-3.0898,-3.1112,-3.1441,-3.19,-3.1794,-3.1836,-3.167,-3.0143,-2.952,-2.9268,-2.8564,-2.8301,-2.8301,-2.8301,-2.8301,-2.8301,-2.8301,-2.8301,-2.8301,-2.8301,-2.8301,-2.8301,-2.8301,-2.8301,-2.8301,-2.8301,-2.8301,-2.8301,-2.8301,-2.8301,-2.8418,-2.8848,-2.9277,-2.9707,-3.0117,-3.0449,-3.0703,-3.0859,-3.0898,-3.0898,-3.0898,-3.0898,-3.0898,-3.0898,-3.0898,-3.0898,-3.0898,-3.0898,-3.0898,-3.0898,-3.0898,-3.0898,-3.0898,-3.0898,-3.0898,-3.0898,-3.0898,-3.0898,-3.0898,-3.0898,-3.0898,-3.0898,-3.0898,-3.0898,-3.9697,-3.9697,-3.9697,-3.9697,-3.9697,-3.9697,-3.9697,-3.9697,-3.9697,-3.9697,-3.9697,-3.9697,-3.9697,-3.9697,-3.9697,-3.9697,-4.0149,-4.0777,0.0,-4.2233,-4.2816,-4.2961,-4.2539,-4.1861,-4.0902,-4.0626,-4.03,-3.9747,-3.9697,-3.9697,-3.9697,-3.9697,-3.9697,-3.9697,-3.9697,-3.9645,-3.9413,-3.9413,-3.905,-3.8185,-3.7495,-3.6526,-3.5245,-3.4022,-3.3006,-3.2227,-3.173,-3.1402,-3.1228,-3.1498,-3.1859,-3.2282,-3.244,-3.2359,-3.202,-3.0566,-2.9715,-2.9212,-2.8753,-2.8514,-2.8461,-2.8461,-2.8408,-2.8301,-2.8301,-2.8301,-2.8301,-2.8301,-2.8301,-2.8301,-2.8301,-2.8301,-2.8301,-2.8301,-2.8301,-2.8301,-2.8301,-2.8418,-2.8633,-2.9062,-2.9492,-2.9922,-3.0371,-3.0703,-3.0898,-3.0898,-3.0898,-3.0898,-3.0898,-3.0898,-3.0898,-3.0898,-3.0898,-3.0898,-3.0898,-3.0898,-3.0898,-3.0898,-3.0898,-3.0898,-3.0898,-3.0898,-3.0898,-3.0898,-3.0898,-3.0898,-3.0898,-3.0898,-3.0898,-3.0898,-3.0898,-3.0898]}]]